[[{"header":{"parameterUnit":"m.s-1","parameterCategory":1,"la1":30.6,"la2":28.766,"lo1":-90.7593,"lo2":-88.6598,"dy":0.0162,"dx":0.0183,"nx":116,"ny":114,"refTime":"2024-05-13T06:00:00:Z","depth":0,"parameterNumber":2,"parameterNumberName":"U-component_of_WINDS"},"data":[0.0,0.0,0.0,0.0,0.0,0.0,0.0,0.0,0.0,0.0,0.0,0.0,0.0,0.0,0.0,0.0,0.0,0.0,0.0,0.0,0.0,0.0,0.0,0.0,0.0,0.0,0.0,0.0,0.0,0.0,0.0,0.0,0.0,0.0,0.0,0.0,0.0,0.0,0.0,0.0,0.0,0.0,0.0,0.0,0.0,0.0,0.0,0.0,0.0,0.0,0.0,0.0,0.0,0.0,0.0,0.0,0.0,0.0,0.0,0.0,0.0,0.0,0.0,0.0,0.0,0.0,0.0,0.0,0.0,0.0,0.0,0.0,0.0,0.0,0.0,0.0,0.0,0.0,0.0,0.0,0.0,0.0,0.0,0.0,0.0,0.0,0.0,0.0,0.0,0.0,0.0,0.0,0.0,0.0,0.0,0.0,0.0,0.0,0.0,0.0,0.0,0.0,0.0,0.0,0.0,0.0,0.0,0.0,0.0,0.0,0.0,0.0,0.0,0.0,0.0,0.0,0.0,0.0,0.0,0.0,0.0,0.0,0.0,0.0,0.0,0.0,0.0,0.0,0.0,0.0,0.0,0.0,0.0,0.0,0.0,0.0,0.0,0.0,0.0,0.0,0.0,0.0,0.0,0.0,0.0,0.0,0.0,0.0,0.0,0.0,0.0,0.0,0.0,0.0,0.0,0.0,0.0,0.0,0.0,0.0,0.0,0.0,0.0,0.0,0.0,0.0,0.0,0.0,0.0,0.0,0.0,0.0,0.0,0.0,0.0,0.0,0.0,0.0,0.0,0.0,0.0,0.0,0.0,0.0,0.0,0.0,0.0,0.0,0.0,0.0,0.0,0.0,0.0,0.0,0.0,0.0,0.0,0.0,0.0,0.0,0.0,0.0,0.0,0.0,0.0,0.0,0.0,0.0,0.0,0.0,0.0,0.0,0.0,0.0,0.0,0.0,0.0,0.0,0.0,0.0,0.0,0.0,0.0,0.0,0.0,0.0,0.0,0.0,0.0,0.0,0.0,0.0,0.0,0.0,0.0,0.0,0.0,0.0,0.0,0.0,0.0,0.0,0.0,0.0,0.0,0.0,0.0,0.0,0.0,0.0,0.0,0.0,0.0,0.0,0.0,0.0,0.0,0.0,0.0,0.0,0.0,0.0,0.0,0.0,0.0,0.0,0.0,0.0,0.0,0.0,0.0,0.0,0.0,0.0,0.0,0.0,0.0,0.0,0.0,0.0,0.0,0.0,0.0,0.0,0.0,0.0,0.0,0.0,0.0,0.0,0.0,0.0,0.0,0.0,0.0,0.0,0.0,0.0,0.0,0.0,0.0,0.0,0.0,0.0,0.0,0.0,0.0,0.0,0.0,0.0,0.0,0.0,0.0,0.0,0.0,0.0,0.0,0.0,0.0,0.0,0.0,0.0,0.0,0.0,0.0,0.0,0.0,0.0,0.0,0.0,0.0,0.0,0.0,0.0,0.0,0.0,0.0,0.0,0.0,0.0,0.0,0.0,0.0,0.0,0.0,0.0,0.0,0.0,0.0,0.0,0.0,0.0,0.0,0.0,0.0,0.0,0.0,0.0,0.0,0.0,0.0,0.0,0.0,0.0,0.0,0.0,0.0,0.0,0.0,0.0,0.0,0.0,0.0,0.0,0.0,0.0,0.0,0.0,0.0,0.0,0.0,0.0,0.0,0.0,0.0,0.0,0.0,0.0,0.0,0.0,0.0,0.0,0.0,0.0,0.0,0.0,0.0,0.0,0.0,0.0,0.0,0.0,0.0,0.0,0.0,0.0,0.0,0.0,0.0,0.0,0.0,0.0,0.0,0.0,0.0,0.0,0.0,0.0,0.0,0.0,0.0,0.0,0.0,0.0,0.0,0.0,0.0,0.0,0.0,0.0,0.0,0.0,0.0,0.0,0.0,0.0,0.0,0.0,0.0,0.0,0.0,0.0,0.0,0.0,0.0,0.0,0.0,0.0,0.0,0.0,0.0,0.0,0.0,0.0,0.0,0.0,0.0,0.0,0.0,0.0,0.0,0.0,0.0,0.0,0.0,0.0,0.0,0.0,0.0,0.0,0.0,0.0,0.0,0.0,0.0,0.0,0.0,0.0,0.0,0.0,0.0,0.0,0.0,0.0,0.0,0.0,0.0,0.0,0.0,0.0,0.0,0.0,0.0,0.0,0.0,0.0,0.0,0.0,0.0,0.0,0.0,0.0,0.0,0.0,0.0,0.0,0.0,0.0,0.0,0.0,0.0,0.0,0.0,0.0,0.0,0.0,0.0,0.0,0.0,0.0,0.0,0.0,0.0,0.0,0.0,0.0,0.0,0.0,0.0,0.0,0.0,0.0,0.0,0.0,0.0,0.0,0.0,0.0,0.0,0.0,0.0,0.0,0.0,0.0,0.0,0.0,0.0,0.0,0.0,0.0,0.0,0.0,0.0,0.0,0.0,0.0,0.0,0.0,0.0,0.0,0.0,0.0,0.0,0.0,0.0,0.0,0.0,0.0,0.0,0.0,0.0,0.0,0.0,0.0,0.0,0.0,0.0,0.0,0.0,0.0,0.0,0.0,0.0,0.0,0.0,0.0,0.0,0.0,0.0,0.0,0.0,0.0,0.0,0.0,0.0,0.0,0.0,0.0,0.0,0.0,0.0,0.0,0.0,0.0,0.0,0.0,0.0,0.0,0.0,0.0,0.0,0.0,0.0,0.0,0.0,0.0,0.0,0.0,0.0,0.0,0.0,0.0,0.0,0.0,0.0,0.0,0.0,0.0,0.0,0.0,0.0,0.0,0.0,0.0,0.0,0.0,0.0,0.0,0.0,0.0,0.0,0.0,0.0,0.0,0.0,0.0,0.0,0.0,0.0,0.0,0.0,0.0,0.0,0.0,0.0,0.0,0.0,0.0,0.0,0.0,0.0,0.0,0.0,0.0,0.0,0.0,0.0,0.0,0.0,0.0,0.0,0.0,0.0,0.0,0.0,0.0,0.0,0.0,0.0,0.0,0.0,0.0,0.0,0.0,0.0,0.0,0.0,0.0,0.0,0.0,0.0,0.0,0.0,0.0,0.0,0.0,0.0,0.0,0.0,0.0,0.0,0.0,0.0,0.0,0.0,0.0,0.0,0.0,0.0,0.0,0.0,0.0,0.0,0.0,0.0,0.0,0.0,0.0,0.0,0.0,0.0,0.0,0.0,0.0,0.0,0.0,0.0,0.0,0.0,0.0,0.0,0.0,0.0,0.0,0.0,0.0,0.0,0.0,0.0,0.0,0.0,0.0,0.0,0.0,0.0,0.0,0.0,0.0,0.0,0.0,0.0,0.0,0.0,0.0,0.0,0.0,0.0,0.0,0.0,0.0,0.0,0.0,0.0,0.0,0.0,0.0,0.0,0.0,0.0,0.0,0.0,0.0,0.0,0.0,0.0,0.0,0.0,0.0,0.0,0.0,0.0,0.0,0.0,0.0,0.0,0.0,0.0,0.0,0.0,0.0,0.0,0.0,0.0,0.0,0.0,0.0,0.0,0.0,0.0,0.0,0.0,0.0,0.0,0.0,0.0,0.0,0.0,0.0,0.0,0.0,0.0,0.0,0.0,0.0,0.0,0.0,0.0,0.0,0.0,0.0,0.0,0.0,0.0,0.0,0.0,0.0,0.0,0.0,0.0,0.0,0.0,0.0,0.0,0.0,0.0,0.0,0.0,0.0,0.0,0.0,0.0,0.0,0.0,0.0,0.0,0.0,0.0,0.0,0.0,0.0,0.0,0.0,0.0,0.0,0.0,0.0,0.0,0.0,0.0,0.0,0.0,0.0,0.0,0.0,0.0,0.0,0.0,0.0,0.0,0.0,0.0,0.0,0.0,0.0,0.0,0.0,0.0,0.0,0.0,0.0,0.0,0.0,0.0,0.0,0.0,0.0,0.0,0.0,0.0,0.0,0.0,0.0,0.0,0.0,0.0,0.0,0.0,0.0,0.0,0.0,0.0,0.0,0.0,0.0,0.0,0.0,0.0,0.0,0.0,0.0,0.0,0.0,0.0,0.0,0.0,0.0,0.0,0.0,0.0,0.0,0.0,0.0,0.0,0.0,0.0,0.0,0.0,0.0,0.0,0.0,0.0,0.0,0.0,0.0,0.0,0.0,0.0,0.0,0.0,0.0,0.0,0.0,0.0,0.0,0.0,0.0,0.0,0.0,0.0,0.0,0.0,0.0,0.0,0.0,0.0,0.0,0.0,0.0,0.0,0.0,0.0,0.0,0.0,0.0,0.0,0.0,0.0,0.0,0.0,0.0,0.0,0.0,0.0,0.0,0.0,0.0,0.0,0.0,0.0,0.0,0.0,0.0,0.0,0.0,0.0,0.0,0.0,0.0,0.0,0.0,0.0,0.0,0.0,0.0,0.0,0.0,0.0,0.0,0.0,0.0,0.0,0.0,0.0,0.0,0.0,0.0,0.0,0.0,0.0,0.0,0.0,0.0,0.0,0.0,0.0,0.0,0.0,0.0,0.0,0.0,0.0,0.0,0.0,0.0,0.0,0.0,0.0,0.0,0.0,0.0,0.0,0.0,0.0,0.0,0.0,0.0,0.0,0.0,0.0,0.0,0.0,0.0,0.0,0.0,0.0,0.0,0.0,0.0,0.0,0.0,0.0,0.0,0.0,0.0,0.0,0.0,0.0,0.0,0.0,0.0,0.0,0.0,0.0,0.0,0.0,0.0,0.0,0.0,0.0,0.0,0.0,0.0,0.0,0.0,0.0,0.0,0.0,0.0,0.0,0.0,0.0,0.0,0.0,0.0,0.0,0.0,0.0,0.0,0.0,0.0,0.0,0.0,0.0,0.0,0.0,0.0,0.0,0.0,0.0,0.0,0.0,0.0,0.0,0.0,0.0,0.0,0.0,0.0,0.0,0.0,0.0,0.0,0.0,0.0,0.0,0.0,0.0,0.0,0.0,0.0,0.0,0.0,0.0,0.0,0.0,0.0,0.0,0.0,0.0,0.0,0.0,0.0,0.0,0.0,0.0,0.0,0.0,0.0,0.0,0.0,0.0,0.0,0.0,0.0,0.0,0.0,0.0,0.0,0.0,0.0,0.0,0.0,0.0,0.0,0.0,0.0,0.0,0.0,0.0,0.0,0.0,0.0,0.0,0.0,0.0,0.0,0.0,0.0,0.0,0.0,0.0,0.0,0.0,0.0,0.0,0.0,0.0,0.0,0.0,0.0,0.0,0.0,0.0,0.0,0.0,0.0,0.0,0.0,0.0,0.0,0.0,0.0,0.0,0.0,0.0,0.0,0.0,0.0,0.0,0.0,0.0,0.0,0.0,0.0,0.0,0.0,0.0,0.0,0.0,0.0,0.0,0.0,0.0,0.0,0.0,0.0,0.0,0.0,0.0,0.0,0.0,0.0,0.0,0.0,0.0,0.0,0.0,0.0,0.0,0.0,0.0,0.0,0.0,0.0,0.0,0.0,0.0,0.0,0.0,0.0,0.0,0.0,0.0,0.0,0.0,0.0,0.0,0.0,0.0,0.0,0.0,0.0,0.0,0.0,0.0,0.0,0.0,0.0,0.0,0.0,0.0,0.0,0.0,0.0,0.0,0.0,0.0,0.0,0.0,0.0,0.0,0.0,0.0,0.0,0.0,0.0,0.0,0.0,0.0,0.0,0.0,0.0,0.0,0.0,0.0,0.0,0.0,0.0,0.0,0.0,0.0,0.0,0.0,0.0,0.0,0.0,0.0,0.0,0.0,0.0,0.0,0.0,0.0,0.0,0.0,0.0,0.0,0.0,0.0,0.0,0.0,0.0,0.0,0.0,0.0,0.0,0.0,0.0,0.0,0.0,0.0,0.0,0.0,0.0,0.0,0.0,0.0,0.0,0.0,0.0,0.0,0.0,0.0,0.0,0.0,0.0,0.0,0.0,0.0,0.0,0.0,0.0,0.0,0.0,0.0,0.0,0.0,0.0,0.0,0.0,0.0,0.0,0.0,0.0,0.0,0.0,0.0,0.0,0.0,0.0,0.0,0.0,0.0,0.0,0.0,0.0,0.0,0.0,0.0,0.0,0.0,0.0,0.0,0.0,0.0,0.0,0.0,0.0,0.0,0.0,0.8856,0.0,0.0,0.0,0.0,0.0,0.0,0.0,0.0,0.0,0.0,0.0,0.0,0.0,0.0,0.0,0.0,0.0,0.0,0.0,0.0,0.0,0.0,0.0,0.0,0.5755,0.5761,0.5723,0.568,0.5723,0.5836,0.0,0.0,0.0,0.0,0.0,0.6196,0.6439,0.6717,0.7042,0.7516,0.8122,0.887,0.8735,0.8269,0.7551,0.0,0.0,0.0,0.0,0.0,0.0,0.0,0.0,0.0,0.0,0.0,0.0,0.0,0.0,0.0,0.0,0.0,0.0,0.0,0.0,0.0,0.0,0.0,0.0,0.0,0.0,0.0,0.0,0.0,0.0,0.0,0.0,0.0,0.0,0.0,0.0,0.0,0.0,0.0,0.0,0.0,0.0,0.0,0.0,0.0,0.0,0.0,0.0,0.0,0.0,0.0,0.0,0.0,0.0,0.0,0.0,0.0,0.0,0.0,0.0,0.0,0.0,0.0,0.0,0.0,0.0,0.0,0.0,0.0,0.0,0.0,0.962,0.0,0.0,0.0,0.0,0.0,0.0,0.0,0.0,0.0,0.0,0.0,0.0,0.0,0.0,0.0,0.0,0.0,0.0,0.0,0.0,0.0,0.5696,0.5733,0.5739,0.5755,0.5798,0.5803,0.5884,0.6073,0.6089,0.0,0.0,0.0,0.6455,0.6455,0.6726,0.7104,0.7514,0.8381,0.933,1.0426,1.0799,1.0336,0.9112,0.844,0.0,0.0,0.0,0.0,0.0,0.0,0.0,0.0,0.0,0.0,0.0,0.0,0.0,0.0,0.0,0.0,0.0,0.0,0.0,0.0,0.0,0.0,0.0,0.0,0.0,0.0,0.0,0.0,0.0,0.0,0.0,0.0,0.0,0.0,0.0,0.0,0.0,0.0,0.0,0.0,0.0,0.0,0.0,0.0,0.0,0.0,0.0,0.0,0.0,0.0,0.0,0.0,0.0,0.0,0.0,0.0,0.0,0.0,0.0,0.0,0.0,0.0,0.0,1.151,1.1881,1.2075,1.2318,1.2662,1.2996,1.1628,1.0918,1.0697,0.0,0.0,0.0,0.0,0.0,0.0,0.0,0.0,0.0,0.0,0.0,0.0,0.0,0.0,0.0,0.0,0.0,0.0,0.0,0.0,0.5755,0.5954,0.5976,0.6062,0.6283,0.6299,0.6315,0.6342,0.6347,0.0,0.0,0.6584,0.6641,0.6641,0.7233,0.7717,0.8029,1.0306,1.2019,1.3181,1.3525,1.3598,1.3271,1.0988,1.0261,1.077,0.0,0.0,0.0,0.0,0.0,0.0,0.0,0.0,0.0,0.0,0.0,0.0,0.0,0.0,0.0,0.0,0.0,0.0,0.0,0.0,0.0,0.0,0.0,0.0,0.0,0.0,0.0,0.0,0.0,0.0,0.0,0.0,0.0,0.0,0.0,0.0,0.0,0.0,0.0,0.0,0.0,0.8145,0.8393,0.0,0.0,0.0,0.0,0.0,0.0,0.0,0.0,0.0,0.0,0.0,0.0,0.0,0.0,1.0746,1.1671,1.2151,1.2188,1.3071,1.3507,1.3545,1.3798,1.4051,1.4288,1.4073,0.0,1.2388,1.1736,0.0,0.0,0.0,0.0,0.0,0.0,0.0,0.0,0.0,0.0,0.0,0.0,0.0,0.0,0.0,0.0,0.0,0.0,0.0,0.0,0.0,0.651,0.6736,0.7092,0.7424,0.7431,0.6995,0.7304,0.0,0.0,0.688,0.6929,0.6929,0.7606,0.868,1.0235,1.2444,1.3983,1.4866,1.5432,1.5715,1.5688,1.4519,1.3177,1.168,1.0955,0.0,0.0,0.0,0.0,0.0,0.0,0.0,0.0,0.0,0.0,0.0,0.0,0.0,0.0,0.0,0.0,0.0,0.0,0.0,0.0,0.0,0.0,0.0,0.0,0.0,0.0,0.0,0.0,0.0,0.0,0.0,0.0,0.0,0.0,0.0,0.0,0.0,0.0,0.0,0.821,0.8689,0.8533,0.8958,0.9066,0.0,0.0,0.0,0.0,0.0,0.0,0.0,0.0,0.0,1.0907,1.151,1.2011,1.2382,1.32,1.3674,1.3809,1.4492,1.4961,1.5225,1.5332,1.5661,1.6118,1.5849,1.551,1.502,1.3373,1.2554,1.2264,0.0,0.0,0.0,0.0,1.1381,1.1639,0.0,0.0,0.0,0.0,0.0,0.0,0.0,0.0,0.0,0.0,0.0,0.0,0.6848,0.7249,0.7672,0.8049,0.8495,0.8489,0.7764,0.7991,0.7825,0.7144,0.7085,0.7139,0.7246,0.8287,1.0008,1.2484,1.4114,1.5441,1.6385,1.6953,1.7437,1.7775,1.7578,1.5988,1.3508,1.2683,1.1844,1.0955,0.0,0.0,0.0,0.0,0.0,0.0,0.0,0.0,0.0,0.0,0.0,0.0,0.0,0.0,0.0,0.0,0.0,0.0,0.0,0.0,0.0,0.0,0.0,0.0,0.0,0.0,0.0,0.0,0.0,0.0,0.0,0.0,0.0,0.0,0.0,0.0,0.0,0.8705,0.9125,0.8662,0.934,0.9567,0.0,0.0,0.0,0.0,0.0,0.0,1.0455,1.1085,1.1688,1.2226,1.2931,1.3507,1.3927,1.4573,1.5015,1.5257,1.5731,1.6178,1.6587,1.6646,1.6964,1.7448,1.7087,1.7028,1.7023,1.4896,1.3873,1.3566,1.2678,1.2334,1.2339,1.2339,1.2484,1.2759,0.0,0.0,0.0,0.0,0.0,0.0,0.0,0.0,0.0,0.0,0.0,0.6853,0.7309,0.8281,0.8987,0.9208,0.926,0.9099,0.8679,0.806,0.7521,0.7139,0.7085,0.7295,0.767,0.9728,1.1843,1.3999,1.5012,1.6284,1.7813,1.8176,1.8983,2.0095,1.9376,1.8605,1.7556,1.5749,1.4819,1.4245,1.2126,0.0,0.0,0.0,0.0,0.0,0.0,0.0,0.0,0.0,0.0,0.0,0.0,0.0,0.0,0.0,0.0,0.0,0.0,0.0,0.0,0.0,0.0,0.0,0.0,0.0,0.0,0.0,0.0,0.0,0.0,0.0,0.0,0.0,0.0,0.0,0.0,0.0,0.0,0.8904,0.9873,0.0,0.0,0.0,0.0,1.053,1.0783,1.1225,1.1994,1.2409,1.2996,1.369,1.4406,1.4902,1.516,1.5639,1.6,1.6247,1.671,1.7071,1.7335,1.755,1.7669,1.7701,1.7674,1.7674,1.7572,1.6097,1.5354,1.5068,1.4331,1.4056,1.4067,1.4067,1.4213,1.4417,0.0,0.0,0.0,0.0,0.0,0.568,0.568,0.568,0.576,0.5986,0.6521,0.7267,0.8293,0.9161,0.9945,1.0681,1.0784,1.0518,0.9834,0.9112,0.8506,0.8103,0.7566,0.7983,0.9537,1.1297,1.3212,1.5342,1.6645,1.7715,1.8787,1.951,2.0102,2.0531,2.0543,2.0463,2.0069,1.7937,1.6523,1.5618,1.3632,1.2304,0.0,0.0,0.0,0.0,0.0,0.0,0.0,0.0,0.0,0.0,0.0,0.0,0.0,0.0,0.0,0.0,0.0,0.0,0.0,0.0,0.0,0.0,0.0,0.0,0.0,0.0,0.0,0.0,0.0,0.0,0.0,0.0,0.0,0.0,0.0,0.0,0.0,1.0245,1.1278,0.0,0.0,1.1467,1.1758,1.1989,1.2506,1.299,1.3405,1.4024,1.4616,1.5171,1.5591,1.6064,1.6614,1.6786,1.6985,1.7222,1.7383,1.7599,1.7836,1.7755,1.7889,1.8169,1.8024,1.8046,1.8126,1.7475,1.6791,1.6075,1.5203,1.4869,1.4875,1.4875,1.502,1.5241,0.0,0.0,0.0,0.568,0.568,0.568,0.568,0.568,0.5831,0.6279,0.6884,0.781,0.9336,1.0086,1.0927,1.1984,1.1853,1.1331,1.0452,0.9617,0.8845,0.812,0.8155,0.9144,1.1152,1.2635,1.4401,1.6331,1.7351,1.828,1.9135,1.9757,2.0322,2.0825,2.1214,2.1476,2.1696,2.0189,1.8743,1.715,1.543,1.4474,1.3878,0.0,0.0,0.0,0.0,0.0,0.0,0.0,0.0,0.0,0.0,0.0,0.0,0.0,0.0,0.0,0.0,0.0,0.0,0.0,0.0,0.0,0.0,0.0,0.0,0.0,0.0,0.0,0.0,0.0,0.0,0.0,0.0,0.0,0.0,0.0,1.1467,1.1467,1.2522,1.3087,1.2684,1.2942,1.3227,1.3464,1.3992,1.4482,1.4885,1.5429,1.5941,1.6414,1.6662,1.7017,1.7491,1.7491,1.7566,1.7717,1.7803,1.7933,1.8094,1.8003,1.8137,1.8433,1.8358,1.8369,1.8422,1.8272,1.7787,1.7066,1.6274,1.5968,1.5957,1.5876,1.5941,1.6086,0.0,0.5397,0.568,0.568,0.568,0.568,0.568,0.568,0.6019,0.6877,0.7427,0.842,1.0237,1.1117,1.1955,1.2921,1.2401,1.1503,1.0384,0.9363,0.8275,0.7242,0.8934,1.0722,1.2388,1.3874,1.5306,1.6978,1.7216,1.7897,1.9034,1.9049,1.981,2.1222,2.1238,2.1745,2.2578,2.2578,2.1311,1.9196,1.7716,1.7096,1.6793,0.0,0.0,0.0,0.0,0.0,0.0,0.0,0.0,0.0,0.0,0.0,0.0,0.0,0.0,0.0,0.0,0.0,0.0,0.0,0.0,0.0,0.0,0.0,0.0,0.0,0.0,0.0,0.0,0.0,0.0,0.0,0.0,0.0,1.0385,1.1569,1.2468,1.249,1.3529,1.4159,1.3933,1.4331,1.4702,1.4945,1.5182,1.5623,1.6323,1.6571,1.691,1.7389,1.761,1.7728,1.7744,1.7733,1.7733,1.7744,1.7986,1.8105,1.811,1.8331,1.8433,1.8444,1.867,1.8643,1.8433,1.8433,1.8304,1.8056,1.7577,1.7383,1.7351,1.7103,1.7012,1.6974,0.5179,0.5464,0.568,0.568,0.568,0.568,0.568,0.568,0.6019,0.6877,0.7427,0.8493,1.0533,1.1246,1.1955,1.2921,1.2204,1.1459,1.0793,0.9348,0.8583,0.881,1.0581,1.2223,1.3662,1.5094,1.6404,1.7552,1.8116,1.8824,1.9576,2.0227,2.0695,2.1113,2.1783,2.2028,2.2112,2.2534,2.2237,2.1287,1.9926,1.8938,1.8021,0.0,0.0,0.0,0.0,0.0,0.0,0.0,0.0,0.0,0.0,0.0,0.0,0.0,0.0,0.0,0.0,0.0,0.0,0.0,0.0,0.0,0.0,0.0,0.0,0.0,0.0,0.0,0.0,0.0,0.0,0.0,0.0,1.2032,1.1623,1.2641,1.3626,1.4143,1.495,1.5575,1.5854,1.6,1.6247,1.6662,1.6754,1.6953,1.7313,1.7394,1.7572,1.7889,1.7782,1.7884,1.8234,1.8073,1.8073,1.8239,1.8309,1.8342,1.8342,1.8406,1.8433,1.8439,1.8503,1.8492,1.8433,1.8433,1.8396,1.8293,1.7814,1.7523,1.7367,1.7303,1.7157,1.6996,0.5114,0.5357,0.5556,0.5663,0.568,0.568,0.568,0.568,0.6069,0.7162,0.7624,0.8711,1.0918,1.1312,1.175,1.2723,1.1783,1.0861,1.0302,0.9305,0.9282,1.0464,1.2141,1.3726,1.5077,1.6388,1.745,1.843,1.8803,1.9396,2.0164,2.0535,2.0959,2.1315,2.1837,2.2041,2.2196,2.2675,2.2727,2.2419,2.1533,2.0807,2.0002,1.8362,1.7215,1.6492,1.5234,1.4758,1.4582,1.4011,0.0,0.0,0.0,0.0,0.0,0.0,0.0,0.0,0.0,0.0,0.0,0.0,0.0,0.0,0.0,0.0,0.0,0.0,0.0,0.0,0.0,0.0,0.0,0.0,1.2641,1.3513,1.3534,1.4126,1.4794,1.5408,1.6021,1.6544,1.6926,1.705,1.7222,1.7502,1.7523,1.7626,1.7863,1.7873,1.7986,1.8229,1.8094,1.8153,1.8433,1.8304,1.8304,1.8433,1.8433,1.8433,1.8433,1.8433,1.8433,0.0,1.8541,1.8525,1.8444,1.8541,1.8519,0.0,0.0,0.0,0.0,0.0,1.7125,1.7001,0.4991,0.5163,0.5384,0.5637,0.568,0.568,0.568,0.568,0.6196,0.7547,0.7886,0.8897,1.116,1.1194,1.1399,1.2195,1.1108,1.0066,0.9382,0.9423,1.0258,1.211,1.3726,1.5204,1.6513,1.7479,1.8408,1.9279,1.9345,1.9864,2.0772,2.0479,2.0729,2.1488,2.1645,2.1861,2.2395,2.2757,2.302,2.2867,2.2703,2.2461,2.2037,2.0287,1.9325,1.8639,1.7227,1.6089,1.5409,1.518,0.0,0.0,0.0,0.0,0.0,0.0,0.0,0.0,0.0,0.0,0.0,0.0,0.0,0.0,0.0,0.0,0.0,0.0,0.0,0.0,0.0,0.0,0.0,0.0,1.39,1.4945,1.5655,1.5785,1.5946,1.6344,1.678,1.7152,1.7432,1.7615,1.7744,1.7798,1.7798,1.7895,1.8121,0.0,0.0,0.0,0.0,1.8433,1.8433,1.846,1.8476,1.8476,1.8476,1.8476,1.8471,1.8444,1.8433,1.8444,1.8654,1.8627,1.8455,1.8659,1.8622,1.8412,1.818,1.7959,1.7706,1.7254,1.7066,1.705,0.5157,0.5276,0.5384,0.5637,0.568,0.568,0.568,0.568,0.6196,0.7547,0.7765,0.842,1.0126,1.0552,1.0671,1.0661,1.0316,0.9958,0.9719,1.0514,1.1799,1.3761,1.5252,1.6453,1.7516,1.8496,1.9089,1.9279,1.9798,2.0413,2.1115,2.105,2.1196,2.1634,2.2016,2.1987,2.1873,2.2788,2.305,2.3066,2.3842,2.3403,2.2196,2.1233,2.0682,2.0355,1.8965,1.8439,1.8277,1.7223,1.6396,1.5701,1.5065,1.3923,0.0,0.0,0.0,0.0,0.0,0.0,0.0,0.0,0.0,0.0,0.0,0.0,0.0,0.0,0.0,0.0,0.0,0.0,0.0,1.3583,1.4772,1.5924,1.663,1.691,1.6996,1.6883,1.713,1.748,1.7911,1.7814,1.7879,1.8266,1.8299,1.832,1.8369,1.8369,0.0,1.8433,1.8433,1.8433,1.8433,1.8622,1.8719,1.8719,0.0,0.0,1.8713,1.8519,1.8433,1.8439,1.8482,1.8476,1.8439,1.8487,1.8476,1.8412,1.818,1.8067,1.7986,1.769,1.7464,1.7308,0.5238,0.5303,0.5384,0.5637,0.568,0.568,0.568,0.568,0.6068,0.7084,0.7417,0.7999,0.9145,0.9527,0.9616,0.9504,0.9446,0.959,1.0047,1.1356,1.3029,1.4996,1.6402,1.7545,1.8525,1.9184,1.9681,1.9996,2.0325,2.0808,2.1452,2.1284,2.1386,2.1693,2.1693,2.1693,2.1715,2.2401,2.2744,2.2894,2.3414,2.3179,2.2678,2.2513,2.1895,2.0996,2.0498,2.0005,1.9396,1.8577,1.7655,1.6711,1.5921,1.4889,1.3821,0.0,0.0,0.0,0.0,0.0,0.0,0.0,0.0,0.0,0.0,0.0,0.0,0.0,0.0,1.2826,1.2825,0.0,1.4667,1.495,1.5968,1.6829,1.7297,1.7577,1.7642,1.7389,1.7583,1.783,1.8073,1.8083,1.8175,1.8417,1.8541,1.8557,1.8439,1.8665,1.8686,1.8444,1.8665,1.8735,1.8611,1.8848,1.8966,1.8966,1.8842,1.8783,1.8772,1.8541,1.8433,1.8433,1.8433,1.8433,1.8433,1.8433,1.8433,1.8422,1.8309,1.8121,1.7879,1.7636,1.74,1.719,0.5265,0.5346,0.5437,0.5642,0.568,0.568,0.568,0.5636,0.5848,0.6537,0.6971,0.7455,0.8084,0.8365,0.8533,0.8417,0.8577,0.9182,1.0335,1.2067,1.398,1.6082,1.7282,1.8364,1.9352,1.9689,2.0135,2.072,2.0786,2.1123,2.1686,2.1364,2.1445,2.1862,2.154,2.165,2.2081,2.2345,2.263,2.2893,2.2769,2.2835,2.2981,2.327,2.2572,2.1496,2.1576,2.0772,1.9616,1.9294,1.8357,1.7208,1.6506,1.5796,1.4992,1.3821,1.3484,0.0,0.0,0.0,0.0,0.0,0.0,0.0,0.0,0.0,1.3193,1.3157,1.3544,1.3955,1.4134,1.497,1.5807,1.6404,1.7044,1.754,1.7819,1.7997,1.8019,1.7819,1.797,1.811,1.8159,1.8288,1.8406,1.8498,1.8638,1.8675,1.8579,1.8853,1.8853,1.8514,1.8875,1.8982,1.8783,1.9074,1.9192,1.9149,1.895,1.8826,1.8772,1.8541,1.8433,1.8433,1.8433,1.8433,1.8433,1.8433,1.8433,1.8428,1.8385,1.8105,1.7706,1.762,1.74,1.7147,0.5297,0.5486,0.5647,0.5674,0.568,0.568,0.568,0.5507,0.5585,0.6259,0.6334,0.6443,0.6791,0.7284,0.7484,0.716,0.7854,0.9032,1.0664,1.2437,1.4518,1.7055,1.786,1.8708,1.9689,2.0018,2.0362,2.072,2.1013,2.1342,2.1686,2.1364,2.1679,2.2506,2.2206,2.2564,2.3384,2.342,2.3625,2.3866,2.3288,2.2901,2.2645,2.2465,2.2451,2.2359,2.1554,2.0435,1.9279,1.8957,1.8167,1.7362,1.7545,1.696,1.6074,1.5365,1.437,1.3317,1.2514,1.243,1.2865,1.4281,1.4326,1.4516,0.0,0.0,1.5438,1.6733,1.6669,1.6314,1.6356,1.6885,1.7292,1.7272,1.7496,1.7841,1.8293,1.8202,1.8083,1.8056,1.8078,1.8175,1.8379,1.8234,1.8304,1.8713,1.8579,1.8649,1.9052,1.8719,1.8584,1.874,1.8799,1.881,1.8783,1.923,1.9359,1.9149,1.9122,1.8993,1.8772,1.8541,1.8433,1.8433,1.8433,1.8433,1.8433,1.8433,1.8433,1.8417,1.8212,1.7965,1.7766,1.8169,1.8029,1.7636,0.5524,0.561,0.568,0.568,0.568,0.568,0.568,0.5463,0.5407,0.5671,0.5698,0.5773,0.5997,0.6425,0.6691,0.6529,0.7616,0.9069,1.0697,1.2646,1.4838,1.7223,1.7955,1.8847,2.0018,2.0172,2.0486,2.1006,2.1335,2.1467,2.1415,2.1467,2.1701,2.2081,2.1957,2.2228,2.2798,2.3157,2.3281,2.3245,2.3347,2.3084,2.2571,2.2081,2.162,2.1159,2.0574,1.9535,0.0,1.805,1.7545,1.7106,1.7435,1.6865,1.5871,1.4906,1.4111,1.371,1.3729,1.3573,1.3684,0.0,1.5994,1.6364,1.7022,1.6977,1.6764,1.6904,1.7026,1.7155,1.692,1.7435,1.7884,0.0,1.8186,1.8412,1.8611,1.8439,1.8191,1.7911,1.7873,1.797,1.8212,1.8153,1.8229,1.8557,1.8745,1.8875,1.8934,1.9009,1.9036,1.8998,1.9128,1.9198,1.9198,1.9397,1.9451,1.9348,1.9214,1.902,1.8783,1.8681,1.8562,1.8433,1.8433,1.8433,1.8422,1.8288,1.8234,1.8212,1.797,1.79,1.7927,1.7852,1.7599,1.7303,0.568,0.568,0.568,0.568,0.568,0.568,0.5593,0.5371,0.5198,0.5111,0.5161,0.5232,0.5485,0.577,0.5941,0.5941,0.7115,0.8539,1.017,1.2168,1.4381,1.6711,1.7596,1.8642,1.9945,2.0142,2.0508,2.1079,2.1401,2.1445,2.1218,2.1452,2.1657,2.1832,2.1832,2.2059,2.2469,2.2915,2.3025,2.2908,2.312,2.2871,2.2271,2.1372,2.0311,1.9286,1.914,1.8156,1.6907,1.6584,1.6235,1.5951,1.6453,1.6097,1.5303,1.4441,1.389,1.3745,1.4416,1.4467,0.0,1.6458,1.737,1.7761,1.7605,1.7589,1.7395,1.6891,1.7011,1.7297,1.7147,1.7486,1.7954,1.8449,1.8616,1.8713,1.8772,1.853,1.8137,1.7588,1.741,1.7453,1.7766,1.7911,1.811,1.8412,1.8697,1.8896,1.8977,1.9182,1.9284,1.9246,1.9413,1.9467,1.9402,1.9467,1.9435,1.93,1.9128,1.8923,1.8686,1.8686,1.8595,1.8433,1.8433,1.8396,1.8326,1.8164,1.8056,1.7976,1.7793,1.783,1.7943,1.7529,1.7303,1.7195,0.568,0.568,0.568,0.568,0.568,0.5593,0.5333,0.5159,0.4893,0.4661,0.4717,0.4934,0.5299,0.5348,0.5352,0.5352,0.5996,0.7156,0.8845,1.062,1.2764,1.5318,1.6689,1.7969,1.9279,1.9916,2.0398,2.0742,2.1064,2.1218,2.1211,2.1218,2.1562,2.2169,2.2169,2.2513,2.3084,2.3098,2.3288,2.3486,2.2586,2.2023,2.1554,1.9959,1.835,1.6996,1.7296,1.6303,1.4796,1.4605,1.4016,1.353,1.4649,1.466,1.433,1.4644,1.3919,1.3146,1.3803,0.0,1.5645,1.7732,1.8013,1.8043,1.9333,1.8307,1.7346,1.7877,1.7382,1.6802,1.7281,1.7184,1.7416,1.8584,1.8589,1.8525,1.8751,1.839,1.7836,1.7114,1.663,1.6533,0.0,1.7459,1.7927,1.8401,1.8239,1.8519,1.9429,1.9047,1.9015,1.9472,1.9494,1.9391,1.916,1.9386,1.9262,1.8805,1.8799,1.867,1.8444,1.8444,1.8439,1.8433,1.8433,1.8309,1.8105,1.8094,1.7949,1.7728,1.7723,1.7723,1.7701,1.7464,1.7513,1.7663,0.568,0.568,0.568,0.568,0.568,0.555,0.5159,0.5033,0.4893,0.4618,0.4721,0.0,0.0,0.0,0.0,0.0,0.5991,0.6915,0.8142,1.0076,1.1941,1.3669,1.5439,1.6989,1.8277,1.873,1.9323,2.0084,2.0406,2.0457,2.0259,2.0684,2.1006,2.1211,2.1211,2.1452,2.1847,2.1847,2.2162,2.2579,2.1606,2.1276,2.1152,1.9089,1.7377,1.5842,0.0,1.374,1.2955,1.26,1.2311,1.2178,1.3,1.2689,1.2037,1.1951,1.2177,1.2775,1.4591,0.0,1.658,1.9261,1.9042,1.8539,1.9425,1.8828,1.7897,1.7284,1.6533,1.5925,1.5925,1.5605,1.5668,1.6491,1.6668,1.6882,1.7091,1.7007,1.6701,1.6126,1.6008,0.0,0.0,0.0,0.0,1.8148,1.8422,1.8686,1.9004,1.9171,1.9332,1.9494,1.9348,1.9305,1.9381,1.9305,1.9106,1.8783,1.8627,1.8589,1.8659,1.8503,1.8433,1.8433,1.8433,1.8304,1.8083,1.7916,1.7706,1.7475,1.7308,1.7346,1.7331,1.6161,1.5947,1.6097,0.0,0.568,0.568,0.568,0.568,0.0,0.0,0.0,0.0,0.0,0.0,0.0,0.0,0.0,0.0,0.0,0.0,0.6374,0.7303,0.8865,1.0258,1.1611,1.3219,1.4601,1.5589,1.612,1.6725,1.7435,1.8074,1.8448,1.8369,1.9342,1.9791,1.9703,2.0172,2.0369,2.0347,2.0472,2.0625,2.0713,1.9519,1.9009,1.8786,1.6707,1.521,0.0,1.2244,1.1364,1.0904,1.0835,1.0767,1.0779,1.1376,1.1323,1.1133,1.0996,1.1908,1.3417,1.5836,1.6972,1.799,2.0111,1.9844,1.8991,1.9193,1.8475,1.7545,1.6343,1.5658,1.5008,1.4655,1.4178,1.4077,1.5019,1.5269,1.5395,1.5901,1.5915,1.5586,1.5223,1.5243,1.5251,0.0,0.0,0.0,1.7647,1.8137,1.8476,1.8649,1.9031,1.9321,1.9494,1.9273,1.9225,1.9375,1.9138,1.8896,1.8654,1.8509,1.8514,1.8654,1.8503,1.8433,1.8428,1.8347,1.818,1.7943,1.7696,1.7459,1.7238,1.7163,1.7238,1.7224,1.56,1.4837,1.4516,0.0,0.0,0.568,0.0,0.0,0.0,0.0,0.0,0.0,0.0,0.0,0.0,0.0,0.0,0.0,0.0,0.0,0.0,0.6308,0.6979,0.7951,0.9231,1.0287,1.1107,1.1707,1.2406,1.2864,1.314,1.4489,1.5266,1.5574,1.7239,1.7843,1.7603,1.8935,1.9155,1.8606,1.8899,1.8701,1.7996,1.655,1.5658,1.4857,1.316,1.2136,1.1281,1.0183,0.9354,0.8742,0.9274,0.9444,0.9456,0.9826,1.0589,1.1468,1.1888,1.3115,1.4844,1.7306,1.8538,1.9408,2.0353,1.9983,1.9237,1.8587,1.7429,1.6228,1.5242,1.4662,1.4034,0.0,0.0,1.2798,1.424,1.4183,1.4199,1.5111,1.5087,1.4884,0.0,0.0,0.0,0.0,0.0,0.0,1.699,0.0,1.7943,1.8412,1.867,1.9004,1.9445,1.9246,1.9128,1.9128,1.8885,1.8659,1.8455,1.8439,1.8433,1.8433,1.8433,1.8433,1.8422,1.8196,1.7954,1.7701,1.747,1.7233,1.7028,1.7265,1.7224,1.7087,1.5604,1.4263,1.3039,0.0,0.0,0.0,0.0,0.0,0.0,0.0,0.0,0.0,0.0,0.0,0.0,0.0,0.0,0.0,0.0,0.0,0.0,0.5563,0.6506,0.7155,0.7507,0.9006,1.0061,1.0734,1.1156,1.1677,1.2148,1.252,1.2875,1.322,1.3814,1.4189,1.4393,1.4709,1.4888,1.503,1.4799,1.5033,1.5411,1.411,1.3878,1.4092,1.2467,1.1493,1.0789,1.0054,0.9234,0.8598,0.897,0.0,0.0,1.0266,1.0947,1.1889,1.2441,1.364,1.5469,1.8692,1.8583,1.8171,2.0346,1.8506,1.6229,1.6621,1.5784,1.4558,1.3683,1.2721,1.1791,0.0,0.0,0.0,1.1761,1.2393,0.0,1.3735,1.3925,0.0,1.4197,0.0,1.5209,1.5514,1.6374,0.0,0.0,1.7728,1.8126,1.8422,1.8832,1.9031,1.8966,1.8907,1.8875,1.8875,1.8643,1.8579,1.8692,1.8519,1.8433,1.8433,1.8433,1.8433,1.8422,1.8196,1.7954,1.7701,1.747,1.7233,1.6882,1.5889,1.5517,1.5255,1.274,1.1685,1.115,0.0,0.0,0.0,0.0,0.0,0.0,0.0,0.0,0.0,0.0,0.0,0.0,0.0,0.0,0.0,0.0,0.0,0.0,0.0,0.5883,0.6216,0.6216,0.7125,0.7807,0.8133,0.8329,0.8657,0.9187,0.9668,1.0053,1.0353,1.1272,1.1732,1.1784,1.2144,1.2415,1.2447,1.2431,1.2503,0.0,0.0,1.1372,1.1525,1.0405,0.9655,0.9327,0.9092,0.9086,0.9297,0.0,0.0,1.1206,1.178,1.2116,1.2723,1.4694,0.0,1.6547,1.9737,1.9677,1.8829,1.9776,1.8199,1.6311,1.5674,1.4776,1.3737,1.2167,1.1346,0.0,0.9522,0.0,0.0,0.0,0.0,0.0,1.2771,1.3128,1.3378,0.0,1.4209,0.0,1.4819,1.5572,1.6086,0.0,1.7391,1.8153,1.8277,1.8638,1.8821,1.8783,1.8686,1.8627,1.8627,1.8503,1.8503,1.8627,1.8498,1.8433,1.8433,1.8433,1.8433,1.8417,0.0,1.7852,1.7696,1.7356,1.6734,1.5959,1.5173,1.4511,1.3722,1.149,1.0704,1.0439,0.0,0.0,0.0,0.0,0.0,0.0,0.0,0.0,0.0,0.0,0.5034,0.5149,0.0,0.0,0.0,0.0,0.0,0.0,0.0,0.0,0.5297,0.5297,0.5297,0.5297,0.5297,0.5297,0.5462,0.574,0.6687,0.7272,0.7581,0.911,0.9669,0.9415,1.0281,1.0467,1.0269,1.0604,1.0331,0.9673,0.9156,0.8681,0.8329,0.0,0.7704,0.7684,0.7871,0.8821,0.0,0.0,1.1659,1.1804,1.3973,1.4023,1.4119,1.7528,1.786,1.7805,2.0334,2.0612,2.0062,1.9047,1.8317,1.7359,1.4893,1.4018,1.3009,1.0701,0.0,0.9701,0.8607,0.8519,0.8934,0.9961,0.0,1.0944,1.2199,1.2641,1.2917,1.3141,1.3444,1.355,1.3575,1.4259,1.4742,1.492,1.6743,1.7861,1.7999,1.8186,1.853,1.8729,1.8541,1.8433,1.8433,1.8433,1.8433,1.8433,1.8433,1.8433,1.8433,1.8433,1.8433,1.8412,0.0,0.0,1.741,1.697,1.5979,1.4646,1.4381,1.3591,1.2405,1.0962,1.0439,1.0306,0.0,0.0,0.0,0.0,0.0,0.0,0.0,0.0,0.0,0.0,0.5371,0.5255,0.0,0.0,0.0,0.0,0.0,0.0,0.0,0.0,0.0,0.5297,0.5297,0.5297,0.5297,0.5297,0.5352,0.5407,0.0,0.5832,0.617,0.6478,0.6692,0.6874,0.6989,0.7077,0.7042,0.7385,0.7286,0.692,0.7295,0.7365,0.7297,0.7367,0.0,0.0,0.7814,0.0,0.0,1.0958,1.2584,1.4324,1.6128,1.6677,1.7083,1.8423,1.8443,1.8381,2.0339,1.9211,1.7572,1.8178,1.6629,1.4595,1.3163,1.2105,0.0,0.0,0.886,0.8479,0.7772,0.8276,0.9031,0.9807,0.0,0.0,0.0,0.0,1.3015,0.0,0.0,0.0,0.0,0.0,0.0,0.0,0.0,1.6836,1.7393,1.7991,1.8455,1.8492,1.8455,1.8433,1.8433,1.8433,1.8433,1.8433,1.8433,1.8433,1.8433,1.8433,1.8433,1.8422,1.8148,0.0,1.5924,1.5667,1.4658,1.3062,1.1886,1.123,1.0833,0.9513,0.8984,0.8987,0.0,0.0,0.0,0.0,0.0,0.0,0.0,0.6278,0.6364,0.6533,0.6166,0.5905,0.6,0.5736,0.5576,0.0,0.0,0.0,0.0,0.0,0.0,0.0,0.0,0.0,0.0,0.0,0.0,0.0,0.0,0.0,0.0,0.0,0.0,0.0,0.5727,0.5727,0.5727,0.6109,0.6168,0.6055,0.6485,0.6599,0.6612,0.0,0.0,0.0,0.0,0.0,0.0,1.0381,1.2016,1.3888,1.6225,1.6997,1.735,1.8494,1.8588,1.8506,1.9676,1.8846,1.7618,1.7901,1.6608,1.4734,1.2828,0.0,0.0,0.0,0.7988,0.7793,0.7533,0.0,0.0,0.0,0.0,0.0,0.0,0.0,0.0,0.0,0.0,0.0,0.0,0.0,0.0,0.0,0.0,0.0,1.6744,1.7026,1.7449,1.7872,1.7872,1.8012,1.8433,1.8433,1.8433,1.8433,1.8433,1.8433,1.8433,1.8433,1.8433,1.8422,1.8196,0.0,1.5522,1.5438,1.3896,1.1618,1.0965,1.0306,0.9513,0.8851,0.8587,0.8587,0.0,0.0,0.0,0.0,0.0,0.0,0.6423,0.642,0.6556,0.7052,0.6865,0.6626,0.6391,0.6151,0.5949,0.0,0.0,0.0,0.0,0.0,0.0,0.0,0.0,0.0,0.0,0.0,0.0,0.0,0.0,0.0,0.0,0.0,0.0,0.0,0.0,0.0,0.0,0.5686,0.574,0.0,0.0,0.0,0.0,0.0,0.0,0.0,0.0,0.0,0.0,0.0,1.0655,1.2165,1.4523,1.5911,1.6863,1.809,1.8507,1.8547,1.8986,1.8798,1.832,1.7841,1.6899,1.5401,1.2864,1.1356,0.0,0.0,0.748,0.7439,0.7476,0.0,0.8138,0.0,0.9068,0.0,0.0,0.0,0.0,0.0,0.0,0.0,0.0,0.0,0.0,0.0,0.0,0.0,1.6183,1.6183,1.6466,1.7026,1.7168,1.7449,1.7872,1.8293,1.8293,1.8153,1.8293,1.8433,1.8433,1.8433,1.8412,1.8352,1.7887,0.0,0.0,1.4611,1.2696,1.0306,1.0306,0.9513,0.8587,0.8587,0.8587,0.8587,0.0,0.0,0.0,0.0,0.0,0.0,0.6582,0.6673,0.6769,0.7052,0.7047,0.7052,0.7031,0.6723,0.6426,0.0,0.0,0.0,0.0,0.0,0.0,0.0,0.0,0.0,0.0,0.0,0.0,0.0,0.0,0.0,0.0,0.0,0.0,0.0,0.0,0.0,0.0,0.0,0.0,0.0,0.0,0.0,0.0,0.0,0.0,0.0,0.0,0.0,0.0,0.0,0.0,0.9513,1.059,1.3408,1.6476,1.7119,0.0,0.0,1.827,1.8239,1.832,1.7841,1.6527,1.4844,1.2944,0.0,0.9278,0.8024,0.7476,0.7297,0.7456,0.7646,0.7959,0.8503,0.8889,0.9567,0.0,0.0,0.0,0.0,0.0,0.0,0.0,0.0,0.0,0.0,0.0,0.0,1.6183,1.6183,1.6183,1.6325,1.6885,1.7026,1.6461,1.7731,1.8012,1.7449,1.8012,1.8433,1.8433,1.8433,1.832,1.8121,1.6693,0.0,0.0,1.2004,1.0434,0.8853,0.8853,0.872,0.8587,0.8587,0.8587,0.8587,0.0,0.0,0.0,0.0,0.0,0.0,0.6482,0.6598,0.6821,0.7052,0.7214,0.7246,0.7101,0.7083,0.69,0.6559,0.6317,0.0,0.0,0.0,0.0,0.0,0.0,0.0,0.0,0.0,0.0,0.0,0.0,0.0,0.0,0.0,0.0,0.0,0.0,0.0,0.0,0.0,0.0,0.0,0.0,0.0,0.0,0.0,0.0,0.0,0.0,0.0,0.0,0.0,0.0,0.0,0.8613,1.0475,0.0,0.0,1.5994,1.7023,1.7591,1.7872,1.7889,1.7405,1.5793,1.4002,1.2457,0.0,0.8507,0.7629,0.7155,0.696,0.7131,0.7313,0.7545,0.7862,0.8032,0.8564,0.9823,0.0,0.0,0.0,0.0,0.0,0.0,0.0,0.0,0.0,0.0,0.0,1.46,1.4699,1.4986,1.5298,1.5684,1.6028,1.6183,1.6744,1.6885,1.6603,1.6885,1.6957,1.6967,1.6962,1.6617,1.5709,1.514,0.0,0.0,1.0684,0.9496,0.7925,0.7925,0.7925,0.7925,0.7925,0.7925,0.7925,0.0,0.0,0.0,0.0,0.0,0.603,0.6347,0.653,0.6746,0.7042,0.7235,0.7279,0.7106,0.7241,0.7162,0.6825,0.6588,0.0,0.0,0.0,0.0,0.0,0.0,0.0,0.0,0.0,0.5567,0.5567,0.5567,0.0,0.0,0.0,0.0,0.0,0.0,0.0,0.0,0.0,0.0,0.0,0.0,0.0,0.0,0.0,0.0,0.0,0.0,0.0,0.0,0.0,0.0,0.0,0.0,0.791,0.9096,0.0,1.3855,1.5255,1.6403,1.7058,1.7308,1.6899,1.5192,1.3316,0.0,0.0,0.7957,0.7253,0.6907,0.6765,0.6993,0.7139,0.7281,0.7456,0.7529,0.7967,0.9116,0.9368,0.0,0.0,0.0,0.0,0.0,0.0,0.0,0.0,0.0,0.0,0.0,1.3677,1.399,1.4479,1.4684,1.5057,1.547,1.5976,1.5976,1.5895,1.5976,1.6144,1.6139,1.5807,1.5167,1.4276,0.0,0.0,0.0,0.9414,0.8526,0.7526,0.7526,0.7526,0.7526,0.7526,0.7526,0.7526,0.0,0.0,0.0,0.0,0.0,0.5841,0.6326,0.6396,0.6563,0.7026,0.7085,0.7085,0.7085,0.7085,0.7085,0.7085,0.7085,0.0,0.0,0.0,0.0,0.0,0.0,0.0,0.6209,0.6209,0.6209,0.6209,0.6209,0.6055,0.5795,0.6055,0.0,0.0,0.0,0.0,0.0,0.0,0.0,0.0,0.0,0.0,0.0,0.0,0.0,0.0,0.0,0.0,0.0,0.0,0.0,0.0,0.0,0.6104,0.6514,0.9351,1.1662,1.3495,1.4417,1.5703,1.6619,1.6382,1.4724,1.2863,0.0,0.0,0.7755,0.7136,0.6818,0.6806,0.7159,0.7224,0.7281,0.7456,0.7638,0.8073,0.8974,0.0,0.0,0.0,0.0,0.0,0.0,0.0,0.0,0.0,0.0,0.0,0.0,1.3376,1.3461,1.364,1.4151,1.4371,1.39,1.5266,1.5542,1.5026,1.5677,1.6273,1.6812,1.5357,1.4603,0.0,0.0,0.0,0.0,0.8053,0.7529,0.7526,0.7526,0.7526,0.7526,0.7526,0.7526,0.7393,0.0,0.0,0.0,0.0,0.0,0.0,0.6552,0.6627,0.6735,0.7042,0.7085,0.7085,0.7085,0.7085,0.7085,0.7085,0.7085,0.0,0.0,0.0,0.0,0.0,0.0,0.0,0.6539,0.6317,0.628,0.6487,0.6487,0.6435,0.6327,0.6435,0.6355,0.605,0.0,0.0,0.0,0.0,0.0,0.0,0.0,0.0,0.0,0.0,0.0,0.0,0.0,0.0,0.0,0.0,0.0,0.0,0.0,0.0,0.0,0.7142,0.8806,1.0563,1.2257,1.2998,1.3194,1.2965,1.1775,1.0405,0.9831,0.8325,0.7053,0.6859,0.6631,0.6538,0.6656,0.6875,0.7135,0.7435,0.7736,0.8162,0.0,0.0,0.0,0.0,0.0,0.0,0.0,0.0,0.0,0.0,0.0,0.0,0.0,1.325,1.321,1.3267,1.3729,1.3825,1.3539,1.4022,1.4162,1.3951,1.4169,1.4207,1.4209,1.3187,0.0,0.0,0.0,0.0,0.0,0.7015,0.6855,0.6855,0.6855,0.6855,0.6855,0.6855,0.6855,0.6855,0.0,0.0,0.0,0.0,0.0,0.0,0.6609,0.6684,0.6821,0.7052,0.7085,0.7085,0.7085,0.7085,0.7085,0.7085,0.7085,0.0,0.0,0.0,0.0,0.0,0.0,0.0,0.6864,0.6647,0.6648,0.6877,0.6877,0.6922,0.6885,0.7002,0.6882,0.6498,0.6608,0.6564,0.0,0.0,0.0,0.0,0.0,0.0,0.6701,0.0,0.0,0.0,0.0,0.0,0.0,0.0,0.0,0.0,0.0,0.0,0.0,0.0,0.6745,0.8057,1.0129,1.0975,1.1185,1.113,1.0167,0.911,0.8841,0.0,0.6676,0.6607,0.6501,0.6461,0.6595,0.6802,0.7142,0.7427,0.7728,0.8105,0.0,0.0,0.0,0.0,0.0,0.0,0.0,0.0,0.0,0.0,0.0,0.0,0.0,1.3096,1.2999,1.2999,1.3218,1.3348,1.3372,1.3413,1.3413,1.3372,1.2889,1.2795,1.2819,1.1243,0.0,0.0,0.0,0.0,0.0,0.6478,0.6453,0.6453,0.6453,0.6453,0.6453,0.6453,0.6453,0.6453,0.0,0.0,0.0,0.0,0.0,0.0,0.0,0.6813,0.6837,0.7111,0.7139,0.7085,0.7085,0.7085,0.7085,0.7085,0.7085,0.0,0.0,0.0,0.0,0.0,0.0,0.7085,0.7085,0.7085,0.7214,0.7421,0.7437,0.7449,0.749,0.7746,0.7613,0.7074,0.7302,0.716,0.0,0.0,0.0,0.0,0.0,0.6701,0.0,0.0,0.0,0.0,0.0,0.0,0.0,0.0,0.0,0.0,0.0,0.0,0.0,0.0,0.0,0.0,0.0,0.928,1.0147,1.0372,0.963,0.8697,0.8327,0.0,0.0,0.6457,0.642,0.6526,0.6958,0.7023,0.7151,0.746,0.7687,0.0,0.0,0.0,0.0,0.0,0.0,0.0,0.0,0.0,0.0,0.0,0.0,0.0,0.0,1.2929,1.2836,1.2836,1.2836,1.2999,1.3331,1.3173,1.3173,1.3331,1.2071,1.1854,1.2377,0.9701,0.0,0.0,0.0,0.0,0.0,0.6453,0.6453,0.6453,0.6453,0.6453,0.6453,0.6453,0.6453,0.6453,0.0,0.0,0.0,0.0,0.0,0.0,0.0,0.0,0.0,0.0,0.73,0.7085,0.7085,0.7085,0.7085,0.0,0.0,0.0,0.0,0.0,0.0,0.0,0.7085,0.7085,0.7085,0.7085,0.7295,0.772,0.7898,0.8108,0.8223,0.8528,0.8296,0.7597,0.7661,0.7426,0.0,0.0,0.0,0.0,0.6756,0.681,0.0,0.0,0.0,0.0,0.7085,0.7085,0.0,0.0,0.0,0.0,0.0,0.0,0.0,0.0,0.575,0.5858,0.6231,0.0,0.7237,0.7362,0.724,0.6978,0.0,0.6638,0.0,0.0,0.0,0.0,0.0,0.7023,0.7159,0.7784,0.8162,0.0,0.0,0.0,0.0,0.0,0.0,0.0,0.0,0.0,0.0,0.0,0.0,0.0,0.0,1.2929,1.2836,1.2836,1.2836,1.2877,1.2962,1.3047,1.3047,1.2962,1.1844,1.1419,1.1416,0.912,0.0,0.0,0.0,0.0,0.6453,0.6453,0.6453,0.6453,0.6453,0.6453,0.6453,0.6453,0.6453,0.6453,0.0,0.0,0.0,0.0,0.0,0.0,0.0,0.0,0.0,0.0,0.7241,0.7085,0.7085,0.7085,0.7085,0.0,0.0,0.0,0.0,0.0,0.0,0.7085,0.7085,0.7085,0.7085,0.7085,0.7316,0.7801,0.7925,0.8221,0.8673,0.8694,0.8436,0.7946,0.7618,0.7327,0.0,0.0,0.0,0.0,0.6923,0.0,0.0,0.0,0.0,0.0,0.7085,0.7085,0.0,0.6918,0.6864,0.6815,0.0,0.0,0.0,0.0,0.6005,0.5991,0.6019,0.6233,0.651,0.6628,0.6875,0.7011,0.7011,0.6809,0.0,0.0,0.0,0.0,0.0,0.0,0.0,0.0,0.0,0.0,0.0,0.0,0.0,0.0,0.0,0.0,0.0,0.0,0.0,0.0,0.0,0.0,0.0,1.2889,1.2836,1.2836,1.2836,1.2836,1.2836,1.2929,1.2929,1.2836,1.1237,1.0439,1.0439,0.8312,0.725,0.0,0.0,0.0,0.6453,0.6453,0.6453,0.6453,0.6453,0.6453,0.6453,0.6453,0.6453,0.6453,0.0,0.0,0.0,0.0,0.0,0.0,0.0,0.0,0.0,0.0,0.0,0.0,0.0,0.0,0.0,0.0,0.0,0.0,0.0,0.0,0.7085,0.7085,0.7085,0.7101,0.7139,0.7106,0.7316,0.7801,0.7876,0.8237,0.8929,0.877,0.8544,0.8234,0.7462,0.7117,0.7085,0.7085,0.7085,0.7085,0.7085,0.0,0.0,0.0,0.0,0.0,0.0,0.0,0.0,0.7085,0.7085,0.7085,0.6815,0.0,0.0,0.0,0.0,0.0,0.6549,0.681,0.7022,0.6992,0.7398,0.7773,0.774,0.0,0.0,0.0,0.0,0.0,0.0,0.0,0.0,0.0,0.0,0.0,0.0,0.0,0.0,0.0,0.0,0.0,0.0,0.0,0.0,0.0,0.0,0.0,0.0,1.2836,1.2836,1.2836,1.2836,1.2836,1.2836,1.2836,1.2704,1.2568,1.0575,0.951,0.9244,0.7386,0.6453,0.0,0.0,0.0,0.6453,0.6453,0.6453,0.6453,0.6453,0.6453,0.6453,0.6453,0.6453,0.6453,0.0,0.0,0.0,0.0,0.0,0.0,0.0,0.0,0.0,0.0,0.0,0.0,0.0,0.0,0.0,0.0,0.0,0.0,0.0,0.7085,0.7085,0.7085,0.7085,0.7182,0.7335,0.7192,0.7316,0.7801,0.8204,0.8565,0.8945,0.9437,0.926,0.8425,0.7656,0.7279,0.7085,0.7085,0.7085,0.7085,0.7085,0.0,0.0,0.0,0.0,0.0,0.0,0.0,0.0,0.7085,0.7085,0.7085,0.7031,0.0,0.0,0.0,0.0,0.0,0.7094,0.7683,0.7996,0.7277,0.7428,0.7735,0.7617,0.748,0.0,0.0,0.0,0.0,0.0,0.0,0.0,0.0,0.0,0.0,0.0,0.0,0.0,0.0,0.0,0.0,0.0,0.0,0.0,0.0,0.0,0.0,0.0,0.0,1.2836,1.2836,1.2836,1.2836,1.2836,1.2836,1.2301,1.1365,1.0174,0.9111,0.8176,0.6985,0.6453,0.0,0.0,0.6453,0.6453,0.6453,0.6453,0.6453,0.6453,0.6453,0.6453,0.6453,0.6453,0.6453,0.0,0.0,0.0,0.0,0.0,0.0,0.0,0.0,0.0,0.0,0.0,0.0,0.0,0.0,0.0,0.0,0.0,0.0,0.0,0.7085,0.7085,0.7085,0.7085,0.7139,0.7252,0.7273,0.7515,0.7989,0.8339,0.877,0.9249,0.919,0.8791,0.8102,0.7515,0.7192,0.7085,0.7085,0.7085,0.7085,0.0,0.0,0.0,0.0,0.0,0.0,0.0,0.0,0.0,0.0,0.7085,0.7085,0.7085,0.0,0.0,0.0,0.0,0.0,0.7146,0.7711,0.8227,0.7824,0.8327,0.8837,0.8485,0.8273,0.0,0.0,0.0,0.0,0.0,0.0,0.0,0.0,0.0,0.0,0.0,0.0,0.0,0.0,0.0,0.0,0.0,0.0,0.0,0.0,0.0,0.0,0.0,0.0,1.2836,1.2836,1.2836,1.2568,1.1901,1.1949,1.1683,1.123,0.9438,0.8387,0.7907,0.6929,0.6406,0.6453,0.0,0.6425,0.6384,0.6433,0.6425,0.6384,0.6435,0.6453,0.6453,0.6453,0.6453,0.6453,0.0,0.0,0.0,0.0,0.0,0.0,0.0,0.0,0.0,0.0,0.0,0.0,0.0,0.0,0.0,0.0,0.0,0.0,0.0,0.7192,0.7139,0.7241,0.7139,0.7133,0.7252,0.7325,0.7682,0.8207,0.8393,0.8851,0.948,0.8824,0.8323,0.7941,0.7408,0.7171,0.7165,0.7112,0.7085,0.7085,0.0,0.0,0.0,0.0,0.0,0.0,0.0,0.0,0.0,0.0,0.0,0.0,0.0,0.0,0.0,0.7085,0.7085,0.7122,0.7289,0.7833,0.831,0.8365,0.9001,0.962,0.9421,0.9164,0.0,0.0,0.0,0.0,0.0,0.0,0.0,0.0,0.0,0.0,0.0,0.0,0.0,0.0,0.0,0.0,0.0,0.0,0.0,0.0,0.0,0.0,0.0,0.0,1.2731,1.2771,1.2775,1.2223,1.1123,1.0788,1.0675,1.0386,0.868,0.7757,0.7568,0.6705,0.6323,0.639,0.639,0.6349,0.629,0.6362,0.6349,0.6292,0.6362,0.6402,0.6423,0.6423,0.6423,0.6423,0.0,0.0,0.0,0.0,0.0,0.0,0.0,0.0,0.0,0.0,0.0,0.0,0.0,0.0,0.0,0.0,0.0,0.0,0.8262,0.7568,0.7241,0.7616,0.7295,0.7295,0.7742,0.7496,0.7682,0.8207,0.8393,0.8764,0.9222,0.8737,0.8495,0.8431,0.7677,0.7367,0.7351,0.7182,0.7085,0.7085,0.7085,0.0,0.0,0.0,0.0,0.0,0.0,0.0,0.0,0.0,0.0,0.0,0.0,0.0,0.7085,0.7085,0.7085,0.723,0.7952,0.8274,0.8544,0.8759,0.8945,0.9104,0.9728,0.9793,0.0,1.0386,0.0,0.0,0.0,0.0,0.0,0.0,0.0,0.0,0.0,0.0,0.0,0.0,0.0,0.0,0.0,0.0,0.0,0.0,0.0,0.0,0.0,0.0,0.0,1.258,1.2584,1.1985,1.0806,1.0032,0.9059,0.8157,0.7912,0.7348,0.6327,0.6194,0.6194,0.62,0.62,0.6196,0.619,0.6196,0.6196,0.619,0.6196,0.6251,0.6327,0.6327,0.6327,0.6327,0.0,0.0,0.0,0.0,0.0,0.0,0.0,0.0,0.0,0.0,0.0,0.0,0.0,0.0,0.0,0.0,0.0,0.0,0.8374,0.783,0.7563,0.767,0.7295,0.7241,0.7517,0.7639,0.7828,0.8207,0.8684,0.8958,0.8985,0.8506,0.8285,0.8253,0.7542,0.7305,0.7378,0.7187,0.7085,0.7085,0.7085,0.7085,0.0,0.0,0.0,0.0,0.0,0.0,0.0,0.0,0.7085,0.7085,0.7085,0.7085,0.7085,0.7085,0.7085,0.7144,0.7413,0.7989,0.8533,0.8624,0.9087,0.0,0.0,1.0492,1.0945,1.1418,1.2011,0.0,0.0,0.0,0.0,0.0,0.0,0.0,0.0,0.0,0.0,0.0,0.0,0.0,0.0,0.0,0.0,0.0,0.0,0.0,0.0,0.0,0.0,1.2402,1.2402,1.1857,1.0767,0.9716,0.869,0.7671,0.7002,0.651,0.6178,0.6125,0.6131,0.618,0.618,0.6151,0.6104,0.6157,0.6149,0.6106,0.6159,0.6202,0.6231,0.6231,0.6231,0.6241,0.0,0.0,0.0,0.0,0.0,0.0,0.0,0.0,0.0,0.0,0.0,0.0,0.0,0.0,0.0,0.0,0.0,0.0,0.8586,0.8043,0.7777,0.7937,0.7515,0.7378,0.7494,0.7731,0.7979,0.8099,0.8597,0.8754,0.8522,0.8332,0.8207,0.8186,0.7558,0.7445,0.765,0.7332,0.7198,0.7192,0.7117,0.7085,0.0,0.0,0.0,0.0,0.0,0.0,0.0,0.0,0.7085,0.7085,0.7085,0.7085,0.7085,0.7085,0.7085,0.7101,0.7182,0.7731,0.8328,0.8479,0.0,0.0,1.0611,1.123,1.1881,1.2581,1.299,0.0,0.0,0.0,0.0,0.0,0.0,0.0,0.0,0.0,0.0,0.0,0.0,0.0,0.0,0.0,0.0,0.0,0.0,0.0,0.0,0.0,0.0,0.0,1.2219,1.1686,1.0621,0.9568,0.8525,0.749,0.6505,0.6041,0.6094,0.6037,0.6043,0.6098,0.6098,0.6063,0.6014,0.6074,0.6063,0.6016,0.6076,0.6114,0.6141,0.6141,0.6141,0.6149,0.0,0.0,0.0,0.0,0.0,0.0,0.0,0.0,0.9614,0.9614,0.9614,0.0,0.0,0.0,0.0,0.0,0.0,0.0,0.8956,0.8203,0.7937,0.8368,0.7937,0.7723,0.7723,0.797,0.8006,0.7801,0.8093,0.8088,0.7806,0.8099,0.8207,0.8196,0.7903,0.7925,0.8175,0.7645,0.7394,0.7367,0.7182,0.7085,0.7085,0.0,0.0,0.0,0.0,0.0,0.0,0.0,0.7085,0.7085,0.7085,0.7085,0.7085,0.7085,0.7085,0.7139,0.733,0.7623,0.7925,0.0,0.0,0.0,1.144,1.2081,1.2759,1.3959,0.0,0.0,0.0,0.0,0.0,0.0,0.0,0.0,0.0,0.0,0.0,0.0,0.0,0.0,0.0,0.0,0.0,0.0,0.0,0.0,0.0,0.0,0.0,0.0,1.2024,1.1444,1.0301,0.9468,0.8476,0.737,0.6401,0.5914,0.5916,0.5916,0.5916,0.5916,0.5916,0.5916,0.5916,0.5916,0.5916,0.5916,0.5916,0.5974,0.6053,0.6053,0.6053,0.6053,0.0,0.0,0.0,0.0,0.0,0.0,0.0,0.0,0.9614,0.9614,0.9361,0.0,0.0,0.0,0.0,0.0,0.0,0.0,0.9413,0.8896,0.8685,0.8798,0.8421,0.8043,0.7723,0.7475,0.7555,0.7801,0.7871,0.7865,0.7801,0.7871,0.7989,0.8191,0.7731,0.7682,0.7931,0.7672,0.7466,0.7187,0.7436,0.7354,0.7085,0.0,0.0,0.0,0.0,0.0,0.0,0.0,0.0,0.0,0.7085,0.7203,0.7305,0.7133,0.7203,0.7303,0.7373,0.7811,0.0,0.0,0.0,0.0,0.0,1.2673,0.0,0.0,0.0,0.0,0.0,0.0,0.0,0.0,0.0,0.0,0.0,0.0,0.0,0.0,0.0,0.0,0.0,0.0,0.0,0.0,0.0,0.0,0.0,0.0,0.0,0.0,1.1654,1.109,1.0087,0.9071,0.8124,0.7141,0.6197,0.5792,0.5916,0.5916,0.5916,0.5916,0.5916,0.5916,0.5916,0.5916,0.5916,0.5916,0.5916,0.5935,0.5957,0.5957,0.5957,0.5965,0.0,0.0,0.0,0.0,0.0,0.0,0.0,0.0,0.9614,0.9614,0.9413,0.9309,0.0,0.0,0.0,0.0,0.0,0.0,0.9361,0.9159,0.9008,0.9008,0.8745,0.8527,0.8203,0.7616,0.7499,0.7744,0.767,0.7612,0.7521,0.8043,0.8144,0.8061,0.799,0.7984,0.7963,0.7711,0.7444,0.7219,0.7393,0.73,0.7085,0.0,0.0,0.0,0.0,0.0,0.0,0.0,0.0,0.0,0.7085,0.7187,0.7279,0.7128,0.7257,0.7437,0.7677,0.8183,0.0,0.0,0.0,0.0,0.0,0.0,0.0,0.0,0.0,0.0,0.0,0.0,0.0,0.0,0.0,0.0,0.0,0.0,0.0,0.0,0.0,0.0,0.0,0.0,0.0,0.0,0.0,0.0,0.0,0.0,0.0,0.0,1.1386,1.0744,0.9943,0.8552,0.7627,0.7044,0.6111,0.5702,0.5808,0.5808,0.5808,0.5808,0.5808,0.5808,0.581,0.5847,0.5863,0.5867,0.5902,0.5916,0.5916,0.5916,0.5916,0.5925,0.0,0.0,0.8824,0.9124,0.0,0.0,0.0,0.0,0.9614,0.9614,0.9614,0.9614,0.0,0.0,0.0,0.0,0.0,0.0,0.9061,0.9061,0.9061,0.9061,0.9008,0.9008,0.9008,0.815,0.7723,0.7723,0.7472,0.7305,0.7101,0.8322,0.8491,0.7812,0.8569,0.8673,0.8148,0.7734,0.7475,0.7341,0.728,0.7192,0.7139,0.7139,0.0,0.0,0.0,0.0,0.0,0.0,0.0,0.0,0.7085,0.7095,0.7112,0.709,0.7257,0.7501,0.8048,0.0,0.0,0.0,0.0,0.0,0.0,0.0,0.0,0.0,0.0,0.0,0.0,0.0,0.0,0.0,0.0,0.0,0.0,0.0,0.0,0.0,0.0,0.0,0.0,0.0,0.0,0.0,0.0,0.0,0.0,0.0,0.0,0.0,1.1183,1.0364,0.9648,0.7922,0.6993,0.0,0.5942,0.5596,0.5596,0.5629,0.5643,0.5643,0.5643,0.5643,0.5649,0.5733,0.5767,0.5778,0.5859,0.5898,0.5904,0.5896,0.5902,0.5916,0.0,0.0,0.9094,0.916,0.0,0.0,0.0,0.0,0.0,0.9614,0.0,0.0,0.0,0.0,0.0,0.0,0.0,0.0,0.9458,0.9458,0.9458,0.9458,0.9159,0.9008,0.9008,0.815,0.7723,0.7723,0.735,0.7133,0.7095,0.8195,0.8374,0.786,0.8735,0.8699,0.7903,0.8423,0.8081,0.7209,0.786,0.7889,0.7563,0.7246,0.7295,0.0,0.0,0.0,0.0,0.0,0.0,0.0,0.7085,0.7219,0.7282,0.7139,0.7257,0.7538,0.0,0.8646,0.0,0.0,0.0,0.0,0.0,0.0,0.0,0.0,0.0,0.0,0.0,0.0,0.0,0.0,0.0,0.0,0.0,0.0,0.0,0.0,0.0,0.0,0.0,0.0,0.0,0.0,0.0,0.0,0.0,0.0,0.0,1.1235,1.0779,0.9637,0.7636,0.6979,0.6279,0.0,0.5331,0.5224,0.5233,0.5516,0.5643,0.5643,0.5643,0.5643,0.5645,0.5665,0.5674,0.5676,0.5696,0.5747,0.5802,0.5729,0.5794,0.5906,0.0,0.0,0.0,0.0,0.0,0.0,0.0,0.0,0.0,0.0,0.0,0.0,0.0,0.0,0.0,0.0,0.9614,0.9614,0.9614,0.9614,0.9614,0.9614,0.9413,0.9263,0.9263,0.8626,0.8315,0.8315,0.7937,0.7616,0.7413,0.8657,0.8968,0.8498,0.9026,0.8968,0.8463,0.8221,0.7937,0.7729,0.7996,0.7937,0.767,0.7456,0.7402,0.7402,0.7187,0.0,0.0,0.0,0.0,0.0,0.0,0.0,0.7252,0.7122,0.7257,0.7522,0.0,0.0,0.0,0.0,0.0,0.0,0.0,0.0,0.0,0.0,0.0,0.0,0.0,0.0,0.0,0.0,0.0,0.0,0.0,0.0,0.0,0.0,0.0,0.0,0.0,0.0,0.0,0.0,0.0,0.0,0.0,1.3712,1.2832,1.0887,1.0337,0.9064,0.6781,0.6248,0.5797,0.5108,0.5108,0.5108,0.5116,0.5347,0.5453,0.5455,0.5498,0.5494,0.5459,0.5545,0.558,0.5584,0.5627,0.5674,0.5708,0.5661,0.5347,0.5061,0.0,0.0,0.0,0.0,0.0,0.0,0.0,0.0,0.0,0.0,0.0,0.0,0.0,0.0,0.0,0.0,0.0,0.0,0.9614,0.9614,0.9614,0.9614,0.9614,0.9614,0.9614,0.9211,0.9008,0.9008,0.8692,0.8366,0.8142,0.9396,0.9764,0.9265,0.9453,0.9376,0.9099,0.7995,0.7883,0.8368,0.799,0.7883,0.7883,0.767,0.7509,0.7402,0.7246,0.7192,0.7192,0.7192,0.0,0.0,0.0,0.0,0.7085,0.7085,0.723,0.7499,0.0,0.0,0.0,0.0,0.0,0.0,0.0,0.0,0.0,0.0,0.0,0.0,0.0,0.0,0.0,0.0,0.0,0.0,0.0,0.0,0.0,0.0,0.0,0.0,0.0,0.0,0.0,0.0,0.0,0.0,1.3771,1.376,1.272,1.056,1.0024,0.8654,0.6343,0.5718,0.529,0.5061,0.5061,0.5069,0.5088,0.5163,0.5206,0.5224,0.5302,0.53,0.5255,0.5384,0.5457,0.5492,0.5551,0.5594,0.5618,0.5604,0.5033,0.4356,0.0,0.0,0.0,0.0,0.0,0.0,0.0,0.0,0.0,0.0,0.9614,0.9614,0.0,0.0,0.9614,0.9614,0.9614,0.9614,0.9614,0.0,0.0,0.9614,0.9614,0.9614,0.9614,0.9211,0.9008,0.9008,0.8956,0.9167,0.968,0.9884,0.9872,0.9672,1.0189,0.9948,0.9215,0.9241,0.8935,0.8368,0.8315,0.8527,0.8685,0.7616,0.783,0.8633,0.7883,0.7616,0.7616,0.7616,0.7402,0.0,0.0,0.0,0.7085,0.7085,0.7106,0.7284,0.0,0.0,0.0,0.0,0.0,0.0,0.0,0.0,0.0,0.0,0.0,0.0,0.0,0.0,0.0,0.0,0.0,0.0,0.0,0.0,0.0,0.0,0.0,0.0,0.0,0.0,0.0,0.0,0.0,0.0,1.3529,1.3523,1.2462,1.0244,0.9815,0.8498,0.5921,0.5615,0.5261,0.4871,0.4871,0.4912,0.499,0.5002,0.5051,0.5126,0.5139,0.5181,0.5241,0.5186,0.5255,0.5392,0.5324,0.539,0.5516,0.5443,0.5398,0.5282,0.0,0.0,0.0,0.0,0.0,0.0,0.0,0.0,0.0,0.0,0.0,0.9614,0.0,0.9614,0.9614,0.9614,0.9614,0.9614,0.9614,0.9614,0.9614,0.9614,0.9614,0.9614,0.9614,0.9413,0.9361,0.9361,0.9361,0.9688,1.0315,1.0551,1.0774,1.0961,1.0833,1.0414,0.986,0.9327,0.8991,0.8745,0.8745,0.8951,0.9207,0.8658,0.8754,0.9062,0.844,0.8208,0.8134,0.7661,0.74,0.7262,0.7128,0.0,0.0,0.0,0.7085,0.0,0.8124,0.0,0.0,0.0,0.0,0.0,0.0,0.0,0.0,0.0,0.0,0.0,0.0,0.0,0.0,0.0,0.0,0.0,0.0,0.0,0.0,0.0,0.0,0.0,0.0,0.0,0.0,0.0,0.0,1.3416,1.3276,1.327,1.2183,0.9633,0.9629,0.8282,0.5507,0.5505,0.528,0.4834,0.4834,0.4855,0.4894,0.4894,0.4945,0.5035,0.5086,0.5102,0.5092,0.5104,0.5155,0.5228,0.5241,0.5292,0.525,0.4589,0.3954,0.3432,0.0,0.0,0.0,0.0,0.0,0.0,0.0,0.0,0.0,0.0,0.0,0.0,0.0,0.0,0.0,0.0,0.9614,0.9614,0.9614,0.9614,0.9614,0.9614,0.9614,0.9614,0.9614,0.9614,0.9614,0.9614,0.9614,0.9994,1.0719,1.096,1.1465,1.208,1.1404,1.087,1.0534,0.9529,0.9207,0.9277,0.9178,0.9308,0.9632,0.9493,0.9543,0.955,0.9136,0.8844,0.8639,0.8052,0.7709,0.7448,0.7322,0.7268,0.0,0.0,0.0,0.0,0.0,0.0,0.0,0.0,0.0,0.0,0.0,0.0,0.0,0.0,0.0,0.0,0.0,0.0,0.0,0.0,0.0,0.0,0.0,0.0,0.0,0.0,0.0,0.0,0.0,0.0,0.0,0.0,0.0,1.3217,1.3028,1.2761,1.1579,0.9399,0.9162,0.7882,0.5338,0.5336,0.5236,0.4834,0.4834,0.4834,0.4834,0.4834,0.4871,0.4941,0.501,0.5014,0.4975,0.502,0.5079,0.5147,0.5192,0.5019,0.4733,0.3899,0.2798,0.1795,0.0,0.0,0.0,0.0,0.0,0.0,0.0,0.0,0.0,0.0,0.0,0.0,0.9614,0.9614,0.9614,0.9614,0.9614,0.9614,0.9614,0.9614,0.9614,0.9614,0.9614,0.0,0.9614,0.9614,0.9614,0.9614,0.9614,1.0104,1.1048,1.1063,1.1582,1.2467,1.1838,1.1377,1.1033,1.0319,1.0035,1.002,0.9652,0.9714,1.0024,0.9482,0.9826,1.0473,1.0084,0.9615,0.9136,0.9118,0.8534,0.7779,0.7763,0.7763,0.772,0.0,0.0,0.0,0.0,0.0,0.0,0.0,0.0,0.0,0.0,0.0,0.0,0.0,0.0,0.0,0.0,0.0,0.0,0.0,0.0,0.0,0.0,0.0,0.0,0.0,0.0,0.0,0.0,0.0,0.0,0.0,0.0,1.2797,1.278,1.1692,1.0605,0.96,0.8463,0.7192,0.5634,0.5135,0.4834,0.4834,0.4834,0.4834,0.4834,0.4834,0.4836,0.4843,0.4847,0.4896,0.4965,0.4883,0.5002,0.5228,0.5147,0.4564,0.3688,0.3579,0.2798,0.168,0.0,0.0,0.0,0.0,0.0,0.0,0.0,0.0,0.0,0.0,0.0,0.0,0.0,0.9614,0.9614,0.9614,0.9614,0.9614,0.9614,0.9614,0.9614,0.9614,0.9614,0.9614,0.9614,0.9614,0.9614,0.9614,0.9614,0.9899,1.0455,1.0667,1.1063,1.1604,1.1787,1.1551,1.0972,1.0791,1.0494,1.0031,1.0137,1.0429,1.0733,1.0557,1.0795,0.0,0.0,0.0,0.0,0.9706,0.9288,0.8957,0.8492,0.8322,0.8212,0.7573,0.7335,0.0,0.0,0.0,0.0,0.0,0.0,0.0,0.0,0.0,0.0,0.0,0.0,0.0,0.0,0.0,0.0,0.0,0.0,0.0,0.0,0.0,0.0,0.0,0.0,0.0,0.0,0.0,0.0,0.0,0.0,0.0,1.177,1.1279,1.0232,0.8459,0.8023,0.7019,0.5439,0.4955,0.4667,0.4667,0.4667,0.4698,0.4753,0.4753,0.4783,0.4834,0.4834,0.4853,0.4881,0.4849,0.4892,0.4886,0.4228,0.3753,0.326,0.1778,0.1008,0.0448,0.0,0.0,0.0,0.0,0.0,0.9159,0.9159,0.9159,0.9211,0.9309,0.0,0.0,0.0,0.0,0.9562,0.9614,0.9614,0.9614,0.9614,0.9614,0.9614,0.9614,0.9614,0.9614,0.9614,0.9614,0.9614,0.9614,0.9614,0.9782,1.0104,1.0324,1.0602,1.0931,1.1355,1.1301,1.0993,1.0929,1.0675,1.0207,1.0596,1.0946,1.1275,1.1597,0.0,0.0,0.0,0.0,0.0,0.0,0.994,0.9661,0.9053,0.8692,0.8354,0.7843,0.7628,0.749,0.7415,0.0,0.0,0.0,0.0,0.0,0.0,0.0,0.0,0.0,0.0,0.0,0.0,0.0,0.0,0.0,0.0,0.0,0.0,0.0,0.0,0.0,0.0,0.0,0.0,0.0,0.0,0.0,0.0,0.0,1.1172,1.0337,0.8969,0.7174,0.6948,0.6364,0.5329,0.4856,0.4573,0.4573,0.4604,0.4651,0.471,0.4738,0.4781,0.4834,0.4834,0.4834,0.4734,0.4431,0.4246,0.4179,0.3132,0.2548,0.2045,0.0551,-0.0223,-0.0673,0.0,0.0,0.9159,0.9008,0.9113,0.9159,0.9008,0.9113,0.9211,0.9211,0.0,0.0,0.0,0.0,0.0,0.9562,0.9614,0.9614,0.9614,0.9614,0.9614,0.9614,0.9614,0.9614,0.9614,0.9614,0.9614,0.9614,0.9614,0.9775,1.0082,1.0082,1.0258,1.0572,1.0565,1.0748,1.1041,1.0733,1.0609,1.0646,1.096,1.135,1.1692,0.0,0.0,0.0,1.2892,1.2258,0.0,1.093,0.0,0.0,0.0,0.8782,0.8218,0.8213,0.7989,0.7758,0.0,0.0,0.0,0.0,0.0,0.0,0.0,0.0,0.0,0.0,0.0,0.0,0.0,0.0,0.0,0.0,0.0,0.0,0.0,0.0,0.0,0.0,0.0,0.0,0.0,0.0,0.0,0.0,0.0,1.0967,1.0963,0.8721,0.6992,0.5899,0.5543,0.5315,0.5315,0.4843,0.4561,0.4561,0.4653,0.4698,0.4704,0.4785,0.4824,0.4826,0.4728,0.473,0.463,0.3626,0.3259,0.3312,0.2069,0.0952,-0.0,-0.0,-0.0774,-0.1795,0.0,0.8956,0.891,0.8857,0.891,0.891,0.8857,0.891,0.8962,0.0,0.0,0.0,0.9361,0.9465,0.9562,0.9614,0.9614,0.9614,0.9614,0.9614,0.9614,0.9614,0.9614,0.9614,0.9614,0.9614,0.9614,0.9614,0.9614,0.9658,0.9746,0.9746,0.9921,1.0228,0.9987,1.0192,1.0733,1.088,1.1077,1.1304,1.1392,1.1758,0.0,0.0,0.0,0.0,0.0,1.2677,1.2172,0.0,1.1767,1.1268,0.0,0.0,0.8377,0.8261,0.8164,0.8061,0.7768,0.0,0.0,0.0,0.0,0.0,0.0,0.0,0.0,0.0,0.0,0.0,0.0,0.0,0.0,0.0,0.0,0.0,0.0,0.0,0.0,0.0,0.0,0.0,0.0,0.0,0.0,0.0,1.1331,1.0361,0.9622,0.755,0.6136,0.5782,0.5282,0.4991,0.4991,0.455,0.4283,0.4285,0.4371,0.4447,0.4512,0.4534,0.4583,0.4649,0.3924,0.3552,0.3555,0.3306,0.3233,0.305,0.1236,0.021,-0.0215,-0.0979,-0.1547,-0.1795,0.891,0.8857,0.8804,0.8804,0.8804,0.8804,0.8804,0.8804,0.8804,0.0,0.0,0.0,0.963,0.98,0.9857,0.9826,0.9819,0.976,0.9621,0.9614,0.9614,0.9614,0.9614,0.9614,0.9614,0.9614,0.9614,0.9614,0.9614,0.9614,0.9614,0.9614,0.9716,0.9892,0.9702,0.9899,1.0404,1.0733,0.0,0.0,1.1648,0.0,0.0,1.2965,1.317,0.0,0.0,0.0,1.3272,1.2862,1.2166,0.0,0.0,0.0,0.0,0.0,0.8301,0.8248,0.8011,0.7946,0.7946,0.0,0.0,0.0,0.8253,0.8544,0.0,0.0,0.0,0.0,0.0,0.0,0.0,0.0,0.0,0.0,0.0,0.0,0.0,0.0,0.0,0.0,0.0,0.0,0.0,1.1497,1.0471,0.9163,0.7576,0.6329,0.5614,0.5497,0.4999,0.4796,0.4796,0.437,0.4134,0.4173,0.4259,0.4346,0.4436,0.4475,0.4522,0.4575,0.3562,0.3095,0.3003,0.2173,0.19,0.1714,-0.0,-0.0729,-0.0853,-0.1508,-0.175,-0.1778,0.0,0.8804,0.8804,0.8804,0.8804,0.8818,0.8851,0.8831,0.8831,0.0,0.9125,0.9498,1.0043,1.0243,1.0243,1.0177,1.0155,1.0031,0.9738,0.9724,0.9724,0.9724,0.9724,0.9724,0.9724,0.9724,0.9724,0.9724,0.9724,0.9724,0.9724,0.9724,0.9724,0.9724,0.9724,0.9899,1.0228,1.0521,0.0,1.118,1.1787,1.2423,0.0,0.0,1.4362,0.0,1.4801,1.4692,1.4223,1.3309,1.2096,0.0,0.0,0.0,0.0,0.0,0.8598,0.8468,0.831,0.8272,0.8283,0.8256,0.0,0.0,0.8431,0.8366,0.8403,0.0,0.0,0.0,0.0,0.0,0.0,0.0,0.0,0.0,0.0,0.0,0.0,0.0,0.0,0.0,0.0,1.1914,1.1522,1.0543,0.9354,0.7606,0.5276,0.5357,0.531,0.5035,0.4772,0.4684,0.4684,0.4187,0.4061,0.4144,0.4238,0.4326,0.441,0.4406,0.4446,0.4354,0.3221,0.2749,0.2563,0.0678,-0.0099,-0.0101,-0.1211,-0.1651,-0.1699,-0.1699,-0.1718,-0.1749,0.8804,0.8804,0.8804,0.8804,0.8804,0.8884,0.9064,0.8958,0.8978,0.9452,0.9674,0.9836,1.0064,1.0243,1.0329,1.0499,1.0492,1.0463,1.0404,1.0397,1.0397,1.0397,1.0397,1.0397,1.0397,1.0397,1.0397,1.0397,1.0397,1.0397,1.0397,1.0397,1.0397,1.0397,1.0397,1.058,1.0887,1.0953,0.0,1.1502,1.1882,0.0,1.306,1.3514,1.3689,1.3792,1.464,1.4399,1.3616,0.0,1.2381,1.1635,0.0,0.0,0.0,0.0,0.0,0.0,0.0,0.0,0.0,0.0,0.0,0.0,0.8576,0.8624,0.8694,0.0,0.0,0.0,0.0,0.0,0.0,0.0,0.0,0.0,0.0,0.0,0.0,0.0,0.0,0.0,0.0,1.113,1.044,1.001,0.8082,0.645,0.5149,0.4982,0.4809,0.4787,0.4533,0.4408,0.4408,0.4087,0.3934,0.3955,0.412,0.4206,0.4228,0.3506,0.3266,0.3177,0.1384,0.0651,0.0466,-0.0665,-0.0775,-0.0099,-0.1205,-0.1639,-0.167,-0.167,-0.1688,-0.1718,0.8804,0.8804,0.8804,0.8804,0.8804,0.8905,0.9143,0.9064,0.9178,0.9626,0.9982,1.0303,1.0636,1.077,1.0826,1.0843,1.0828,1.0763,1.0602,1.0587,1.0587,1.0587,1.0587,1.0587,1.0587,1.0587,1.0587,1.0587,1.0587,1.0587,1.0587,1.0587,1.0587,1.0587,1.0587,1.077,1.1077,0.0,1.126,1.1667,1.208,0.0,1.306,1.355,1.3843,1.4048,1.4531,1.4289,1.374,1.374,1.3048,0.0,0.0,1.1342,1.051,0.0,0.962,0.9231,0.0,0.0,0.0,0.8716,0.0,0.0,0.0,0.8689,0.8689,0.0,0.0,0.0,0.0,0.0,0.0,0.0,0.0,0.0,0.0,0.0,0.0,0.0,0.0,0.0,0.0,1.0329,0.9446,0.8401,0.6725,0.5499,0.4869,0.4705,0.4601,0.4387,0.4254,0.4227,0.4227,0.3989,0.3854,0.3901,0.3993,0.4085,0.4173,0.3247,0.2838,0.278,0.0816,-0.0,-0.0091,-0.1118,-0.1236,-0.0775,-0.1384,-0.1622,-0.1662,-0.1662,-0.1671,-0.1688,0.8804,0.8804,0.8804,0.8804,0.8851,0.8985,0.9223,0.9325,0.9489,0.9843,1.026,1.0725,1.1212,1.1303,1.1286,1.1275,1.1202,1.1085,1.088,1.0806,1.0777,1.0777,1.0777,1.0777,1.0777,1.0777,1.0777,1.0777,1.0777,1.0777,1.0777,1.0777,1.0777,1.0777,1.0777,1.0924,1.1225,0.0,0.0,1.1706,0.0,1.268,1.2994,1.3711,1.4106,1.4282,1.4282,1.415,1.4011,1.4216,0.0,1.2558,1.2462,1.1989,0.0,0.0,0.0,0.0,0.0,0.0,0.0,0.0,0.0,0.8786,0.0,0.0,0.0,0.0,0.0,0.0,0.0,0.0,0.0,0.0,0.0,0.0,0.0,0.0,0.0,0.0,0.0,0.0,0.0,0.9498,0.826,0.6559,0.5482,0.4794,0.4566,0.4484,0.4297,0.4081,0.4079,0.4079,0.4079,0.3843,0.3799,0.3873,0.3728,0.3727,0.3861,0.2679,0.2277,0.2226,0.0447,-0.0269,-0.0359,-0.1187,-0.149,-0.1521,-0.1557,-0.1605,-0.1654,-0.1654,-0.1654,-0.1658,0.8804,0.8804,0.8804,0.8804,0.9018,0.9292,0.9586,0.9741,0.9966,1.0446,1.0814,1.108,1.1303,1.1303,1.1466,1.184,1.167,1.1611,1.1853,1.1604,1.1512,1.1512,1.1512,1.1512,1.1512,1.1512,1.1512,1.1512,1.1512,1.1512,1.1512,1.1512,1.1512,1.1512,1.1512,0.0,0.0,0.0,1.1692,0.0,1.2372,1.2541,0.0,1.3623,1.3821,1.3601,1.3601,1.377,1.3945,0.0,1.3176,1.2666,0.0,1.2446,1.1371,0.0,0.0,0.0,0.0,0.0,0.0,0.0,0.9314,0.0,0.0,0.0,0.0,0.0,0.0,0.0,0.0,0.0,0.0,0.0,0.0,0.0,0.0,0.0,0.0,0.0,0.0,0.0,0.0,0.0,0.6851,0.5121,0.4497,0.4259,0.4265,0.3886,0.3766,0.3839,0.3841,0.3841,0.3841,0.3841,0.3769,0.3779,0.3052,0.2765,0.2702,0.1023,0.0348,0.0262,-0.08,-0.1256,-0.1256,-0.1349,-0.1458,-0.1491,-0.1549,-0.1592,-0.1622,-0.1622,-0.1622,-0.1626,0.8804,0.8804,0.8804,0.8804,0.9051,0.9339,0.9639,1.0295,1.0739,1.087,1.1262,1.1582,1.171,0.0,0.0,0.0,0.0,1.229,0.0,0.0,1.1758,1.163,1.1622,1.1622,1.1622,1.1622,1.1622,1.1622,1.1622,1.1622,1.1622,1.1622,1.1622,1.1622,1.1622,0.0,1.1637,0.0,1.1911,0.0,0.0,0.0,0.0,1.347,1.3616,1.3492,1.3492,1.3587,1.3675,0.0,1.3346,0.0,0.0,0.0,0.0,0.0,0.0,0.0,0.0,0.0,0.0,0.0,0.0,0.0,0.8974,0.0,0.8673,0.0,0.0,0.0,0.0,0.0,0.0,0.0,0.0,0.0,0.0,0.0,0.0,0.0,0.0,0.0,0.0,0.0,0.0,0.0,0.0,0.4096,0.4142,0.3773,0.3593,0.3681,0.3683,0.371,0.3763,0.3763,0.3528,0.3059,0.2692,0.2323,0.1867,0.058,-0.0,-0.0087,-0.0965,-0.1418,-0.1436,-0.1436,-0.1453,-0.1483,-0.1509,-0.1548,-0.1593,-0.161,-0.1617,-0.1619,0.8911,0.8864,0.8831,0.8911,0.9165,0.9486,0.9985,1.0718,1.1281,1.1326,1.1561,0.0,1.2087,1.2167,0.0,0.0,1.3051,1.2795,0.0,0.0,1.2028,1.1706,1.1692,0.0,1.1622,1.1622,1.1622,1.1622,1.1622,1.1622,1.1622,1.1622,1.1622,1.1622,0.0,1.1611,1.1706,0.0,0.0,1.2343,1.2819,1.306,1.317,1.3404,1.3492,1.3492,1.3492,1.3492,1.3492,1.3492,1.3419,0.0,1.3419,0.0,0.0,0.0,0.0,0.0,1.0081,0.0,0.0,0.0,0.0,0.0,0.0,0.0,0.0,0.0,0.0,0.0,0.0,0.0,0.0,0.8436,0.0,0.0,0.0,0.0,0.0,0.0,0.0,0.0,0.0,0.0,0.0,0.0,0.0,0.0,0.3958,0.3676,0.3501,0.3589,0.3614,0.3658,0.3726,0.3517,0.3136,0.2511,0.2038,0.1503,0.0965,0.0081,-0.0331,-0.0427,-0.1123,-0.1402,-0.1423,-0.1431,-0.1448,-0.1469,-0.1478,-0.1513,-0.1563,-0.1593,-0.1609,-0.1617,0.9117,0.8998,0.8898,0.9123,0.9472,0.9978,1.094,1.1052,1.1305,0.0,0.0,0.0,0.0,0.0,0.0,0.0,0.0,1.3126,1.3498,0.0,1.2358,1.1971,1.2021,1.1875,0.0,1.1622,1.1622,1.1622,1.1622,1.1622,1.1622,1.1622,1.1622,1.1622,1.1622,1.1728,1.2021,1.2028,1.2401,1.298,1.3001,1.3199,1.3477,0.0,1.3492,1.3492,1.3492,0.0,0.0,1.3492,1.3119,0.0,0.0,0.0,0.0,0.0,0.0,0.0,0.0,0.0,0.0,0.9696,0.0,0.0,0.0,0.0,0.9416,0.0,0.0,0.0,0.0,0.0,0.8766,0.8299,0.8355,0.0,0.0,0.0,0.0,0.0,0.0,0.0,0.0,0.0,0.0,0.0,0.0,0.0,0.363,0.3506,0.3409,0.3501,0.3583,0.3628,0.363,0.2868,0.2511,0.251,0.0862,0.0078,-0.0,-0.0885,-0.1222,-0.1227,-0.1365,-0.1391,-0.1394,-0.1423,-0.1436,-0.144,-0.1469,-0.15,-0.1531,-0.1562,-0.1592,-0.1617,0.9479,0.9459,0.9419,0.9519,0.0,1.0161,1.0683,1.1106,0.0,0.0,0.0,0.0,0.0,0.0,1.5049,0.0,0.0,1.5486,1.5133,1.4403,0.0,0.0,0.0,1.2306,0.0,0.0,0.0,1.2197,1.2197,1.2197,1.2197,1.2197,1.208,1.1875,1.1875,1.1933,0.0,0.0,0.0,0.0,0.0,1.3528,1.3799,0.0,0.0,1.3492,1.3492,1.3492,0.0,1.3492,1.3346,1.32,1.3419,1.3346,1.3046,1.2452,1.2133,0.0,0.0,0.0,1.0444,1.0132,0.0,0.0,0.0,0.0,0.0,0.0,0.0,0.0,0.0,0.8581,0.8581,0.8414,0.8323,0.796,0.0,0.0,0.0,0.0,0.0,0.0,0.0,0.0,0.0,0.0,0.3631,0.0,0.0,0.3307,0.3316,0.3407,0.3438,0.3289,0.2795,0.2592,0.1929,0.0862,0.0235,-0.0313,-0.0864,-0.1127,-0.1313,-0.1335,-0.1373,-0.1401,-0.1421,-0.1431,-0.1436,-0.1436,-0.1446,-0.1481,-0.153,-0.156,-0.1591,-0.162,0.978,0.984,0.984,0.0,0.0,0.0,0.0,0.0,0.0,0.0,1.4073,0.0,1.7527,0.0,1.6818,0.0,1.7571,1.6649,1.5892,1.5145,0.0,1.2731,1.2804,0.0,0.0,0.0,0.0,0.0,1.2519,1.2519,1.2519,1.2401,1.2299,1.2204,0.0,1.2102,1.2394,0.0,1.2884,0.0,0.0,1.3623,0.0,0.0,1.3565,1.3653,0.0,1.3492,1.3492,1.3492,1.3492,1.3492,1.3492,1.3492,1.3346,1.2746,1.2438,1.2144,1.1402,1.1004,0.0,1.0507,1.0234,0.0,0.9868,0.0,0.0,0.0,0.0,0.0,0.0,0.0,0.8641,0.8641,0.8436,0.7928,0.0,0.5896,0.0,0.0,0.0,0.0,0.0,0.0,0.0,0.3565,0.3551,0.0,0.0,0.0,0.3254,0.3313,0.3346,0.3061,0.2354,0.2097,0.1295,-0.0,-0.0312,-0.0785,-0.1336,-0.1277,-0.1303,-0.1333,-0.1351,-0.1382,-0.1419,-0.1419,-0.1425,-0.1436,-0.1436,-0.1472,-0.1528,-0.1548,-0.1581,-0.1623,1.008,1.0147,0.0,0.0,1.0512,0.0,0.0,0.0,1.3819,0.0,1.5486,1.6648,1.7803,1.79,1.7944,1.8238,1.7538,0.0,1.579,1.501,0.0,0.0,1.336,1.3228,1.2606,0.0,0.0,0.0,0.0,1.257,1.2562,1.2255,1.2262,1.2533,1.2219,0.0,1.3009,1.3009,1.3192,1.3492,1.3492,1.3506,1.3521,1.3506,1.3697,1.3938,1.3616,1.3492,1.3492,1.3492,1.3492,1.3492,1.3492,1.3492,1.3346,1.2753,1.2546,1.233,1.1455,1.1229,1.1077,1.0756,0.0,0.0,0.0,0.0,1.0159,0.0,0.0,0.0,0.0,0.0,0.0,0.8851,0.8591,0.7847,0.6236,0.5879,0.0,0.0,0.0,0.0,0.0,0.0,0.3516,0.3333,0.3387,0.3306,0.0,0.0,0.3226,0.3226,0.3311,0.3008,0.2237,0.1471,0.0679,-0.0076,-0.0932,-0.1335,-0.1335,-0.1337,-0.1275,-0.1303,-0.1304,-0.1337,-0.139,-0.139,-0.1408,-0.1436,-0.1437,-0.1474,-0.1528,-0.153,-0.1567,-0.1625,1.0388,1.0621,1.0835,0.0,1.086,1.0755,0.0,0.0,0.0,0.0,1.7329,1.8637,2.1021,2.0107,1.9371,1.948,1.8986,0.0,0.0,0.0,0.0,1.419,1.3945,1.3777,1.3609,1.3367,0.0,1.3243,0.0,0.0,1.3243,1.3162,1.3038,1.2877,0.0,0.0,1.3009,1.3009,1.3192,1.3492,1.3492,1.3638,0.0,0.0,1.3697,1.3938,1.3616,1.3492,1.3492,1.3492,1.3492,1.3419,1.2973,1.282,1.2673,1.2077,1.1853,1.1721,1.147,1.1368,1.121,1.0923,1.0719,1.0503,0.0,0.0,0.0,0.0,0.0,0.0,0.0,0.0,0.0,0.8635,0.7686,0.6776,0.6339,0.0,0.0,0.4083,0.0,0.0,0.0,0.0,0.3482,0.317,0.3285,0.3276,0.0,0.0,0.0,0.3226,0.325,0.2607,0.133,0.1156,0.0371,-0.0909,-0.1165,-0.1335,-0.1336,-0.1281,-0.1295,-0.1304,-0.1326,-0.1356,-0.139,-0.139,-0.1408,-0.1438,-0.146,-0.1506,-0.1562,-0.1585,-0.1704,-0.193,1.0715,0.0,0.0,1.1464,0.0,0.0,1.2356,0.0,0.0,1.6698,1.7769,0.0,2.0785,2.0704,2.0476,2.0476,1.9516,0.0,0.0,0.0,0.0,1.4565,1.4296,1.4128,1.3989,1.366,0.0,1.3492,0.0,1.336,1.3484,1.3206,1.3126,1.3206,0.0,1.2877,0.0,1.3009,1.3192,1.3492,1.3492,0.0,0.0,1.3565,1.3609,1.3748,1.3558,1.3492,1.3492,1.3492,1.3346,1.3119,1.3046,1.2599,1.2157,1.215,1.1853,1.1534,1.1535,1.1398,1.125,1.1185,1.081,1.0476,1.0449,1.0283,1.0051,0.0,0.0,0.0,0.0,0.0,0.0,0.8554,0.7587,0.0,0.0,0.0,0.0,0.0,0.0,0.0,0.0,0.0,0.3471,0.313,0.3268,0.3265,0.0,0.0,0.0,0.3226,0.289,0.2162,0.0981,0.0661,-0.0075,-0.1212,-0.1243,-0.1335,-0.1336,-0.1275,-0.129,-0.1303,-0.1321,-0.1352,-0.139,-0.139,-0.1408,-0.144,-0.1483,-0.1625,-0.1772,-0.1807,-0.193,-0.2052,1.1089,0.0,0.0,0.0,0.0,0.0,0.0,1.4652,0.0,1.6422,0.0,1.8901,1.921,2.0299,2.096,2.0822,0.0,1.8031,1.7229,1.6067,1.516,1.456,1.4494,1.4311,1.3989,1.366,0.0,0.0,0.0,1.3214,1.3484,1.2914,1.295,1.347,0.0,0.0,0.0,1.3053,1.3236,1.3492,1.3492,1.3492,1.3492,1.3492,1.3492,1.3499,1.3564,1.3564,1.3492,1.3492,1.3119,1.2753,1.32,1.2599,1.1706,1.2231,1.1955,1.1495,1.1344,1.1242,1.1174,1.1185,1.0772,1.0347,1.0546,1.0245,0.9922,0.9922,0.976,0.9615,0.0,0.0,0.0,0.8456,0.0,0.0,0.0,0.0,0.0,0.0,0.0,0.0,0.0,0.0,0.3431,0.3077,0.3257,0.0,0.0,0.0,0.0,0.3092,0.2461,0.0,0.0845,0.0,-0.054,-0.1218,-0.1245,-0.1335,-0.1335,-0.1262,-0.1275,-0.1297,-0.1305,-0.1337,-0.1384,-0.1388,-0.1412,-0.1453,-0.1506,-0.1741,-0.2074,-0.2009,-0.2149,-0.2295,0.0,0.0,0.0,0.0,0.0,1.5551,1.6598,1.741,1.8167,1.872,2.0226,2.1157,2.0876,2.0391,1.967,1.861,1.7604,0.0,0.0,0.0,0.0,1.4874,1.4611,1.4311,1.3989,1.366,1.3492,0.0,1.344,1.344,1.3492,1.3375,1.3389,1.3477,0.0,0.0,1.3023,1.3294,0.0,1.3492,1.3492,1.3492,1.3492,1.3492,1.3492,1.3564,1.3848,1.3775,1.3492,1.3492,1.32,1.2826,1.2746,1.2003,1.1186,1.1111,1.0825,1.0556,1.0488,1.0619,1.0681,1.0729,1.0525,1.0304,1.0347,1.0132,0.9922,0.9922,0.989,0.9803,0.9615,0.0,0.0,0.0,0.0,0.0,0.0,0.0,0.0,0.0,0.0,0.0,0.0,0.0,0.0,0.0,0.0,0.0,0.0,0.0,0.0,0.0,0.2235,0.0,0.0,0.0,-0.0527,-0.1249,-0.1333,-0.1335,-0.1336,-0.1283,-0.1284,-0.1268,-0.1318,-0.1346,-0.1357,-0.138,-0.1527,-0.1794,-0.1617,-0.1852,-0.2311,-0.2318,-0.2578,-0.2971,0.0,0.0,0.0,0.0,0.0,0.0,0.0,1.9145,0.0,1.9214,1.9693,1.9974,1.9697,1.9655,1.9343,1.8745,1.7432,1.6542,1.6064,1.5665,1.5357,1.5204,1.4889,0.0,1.4245,1.3916,1.3667,1.3492,1.3323,1.3331,1.3492,1.3323,1.3331,1.3477,0.0,1.3009,0.0,0.0,0.0,1.3492,1.371,1.3775,1.3848,1.3992,1.4065,1.4065,1.4281,1.4209,1.4065,1.4065,1.3695,1.3251,1.3025,1.2144,1.1186,1.0887,1.0458,1.0126,1.0261,1.0277,1.0326,1.0573,1.0369,1.0132,1.0266,1.01,0.9922,0.9922,0.9922,0.9846,0.962,0.9281,0.0,0.0,0.0,0.0,0.0,0.0,0.0,0.0,0.0,0.0,0.0,0.0,0.0,0.0,0.0,0.0,0.0,0.0,0.0,0.0,0.0,0.0,0.0,0.0,0.0,-0.1335,-0.1335,-0.1335,-0.1336,-0.1272,-0.1279,-0.1284,-0.1328,-0.1356,-0.1372,-0.1577,-0.1731,-0.1908,-0.1908,-0.2245,-0.2623,-0.2623,-0.3303,-0.4254,0.0,1.3489,0.0,0.0,1.68,0.0,1.9191,2.0165,2.0391,1.9496,1.908,1.8817,1.8507,1.9068,1.9225,1.8816,1.7504,1.6617,1.646,1.5741,1.5394,1.5328,1.5079,1.4757,1.4377,1.4114,1.3821,0.0,1.3243,1.3243,1.3492,1.3228,1.3214,0.0,0.0,0.0,0.0,0.0,1.3258,1.3564,1.392,1.4057,1.3985,1.4425,1.4569,1.4489,1.4633,1.4633,1.4569,1.4561,1.4186,1.3673,1.331,1.2432,1.1409,1.0962,1.0368,0.9965,1.0164,1.0067,1.0013,1.039,1.0202,0.997,1.0169,1.0062,0.9922,0.9922,0.9922,0.9868,0.9685,0.9262,0.0,0.0,0.0,0.0,0.0,0.0,0.0,0.0,0.0,0.0,0.0,0.0,0.0,0.0,0.0,0.0,0.0,0.0,0.0,0.0,0.0,-0.0148,-0.0367,0.0,-0.1271,0.0,-0.1339,-0.1335,-0.1336,-0.1271,-0.1286,-0.1305,-0.1348,-0.1379,-0.1401,-0.1701,-0.1846,-0.2005,-0.2204,-0.2548,-0.2927,-0.2826,-0.3817,-0.5206,0.0,0.0,0.0,0.0,0.0,0.0,0.0,2.0423,2.1016,2.0479,2.0742,2.0493,1.9307,1.9577,1.9029,1.7131,1.678,1.6378,1.559,1.5431,1.5292,1.4999,1.4962,1.4655,1.404,1.3996,1.3821,0.0,0.0,1.347,1.3492,1.3462,1.3309,0.0,0.0,0.0,0.0,1.3323,1.347,1.3564,1.392,1.3848,1.3637,1.4353,1.4425,1.4201,1.4919,1.4919,1.4561,1.4394,1.4171,1.3897,1.3382,1.2505,1.1558,1.0962,1.0368,0.9927,0.9949,0.9938,0.9933,0.9976,0.9954,0.9927,0.9949,0.9938,0.9922,0.9922,0.9922,0.9916,0.989,0.901,0.8075,0.0,0.0,0.0,0.0,0.0,0.0,0.0,0.0,0.0,0.0,0.0,0.0,0.0,0.0,0.0,0.0,0.0,0.0,0.0201,0.0,-0.0352,-0.1056,-0.1189,-0.1219,-0.1298,-0.1271,-0.1335,-0.1338,-0.1314,-0.1326,-0.1307,-0.1391,-0.1429,-0.1433,-0.1739,-0.2058,-0.2294,-0.2333,-0.2676,-0.313,-0.2927,-0.3817,-0.5309,0.0,0.0,0.0,0.0,0.0,0.0,0.0,2.0895,2.0762,2.0586,2.0723,2.0683,2.0108,1.9757,1.8977,1.7602,1.7025,1.6304,1.5431,1.5431,1.5284,1.4874,1.486,1.464,1.3996,1.3982,1.3821,0.0,0.0,1.3492,1.3492,1.3492,0.0,0.0,0.0,1.3772,1.366,1.4011,1.4137,1.4137,1.4353,1.4281,1.4209,1.4776,1.4848,1.4768,1.4681,1.4537,1.4322,1.3665,1.3593,1.36,1.2505,1.1848,1.1335,1.0519,1.0067,0.9922,0.9922,0.9922,0.9922,0.9922,0.9922,0.9922,0.9922,0.9922,0.9922,0.9922,0.9922,0.9723,0.9129,0.867,0.7892,0.0,0.0,0.0,0.0,0.0,0.0,0.0,0.0,0.0,0.0,0.0,0.0,0.0,0.0,0.0,0.0,0.0,0.0,-0.0,0.0,-0.086,-0.1184,-0.1209,-0.1239,-0.1275,-0.1263,-0.1266,-0.1285,-0.1309,-0.1333,-0.1358,-0.1412,-0.1446,-0.1462,-0.1912,-0.2146,-0.2424,-0.2703,-0.3338,-0.4133,-0.4031,-0.5353,-0.7311,1.6472,0.0,1.9245,0.0,2.0276,2.0358,2.1354,2.0967,2.0566,2.0566,2.0566,2.0489,2.0245,1.9799,1.8932,1.7764,1.7025,1.6304,1.5431,1.5431,1.5284,1.4874,1.486,0.0,1.3996,1.3982,1.3821,1.3492,1.3492,0.0,1.3492,0.0,0.0,0.0,1.4065,1.4274,1.4274,1.4497,1.4569,1.4641,1.4713,1.4713,1.4641,1.5213,1.5275,1.5125,1.4752,1.4386,1.3947,1.3004,1.2792,1.2645,1.17,1.1409,1.1186,1.0218,0.9922,0.9922,0.9922,0.9922,0.9922,0.9922,0.9922,0.9922,0.9922,0.9922,0.9922,0.9922,0.969,0.9316,0.8646,0.8116,0.7313,0.5894,0.0,0.0,0.0,0.0,0.0,0.0,0.3952,0.367,0.319,0.0,0.0,0.0,0.0,0.0,0.0,0.0,0.0,0.0,0.0,0.0,0.0,-0.1217,-0.1253,-0.1271,-0.1262,-0.1278,-0.1316,-0.1324,-0.1356,-0.1405,-0.1426,-0.1447,-0.1467,-0.2013,-0.225,-0.2431,-0.2911,-0.3841,-0.4834,-0.4834,-0.6376,-0.8573,2.2188,2.0439,1.9039,2.1472,2.2559,2.2529,2.084,2.0576,2.0566,2.0566,2.0566,2.0245,1.9381,1.965,1.9064,1.6894,1.6698,1.6304,1.5431,1.5431,1.5284,0.0,0.0,1.464,1.3996,1.3982,1.3821,1.3492,0.0,0.0,1.3499,0.0,1.4057,1.4129,1.4418,1.4569,1.4569,1.4569,1.4569,1.4641,1.5062,1.4919,1.4713,1.5513,1.5576,1.5204,1.5196,1.4545,1.3528,1.2638,1.1613,1.0887,1.126,1.1409,1.1186,1.0218,0.9922,0.9922,0.9922,0.9922,0.9922,0.9922,0.9922,0.9922,0.9922,0.9922,0.9922,0.9922,0.9236,0.8637,0.8498,0.7062,0.5898,0.5738,0.0,0.0,0.0,0.0,0.0,0.0,0.4025,0.3584,0.2577,0.0,0.0,0.0,0.0,0.0,0.0,0.0,0.0,-0.1076,-0.1106,0.0,-0.1166,-0.1197,-0.1243,-0.1301,-0.1271,-0.1289,-0.1264,-0.1376,-0.1406,-0.1435,-0.1436,-0.1436,-0.144,-0.2063,-0.229,-0.2396,-0.2984,-0.3831,-0.4834,-0.4834,-0.6376,-0.8573,2.2698,2.2256,2.1427,2.1063,2.1211,2.1406,2.1455,2.145,2.1253,2.0936,2.0964,2.0886,2.0654,2.0213,1.943,0.0,1.7521,1.6796,0.0,1.559,1.5284,1.4874,1.4959,1.4787,1.4343,1.4413,1.4398,1.4281,0.0,0.0,0.0,1.4353,1.4418,1.4497,1.4848,1.4991,1.5062,1.5292,1.5443,1.5434,1.5275,1.5133,1.5062,1.5284,1.5275,1.5133,1.4402,1.3745,1.2938,1.1694,1.0812,1.0218,1.0368,1.0368,1.0293,0.9992,0.9922,0.9922,0.9922,0.9922,0.9922,0.9922,0.9922,0.9922,0.9922,0.9922,0.9765,0.916,0.8856,0.8294,0.6937,0.6266,0.5651,0.486,0.4526,0.0,0.0,0.0,0.0,0.0,0.0,0.2943,0.0,0.1259,0.0,0.0,0.0,0.0,0.0,0.0,0.0,0.0,-0.1136,0.0,-0.1304,-0.1258,-0.1284,-0.1303,-0.1313,-0.1339,-0.1378,-0.1408,-0.1426,-0.1436,-0.1457,-0.157,-0.178,-0.2183,-0.2905,-0.376,-0.4055,-0.537,-0.7039,-0.7131,-0.82,-0.9754,2.3037,2.3135,2.2803,2.1719,2.1533,2.1719,2.2275,2.2281,2.2036,2.1413,2.1272,2.1272,2.1205,2.0333,0.0,1.8895,1.7764,1.6804,1.617,1.5846,1.5442,1.4955,1.514,1.5034,1.4486,0.0,0.0,1.4569,1.4497,1.4425,1.4425,1.4425,1.4425,1.4425,1.4776,1.4991,1.4991,1.5213,1.5363,1.5292,1.507,1.4991,1.4991,1.5133,1.4982,1.4545,1.3962,1.3091,1.2211,1.118,1.0363,0.9922,0.9922,0.9922,0.9922,0.9922,0.9922,0.9922,0.9922,0.9922,0.9922,0.9922,0.9922,0.9922,0.9922,0.969,0.9311,0.8775,0.8179,0.736,0.6136,0.5613,0.5151,0.44,0.43,0.43,0.43,0.0,0.0,0.0,0.0,0.0,0.0,0.0604,0.0,0.0,0.0,0.0,0.0,0.0,0.0,-0.112,-0.1151,0.0,-0.124,-0.1271,-0.1297,-0.132,-0.1361,-0.1557,-0.1912,-0.1954,-0.1973,-0.1974,-0.2017,-0.2236,-0.2547,-0.2776,-0.3707,-0.4973,-0.5246,-0.6459,-0.8041,-0.8197,-0.9072,-1.0188,2.3115,2.3135,0.0,0.0,2.3135,0.0,2.2978,2.3153,2.2859,2.1891,2.1599,2.1456,2.1292,2.0323,1.952,1.9036,0.0,0.0,0.0,1.617,1.5786,1.5072,1.5431,1.5357,1.4637,1.5122,1.5096,1.4745,1.4385,1.4225,1.4201,1.4201,1.4201,1.4201,1.4489,1.4641,1.4569,1.4569,1.4569,1.4569,1.4569,1.4569,1.4561,1.4982,1.4474,1.3673,1.36,1.2652,1.1335,1.0962,1.0363,0.9922,0.9922,0.9922,0.9922,0.9922,0.9922,0.9922,0.9938,0.9933,0.9922,0.9943,0.9933,0.9916,0.9846,0.9236,0.8703,0.8546,0.7262,0.6064,0.5847,0.513,0.4447,0.433,0.4306,0.43,0.43,0.0,0.0,0.0,0.0,0.0,0.0,0.0067,-0.0336,0.0,0.0,0.0,0.0,0.0,-0.1093,-0.1123,-0.1154,-0.1185,-0.1217,-0.1249,-0.1375,-0.1439,-0.1495,-0.1949,-0.287,-0.2929,-0.2956,-0.296,-0.3022,-0.3232,-0.361,-0.3947,-0.4886,-0.6166,-0.6377,-0.712,-0.8141,-0.8299,-0.9175,-1.0188,0.0,0.0,2.3135,2.3135,2.3135,2.2867,2.218,2.3298,2.3627,2.2045,2.2144,2.2169,2.1706,2.0876,2.0089,1.9292,1.8031,1.7229,1.7066,1.6738,1.6453,1.6285,1.6429,1.6434,1.6264,1.6387,1.6287,1.5909,1.5844,1.571,1.5371,1.5371,1.5213,1.4919,1.4991,1.4919,1.4569,1.4569,1.4569,1.4569,1.4569,1.4338,1.389,1.4042,1.3665,1.3084,1.2712,1.2131,1.1335,1.0962,1.0363,0.9922,0.9922,0.9922,0.9922,0.9922,0.9922,0.9965,1.0153,1.0067,0.9965,1.0159,1.0062,0.9765,0.9155,0.8856,0.8318,0.7088,0.644,0.5917,0.5184,0.4837,0.464,0.445,0.4357,0.4233,0.4097,0.362,0.0,0.0,0.1477,0.0604,0.0134,-0.047,-0.0941,0.0,0.0,0.0,0.0,-0.1097,-0.1124,-0.1155,-0.1185,-0.1227,-0.1281,-0.1311,-0.1695,-0.2561,-0.2456,-0.2987,-0.3905,-0.3924,-0.3667,-0.3141,-0.393,-0.4148,-0.3981,-0.5001,-0.6152,-0.7434,-0.7569,-0.8322,-0.9248,-0.9415,-0.9796,-1.0188,2.1934,2.2598,2.3135,2.3135,2.3493,2.3604,2.3124,2.3194,2.3236,2.307,2.335,2.3111,2.1932,2.1108,2.0245,1.9381,1.8273,1.7635,1.7392,1.7147,1.6894,1.6738,1.6952,1.7004,1.683,1.7037,1.6893,1.6345,1.602,1.5762,1.5505,1.515,1.4927,1.4697,1.4489,1.4281,1.4065,1.4065,1.392,1.3695,1.3695,1.3324,1.2799,1.3011,1.2572,1.1916,1.1916,1.1397,1.0663,1.0438,1.0143,0.9922,0.9922,0.9997,1.0089,1.0089,1.0008,0.9997,1.0353,1.0191,0.9878,0.9622,0.9484,0.9155,0.8313,0.7851,0.7318,0.6395,0.5883,0.5439,0.4922,0.4689,0.4618,0.4482,0.4306,0.4028,0.3623,0.3084,0.0,0.1502,0.0685,-0.0,-0.0488,-0.0908,-0.1117,-0.1117,0.0,0.0,-0.1117,-0.1146,-0.1164,-0.1166,-0.1209,-0.1255,-0.1302,-0.1765,-0.2246,-0.2826,-0.3258,-0.398,-0.4914,-0.4914,-0.4825,-0.4567,-0.5163,-0.5508,-0.5526,-0.6324,-0.741,-0.8608,-0.8693,-0.9172,-0.9766,-0.9945,-1.0128,-1.031,2.1066,2.2119,2.3309,2.3309,2.3927,2.4447,2.4167,2.3039,2.278,2.4333,2.4245,2.3432,2.1994,2.0876,1.9932,1.9143,1.8434,1.7878,1.7473,1.7473,1.731,1.6894,1.731,1.7299,1.6917,1.7259,1.7072,1.6512,1.5757,1.5325,1.5204,1.4561,1.4201,1.4057,1.3702,1.3492,1.3346,1.3346,1.3046,1.2452,1.2452,1.2077,1.1632,1.1909,1.1465,1.0738,1.1037,1.0588,0.9927,0.9965,0.9976,0.9981,1.0019,1.0175,1.0353,1.039,1.0223,1.0121,1.0568,1.0311,0.9684,0.8957,0.8639,0.8326,0.7545,0.6769,0.6224,0.6048,0.5413,0.4882,0.4866,0.4662,0.4504,0.452,0.4122,0.3627,0.31,0.0,0.1567,0.0349,-0.007,-0.0427,-0.1164,-0.1166,-0.1166,-0.1166,-0.1166,-0.1168,0.0,-0.1198,-0.1204,-0.1187,-0.1237,-0.1361,-0.1561,-0.2556,-0.3126,-0.3311,-0.4164,-0.5003,-0.5988,-0.5988,-0.6083,-0.629,-0.6608,-0.6998,-0.7409,-0.7771,-0.8583,-0.9592,-0.9616,-0.9734,-0.9904,-1.0063,-1.0253,-1.0456,2.1771,2.3033,2.4272,2.4272,2.4368,2.4022,2.2459,2.3308,2.4219,2.4413,2.2914,2.1814,2.1768,1.9766,1.8353,1.8193,1.8121,1.7951,1.7878,1.7878,1.7878,1.7789,1.7878,1.778,1.7397,1.7167,1.6944,1.6833,1.6365,1.5791,1.5204,1.5054,1.4705,1.4129,1.4057,1.355,1.2746,1.2746,1.2378,1.1855,1.1855,1.1484,1.0962,1.1037,1.0588,1.0067,1.0143,0.9992,0.9954,1.0164,1.0239,1.0272,1.0466,1.0552,1.0622,1.0821,1.0708,1.0584,1.0859,1.0284,0.9601,0.9185,0.8491,0.7756,0.6937,0.661,0.6332,0.5497,0.5223,0.5102,0.5007,0.479,0.4659,0.4762,0.3869,0.3107,0.2971,0.0,0.0418,0.007,-0.0572,-0.1088,-0.1166,-0.1166,-0.1166,-0.1166,-0.1166,-0.1178,-0.1203,-0.1209,-0.1233,-0.128,-0.1291,-0.1734,-0.2577,-0.3538,-0.4539,-0.5596,-0.5528,-0.6251,-0.7588,-0.7326,-0.7125,-0.6966,-0.7836,-0.7933,-0.7691,-0.873,-0.92,-0.9413,-0.9567,-0.9734,-0.9888,-0.9916,-1.0144,-1.044,2.3361,2.396,2.4229,2.3246,2.307,2.3111,2.3256,2.4002,2.454,2.454,2.3649,2.2188,1.9986,1.8665,1.804,1.804,1.804,1.804,1.804,1.804,1.804,1.804,1.804,1.7954,1.7775,1.7406,1.7209,1.7209,1.6627,1.6032,1.5501,1.508,1.4633,1.4057,1.3848,1.3331,1.2599,1.2599,1.2077,1.1186,1.1186,1.0887,1.0293,1.0293,1.0143,0.9922,0.9922,0.9922,0.996,1.0213,1.0293,1.0336,1.0562,1.0387,1.0088,1.0188,1.0233,1.0223,1.0083,0.9456,0.8645,0.7958,0.7506,0.6929,0.6108,0.5942,0.5844,0.5377,0.5284,0.5249,0.5129,0.4836,0.4489,0.3989,0.3212,0.0,0.0,0.0641,-0.0071,-0.0668,-0.1056,-0.1228,-0.1261,-0.1249,-0.1247,-0.1263,-0.1249,-0.1253,-0.1284,-0.1285,-0.1305,-0.1348,-0.1854,-0.231,-0.2824,-0.4316,-0.5396,-0.6068,-0.6337,-0.6962,-0.7856,-0.7591,-0.7588,-0.7916,-0.8371,-0.8598,-0.8672,-0.9231,-0.9502,-0.951,-0.9596,-0.9795,-1.0034,-1.0034,-1.0262,-1.0574,2.4457,2.4198,2.3598,2.2615,2.2087,2.2283,2.3691,2.3654,2.3421,2.3013,2.2964,2.2094,1.9789,1.8644,1.804,1.804,1.804,1.804,1.804,1.804,1.804,1.804,1.7954,1.7946,1.804,1.7578,1.7338,1.7252,1.6595,1.5936,1.5414,1.4768,1.4201,1.3768,1.3411,1.29,1.215,1.215,1.1558,1.0588,1.0588,1.0293,0.9922,0.9922,0.9922,0.9922,0.9922,0.996,1.0046,1.0288,1.0406,1.0498,1.0729,1.0247,0.9696,0.9696,0.947,0.9178,0.9047,0.848,0.7785,0.6898,0.6538,0.6201,0.5622,0.5453,0.5447,0.5417,0.5409,0.529,0.517,0.4663,0.4017,0.3308,0.0,0.0,0.0,-0.0148,-0.052,-0.1259,-0.1274,-0.1296,-0.126,-0.1326,-0.1323,-0.1262,-0.1326,-0.1326,-0.1356,-0.1267,-0.1361,-0.1388,-0.2528,-0.3171,-0.3223,-0.5095,-0.6163,-0.6514,-0.6962,-0.7499,-0.8032,-0.7768,-0.8053,-0.8623,-0.8749,-0.9021,-0.9429,-0.9567,-0.9628,-0.9632,-0.9673,-0.9884,-1.0164,-1.0209,-1.0424,-1.0692,2.4209,2.3174,2.2501,2.4064,2.2936,2.1849,2.1983,2.125,2.0131,1.8711,1.8438,1.9916,2.3649,2.0439,1.804,1.804,1.804,1.804,1.804,1.804,1.804,1.804,1.7697,1.768,1.8031,1.7329,1.6792,1.6395,1.6022,1.5292,1.424,1.4145,1.3622,1.2673,1.2673,1.2003,1.0962,1.0962,1.0588,0.9997,0.9997,0.9922,0.9922,0.9922,0.9922,0.9922,0.9922,1.0067,1.0304,1.0536,1.0756,1.0972,1.1219,1.0611,0.9923,0.9923,0.8619,0.7485,0.8337,0.7899,0.7119,0.7109,0.6407,0.5794,0.5708,0.5706,0.5676,0.5561,0.5362,0.5155,0.5048,0.394,0.3149,0.3236,0.0,0.0,0.0312,-0.0557,-0.1211,-0.1299,-0.1324,-0.1259,-0.1263,-0.1261,-0.1261,-0.1263,-0.1261,-0.1357,-0.1385,-0.1362,-0.1361,-0.1388,-0.318,-0.4192,-0.4198,-0.6071,-0.7231,-0.7764,-0.7591,-0.786,-0.8568,-0.8292,-0.8473,-0.9076,-0.9088,-0.9291,-0.9608,-0.962,-0.9628,-0.9644,-0.9803,-0.9985,-1.0184,-1.0355,-1.0534,-1.0692,2.432,2.3981,2.337,2.2925,2.2263,2.1252,1.9687,1.9088,1.8691,1.8108,1.804,1.8652,2.031,1.902,1.804,1.804,1.804,1.804,1.804,1.804,1.804,1.804,1.7903,1.7886,1.8031,1.7757,1.7414,1.7012,1.6016,1.5127,1.4192,1.3396,1.2652,1.2003,1.2003,1.1558,1.0812,1.0812,1.0443,0.9922,0.9922,0.9922,0.9938,1.0094,1.0153,1.0169,1.0315,1.0423,1.0541,1.0772,1.0569,1.0174,1.0398,0.9419,0.8036,0.7603,0.6853,0.6367,0.6802,0.6585,0.6263,0.6263,0.5997,0.5733,0.5733,0.5644,0.5539,0.5406,0.4775,0.4128,0.404,0.2941,0.1913,0.1435,0.0,-0.0239,-0.0665,-0.1071,-0.1316,-0.1352,-0.1367,-0.1382,-0.14,-0.1385,-0.1382,-0.1401,-0.1384,-0.1386,-0.1416,-0.1408,-0.1671,-0.2302,-0.3652,-0.4289,-0.4289,-0.634,-0.7503,-0.7856,-0.7871,-0.8188,-0.8727,-0.856,-0.8834,-0.9254,-0.9254,-0.9397,-0.9628,-0.9628,-0.9628,-0.9644,-0.9819,-0.9998,-1.0184,-1.0367,-1.0546,-1.0692,2.3681,2.3681,2.3287,2.2025,2.1807,2.0944,1.8425,1.804,1.804,1.804,1.804,1.804,1.804,1.804,1.804,1.804,1.804,1.804,1.804,1.804,1.804,1.804,1.804,1.804,1.804,1.804,1.7544,1.6657,1.5794,1.4667,1.3472,1.2614,1.1926,1.1409,1.1409,1.1111,1.0519,1.0604,1.0416,1.0046,1.0116,1.0148,1.0164,1.0336,1.0401,1.0343,1.0251,1.0187,1.0269,1.0168,0.9752,0.9321,0.9378,0.8404,0.6969,0.6199,0.5907,0.586,0.5939,0.5904,0.5825,0.5752,0.5733,0.5644,0.5644,0.528,0.4921,0.4832,0.3868,0.2969,0.2925,0.1844,0.0788,0.0263,-0.0255,-0.0755,-0.1297,-0.1364,-0.1359,-0.1399,-0.1404,-0.1412,-0.1433,-0.1416,-0.1413,-0.1433,-0.1416,-0.1413,-0.1434,-0.1436,-0.1883,-0.2867,-0.3846,-0.4556,-0.4823,-0.6609,-0.768,-0.8032,-0.8114,-0.8465,-0.8828,-0.8818,-0.8997,-0.9356,-0.9356,-0.9458,-0.9628,-0.9628,-0.9628,-0.9644,-0.9819,-0.9998,-1.0184,-1.0367,-1.0546,-1.0692,2.1828,2.1828,2.1818,2.1807,2.1807,2.0944,1.8353,1.804,1.804,1.804,1.804,1.804,1.804,1.804,1.804,1.804,1.804,1.804,1.804,1.7951,1.7951,1.7951,1.7951,1.7951,1.7951,1.7959,1.6941,1.4894,1.5125,1.4002,1.1719,1.1993,1.1593,1.0818,1.0818,1.0443,0.9943,1.0191,1.0299,1.0315,1.0546,1.0638,1.0638,1.0557,1.0557,1.0476,0.9572,0.9367,0.9456,0.8522,0.8303,0.8456,0.8456,0.7949,0.7109,0.633,0.6086,0.6086,0.6086,0.6086,0.6029,0.5795,0.5735,0.5646,0.5463,0.465,0.3842,0.3667,0.2548,0.1662,0.1662,0.0658,-0.0094,-0.0,-0.0822,-0.1459,-0.1399,-0.1416,-0.1436,-0.1436,-0.1436,-0.1436,-0.1436,-0.1436,-0.1436,-0.1436,-0.1436,-0.1436,-0.1436,-0.1436,-0.1883,-0.2867,-0.4026,-0.5092,-0.6068,-0.7054,-0.7768,-0.8204,-0.838,-0.8647,-0.8832,-0.9015,-0.9198,-0.9356,-0.9356,-0.9458,-0.9628,-0.9628,-0.9628,-0.9644,-0.9819,-0.9998,-1.0184,-1.0371,-1.0546,-1.0692,2.3474,2.21,2.0377,1.9334,1.9134,1.8904,1.8121,1.804,1.804,1.804,1.804,1.804,1.804,1.804,1.804,1.804,1.804,1.804,1.804,1.7465,1.7049,1.6862,1.7033,1.7115,1.7115,1.6288,1.5494,1.4591,1.379,1.2952,1.1961,1.1175,1.0802,1.0649,1.0484,1.0428,1.0428,1.0503,1.0536,1.0541,1.0606,1.0638,1.0573,1.0063,0.9868,0.9805,0.902,0.8763,0.8806,0.8545,0.7975,0.7422,0.6809,0.6572,0.6429,0.6274,0.6154,0.6105,0.6192,0.5475,0.4926,0.581,0.5229,0.4555,0.4491,0.338,0.2377,0.2286,0.1288,0.0464,0.0471,-0.038,-0.1045,-0.1032,-0.1318,-0.1499,-0.1459,-0.1461,-0.1459,-0.1438,-0.1436,-0.1436,-0.1436,-0.1436,-0.1436,-0.1436,-0.1436,-0.1436,-0.1436,-0.2062,-0.2865,-0.3844,-0.5001,-0.616,-0.7316,-0.776,-0.8178,-0.8387,-0.8746,-0.8987,-0.9202,-0.9384,-0.9498,-0.9547,-0.9547,-0.9575,-0.9628,-0.9628,-0.9628,-0.9657,-0.9961,-1.0111,-1.0197,-1.0501,-1.0647,-1.0692,2.3381,2.1259,1.911,1.8194,1.804,1.804,1.804,1.8545,1.893,1.893,1.8408,1.804,1.804,1.804,1.804,1.804,1.804,1.804,1.804,1.6714,1.5884,1.5779,1.553,1.553,1.5869,1.5199,1.4552,1.3757,1.3137,1.234,1.1496,1.09,1.0595,1.0627,1.0492,1.0503,1.0643,1.0735,1.0521,1.0197,1.0289,1.0075,0.975,0.9361,0.915,0.9077,0.8241,0.7929,0.7929,0.7489,0.7088,0.6535,0.6121,0.6059,0.6184,0.6309,0.5897,0.5366,0.533,0.4417,0.3597,0.4473,0.4012,0.3281,0.3176,0.2134,0.111,0.1027,0.0094,-0.0666,-0.0674,-0.1165,-0.1558,-0.1546,-0.1544,-0.1534,-0.1503,-0.1498,-0.1492,-0.1473,-0.146,-0.1453,-0.1453,-0.1442,-0.144,-0.1453,-0.1464,-0.1471,-0.1471,-0.2371,-0.3353,-0.443,-0.5689,-0.6952,-0.8131,-0.8372,-0.8607,-0.8647,-0.8987,-0.9254,-0.936,-0.9543,-0.9628,-0.9628,-0.9628,-0.9628,-0.9628,-0.9628,-0.9628,-0.9657,-0.9941,-1.0099,-1.0197,-1.0485,-1.0635,-1.0692,2.1818,1.9608,1.804,1.804,1.804,1.804,1.804,1.9204,2.0086,2.0086,1.8888,1.8083,1.822,1.8237,1.8186,1.8049,1.816,1.8014,1.7465,1.5538,1.4531,1.4692,1.3782,1.3613,1.4364,1.4455,1.3824,1.2579,1.2734,1.2105,1.0702,1.0891,1.088,1.0697,1.0594,1.0513,1.055,1.0674,1.0248,0.9498,0.9693,0.9244,0.8456,0.8368,0.8368,0.8281,0.7316,0.6966,0.6877,0.5997,0.5817,0.5937,0.6051,0.6179,0.6309,0.6226,0.524,0.4126,0.3728,0.292,0.2215,0.2215,0.2029,0.177,0.1615,0.0847,0.0093,-0.019,-0.097,-0.1572,-0.1575,-0.1598,-0.1608,-0.158,-0.1576,-0.1565,-0.1534,-0.153,-0.1529,-0.1526,-0.1502,-0.1485,-0.1485,-0.1459,-0.1455,-0.1483,-0.1508,-0.1523,-0.1621,-0.2519,-0.3595,-0.4798,-0.6167,-0.7363,-0.8489,-0.8938,-0.9035,-0.8873,-0.9198,-0.9364,-0.9384,-0.9551,-0.9628,-0.9628,-0.9628,-0.9628,-0.9628,-0.9628,-0.9628,-0.9648,-0.9835,-1.0014,-1.0184,-1.0383,-1.0558,-1.0692,1.8887,1.8353,1.804,1.804,1.804,1.804,1.804,1.8314,1.8528,1.8528,1.8245,1.8485,1.9675,1.9804,1.9324,1.8143,1.9119,1.7962,1.3606,1.2528,1.2437,1.3347,1.2857,1.2448,1.2026,1.2198,1.2174,1.1952,1.1746,1.1461,1.1107,1.1052,1.1058,1.1102,1.0228,0.9906,0.9986,0.9338,0.8918,0.8748,0.879,0.8719,0.8456,0.7665,0.7401,0.7316,0.6349,0.5997,0.5997,0.5733,0.5874,0.6051,0.6078,0.6241,0.6224,0.5133,0.3623,0.2314,0.2618,0.1813,0.0806,0.0806,-0.0,-0.0582,0.0486,-0.0291,-0.1165,-0.1268,-0.1469,-0.1579,-0.1603,-0.1612,-0.1615,-0.1608,-0.1607,-0.1596,-0.1566,-0.1562,-0.1553,-0.1529,-0.152,-0.1516,-0.1516,-0.151,-0.1509,-0.1515,-0.15,-0.1874,-0.2661,-0.3675,-0.4838,-0.6114,-0.7417,-0.8246,-0.8652,-0.9111,-0.9279,-0.9238,-0.9319,-0.9429,-0.9567,-0.9608,-0.9628,-0.9628,-0.9628,-0.9628,-0.9628,-0.9628,-0.9628,-0.9661,-0.9977,-1.0128,-1.0201,-1.0521,-1.066,-1.0692,1.911,1.911,1.911,1.911,1.8519,1.804,1.804,1.804,1.804,1.804,1.804,1.834,1.9127,1.9222,1.8022,1.509,1.5547,1.4777,1.1899,1.1435,1.1602,1.218,1.202,1.1688,1.1354,1.144,1.1527,1.1527,1.1348,1.1262,1.1262,1.1219,1.1225,1.1257,1.0172,0.9838,0.9859,0.8894,0.8281,0.7841,0.7841,0.7577,0.7139,0.6612,0.6438,0.6349,0.5908,0.5733,0.5741,0.5795,0.5937,0.6102,0.6159,0.6312,0.5962,0.4033,0.2417,0.1209,0.0605,-0.0,-0.0504,-0.0504,-0.1102,-0.1393,-0.0696,-0.1087,-0.1576,-0.159,-0.1593,-0.1598,-0.1614,-0.1617,-0.1617,-0.1617,-0.1617,-0.1611,-0.1595,-0.1593,-0.1587,-0.1571,-0.1556,-0.1542,-0.1528,-0.1539,-0.1548,-0.1548,-0.1547,-0.1843,-0.2545,-0.3989,-0.5275,-0.6149,-0.7897,-0.8843,-0.9021,-0.9296,-0.9486,-0.9486,-0.9486,-0.9535,-0.9628,-0.9628,-0.9628,-0.9628,-0.9628,-0.9628,-0.9628,-0.9628,-0.9628,-0.9657,-0.9925,-1.0083,-1.0197,-1.0469,-1.0623,-1.0692,1.9502,1.946,1.946,1.946,1.8439,1.7554,1.7554,1.7554,1.7554,1.7554,1.7554,1.7554,1.7554,1.7123,1.5365,1.1602,1.1262,1.1262,1.1262,1.1262,1.1262,1.1262,1.1262,1.1262,1.1262,1.1262,1.1262,1.1262,1.1262,1.1176,1.1089,1.1089,1.0997,1.0824,0.9859,0.9419,0.9331,0.8456,0.7577,0.6877,0.6877,0.6438,0.5733,0.5733,0.5733,0.5733,0.5733,0.5657,0.5689,0.5504,0.5533,0.5568,0.556,0.557,0.5153,0.2724,0.1412,0.0303,-0.1212,-0.1617,-0.1617,-0.1617,-0.1617,-0.1617,-0.1617,-0.1597,-0.1586,-0.1611,-0.1617,-0.1617,-0.1617,-0.1617,-0.1617,-0.1617,-0.1617,-0.1617,-0.1617,-0.1617,-0.1617,-0.1617,-0.1594,-0.1569,-0.1544,-0.1564,-0.1579,-0.1678,-0.1698,-0.1913,-0.2323,-0.4139,-0.5458,-0.6081,-0.8011,-0.918,-0.9401,-0.9551,-0.9628,-0.9628,-0.9628,-0.9628,-0.9628,-0.9628,-0.9628,-0.9628,-0.9628,-0.9628,-0.9628,-0.9628,-0.9628,-0.9644,-0.9819,-0.9998,-1.0188,-1.04,-1.057,-1.0692,1.6242,1.6017,1.6017,1.6017,1.5875,1.5756,1.5756,1.5756,1.5756,1.5756,1.5756,1.5756,1.5756,1.3633,1.1935,1.1348,1.1262,1.1262,1.1262,1.1262,1.1262,1.1262,1.1262,1.1262,1.1262,1.1262,1.1262,1.1262,1.1262,1.0911,1.012,1.012,0.968,0.8807,0.7929,0.7492,0.7404,0.6438,0.5997,0.5911,0.5911,0.5822,0.5733,0.5733,0.5733,0.5733,0.5733,0.5711,0.5522,0.4148,0.369,0.3709,0.2933,0.2481,0.2017,0.1008,-0.0202,-0.1313,-0.1516,-0.1617,-0.1617,-0.1617,-0.1617,-0.1617,-0.1617,-0.1613,-0.1612,-0.1616,-0.1617,-0.1617,-0.1617,-0.1617,-0.1617,-0.1617,-0.1617,-0.1617,-0.1617,-0.1617,-0.1617,-0.1617,-0.1613,-0.1609,-0.1605,-0.1608,-0.1711,-0.1913,-0.1988,-0.2481,-0.3627,-0.496,-0.6187,-0.7294,-0.8653,-0.9429,-0.9592,-0.9616,-0.9628,-0.9628,-0.9628,-0.9628,-0.9628,-0.9628,-0.9628,-0.9628,-0.9628,-0.9628,-0.9628,-0.9628,-0.9628,-0.9644,-0.9819,-0.9998,-1.0201,-1.0534,-1.0672,-1.0692,1.5679,1.5431,1.5431,1.5431,1.5431,1.5431,1.5431,1.5431,1.5085,1.4057,1.343,1.3281,1.3894,1.2369,1.1262,1.1262,1.1262,1.1262,1.1262,1.1262,1.1003,1.0299,1.0472,1.0299,0.9767,0.9772,0.9772,0.9772,1.0294,1.0033,0.9157,0.9157,0.8894,0.8456,0.7492,0.7139,0.7051,0.6086,0.5733,0.5733,0.5733,0.5733,0.5733,0.5733,0.5733,0.5644,0.4919,0.4712,0.4526,0.3176,0.239,0.1962,0.1686,0.0801,-0.0303,-0.0606,-0.1111,-0.1617,-0.1617,-0.1617,-0.1617,-0.1617,-0.1617,-0.1617,-0.1617,-0.1617,-0.1617,-0.1617,-0.1617,-0.1617,-0.1617,-0.1617,-0.1617,-0.1617,-0.1617,-0.1617,-0.1617,-0.1617,-0.1617,-0.1617,-0.1617,-0.1617,-0.1617,-0.1718,-0.192,-0.2022,-0.2105,-0.28,-0.4128,-0.5246,-0.6513,-0.7822,-0.8951,-0.9547,-0.9628,-0.9628,-0.9628,-0.9628,-0.9628,-0.9628,-0.9628,-0.9628,-0.9628,-0.9628,-0.9628,-0.9628,-0.9628,-0.9628,-0.9628,-0.9644,-0.9819,-1.0063,-1.0347,-1.0599,-1.0692,-1.0692]},{"header":{"parameterUnit":"m.s-1","parameterCategory":1,"la1":30.6,"la2":28.766,"lo1":-90.7593,"lo2":-88.6598,"dy":0.0162,"dx":0.0183,"nx":116,"ny":114,"refTime":"2024-05-13T06:00:00:Z","depth":0,"parameterNumber":3,"parameterNumberName":"V-component_of_WINDS"},"data":[0.0,0.0,0.0,0.0,0.0,0.0,0.0,0.0,0.0,0.0,0.0,0.0,0.0,0.0,0.0,0.0,0.0,0.0,0.0,0.0,0.0,0.0,0.0,0.0,0.0,0.0,0.0,0.0,0.0,0.0,0.0,0.0,0.0,0.0,0.0,0.0,0.0,0.0,0.0,0.0,0.0,0.0,0.0,0.0,0.0,0.0,0.0,0.0,0.0,0.0,0.0,0.0,0.0,0.0,0.0,0.0,0.0,0.0,0.0,0.0,0.0,0.0,0.0,0.0,0.0,0.0,0.0,0.0,0.0,0.0,0.0,0.0,0.0,0.0,0.0,0.0,0.0,0.0,0.0,0.0,0.0,0.0,0.0,0.0,0.0,0.0,0.0,0.0,0.0,0.0,0.0,0.0,0.0,0.0,0.0,0.0,0.0,0.0,0.0,0.0,0.0,0.0,0.0,0.0,0.0,0.0,0.0,0.0,0.0,0.0,0.0,0.0,0.0,0.0,0.0,0.0,0.0,0.0,0.0,0.0,0.0,0.0,0.0,0.0,0.0,0.0,0.0,0.0,0.0,0.0,0.0,0.0,0.0,0.0,0.0,0.0,0.0,0.0,0.0,0.0,0.0,0.0,0.0,0.0,0.0,0.0,0.0,0.0,0.0,0.0,0.0,0.0,0.0,0.0,0.0,0.0,0.0,0.0,0.0,0.0,0.0,0.0,0.0,0.0,0.0,0.0,0.0,0.0,0.0,0.0,0.0,0.0,0.0,0.0,0.0,0.0,0.0,0.0,0.0,0.0,0.0,0.0,0.0,0.0,0.0,0.0,0.0,0.0,0.0,0.0,0.0,0.0,0.0,0.0,0.0,0.0,0.0,0.0,0.0,0.0,0.0,0.0,0.0,0.0,0.0,0.0,0.0,0.0,0.0,0.0,0.0,0.0,0.0,0.0,0.0,0.0,0.0,0.0,0.0,0.0,0.0,0.0,0.0,0.0,0.0,0.0,0.0,0.0,0.0,0.0,0.0,0.0,0.0,0.0,0.0,0.0,0.0,0.0,0.0,0.0,0.0,0.0,0.0,0.0,0.0,0.0,0.0,0.0,0.0,0.0,0.0,0.0,0.0,0.0,0.0,0.0,0.0,0.0,0.0,0.0,0.0,0.0,0.0,0.0,0.0,0.0,0.0,0.0,0.0,0.0,0.0,0.0,0.0,0.0,0.0,0.0,0.0,0.0,0.0,0.0,0.0,0.0,0.0,0.0,0.0,0.0,0.0,0.0,0.0,0.0,0.0,0.0,0.0,0.0,0.0,0.0,0.0,0.0,0.0,0.0,0.0,0.0,0.0,0.0,0.0,0.0,0.0,0.0,0.0,0.0,0.0,0.0,0.0,0.0,0.0,0.0,0.0,0.0,0.0,0.0,0.0,0.0,0.0,0.0,0.0,0.0,0.0,0.0,0.0,0.0,0.0,0.0,0.0,0.0,0.0,0.0,0.0,0.0,0.0,0.0,0.0,0.0,0.0,0.0,0.0,0.0,0.0,0.0,0.0,0.0,0.0,0.0,0.0,0.0,0.0,0.0,0.0,0.0,0.0,0.0,0.0,0.0,0.0,0.0,0.0,0.0,0.0,0.0,0.0,0.0,0.0,0.0,0.0,0.0,0.0,0.0,0.0,0.0,0.0,0.0,0.0,0.0,0.0,0.0,0.0,0.0,0.0,0.0,0.0,0.0,0.0,0.0,0.0,0.0,0.0,0.0,0.0,0.0,0.0,0.0,0.0,0.0,0.0,0.0,0.0,0.0,0.0,0.0,0.0,0.0,0.0,0.0,0.0,0.0,0.0,0.0,0.0,0.0,0.0,0.0,0.0,0.0,0.0,0.0,0.0,0.0,0.0,0.0,0.0,0.0,0.0,0.0,0.0,0.0,0.0,0.0,0.0,0.0,0.0,0.0,0.0,0.0,0.0,0.0,0.0,0.0,0.0,0.0,0.0,0.0,0.0,0.0,0.0,0.0,0.0,0.0,0.0,0.0,0.0,0.0,0.0,0.0,0.0,0.0,0.0,0.0,0.0,0.0,0.0,0.0,0.0,0.0,0.0,0.0,0.0,0.0,0.0,0.0,0.0,0.0,0.0,0.0,0.0,0.0,0.0,0.0,0.0,0.0,0.0,0.0,0.0,0.0,0.0,0.0,0.0,0.0,0.0,0.0,0.0,0.0,0.0,0.0,0.0,0.0,0.0,0.0,0.0,0.0,0.0,0.0,0.0,0.0,0.0,0.0,0.0,0.0,0.0,0.0,0.0,0.0,0.0,0.0,0.0,0.0,0.0,0.0,0.0,0.0,0.0,0.0,0.0,0.0,0.0,0.0,0.0,0.0,0.0,0.0,0.0,0.0,0.0,0.0,0.0,0.0,0.0,0.0,0.0,0.0,0.0,0.0,0.0,0.0,0.0,0.0,0.0,0.0,0.0,0.0,0.0,0.0,0.0,0.0,0.0,0.0,0.0,0.0,0.0,0.0,0.0,0.0,0.0,0.0,0.0,0.0,0.0,0.0,0.0,0.0,0.0,0.0,0.0,0.0,0.0,0.0,0.0,0.0,0.0,0.0,0.0,0.0,0.0,0.0,0.0,0.0,0.0,0.0,0.0,0.0,0.0,0.0,0.0,0.0,0.0,0.0,0.0,0.0,0.0,0.0,0.0,0.0,0.0,0.0,0.0,0.0,0.0,0.0,0.0,0.0,0.0,0.0,0.0,0.0,0.0,0.0,0.0,0.0,0.0,0.0,0.0,0.0,0.0,0.0,0.0,0.0,0.0,0.0,0.0,0.0,0.0,0.0,0.0,0.0,0.0,0.0,0.0,0.0,0.0,0.0,0.0,0.0,0.0,0.0,0.0,0.0,0.0,0.0,0.0,0.0,0.0,0.0,0.0,0.0,0.0,0.0,0.0,0.0,0.0,0.0,0.0,0.0,0.0,0.0,0.0,0.0,0.0,0.0,0.0,0.0,0.0,0.0,0.0,0.0,0.0,0.0,0.0,0.0,0.0,0.0,0.0,0.0,0.0,0.0,0.0,0.0,0.0,0.0,0.0,0.0,0.0,0.0,0.0,0.0,0.0,0.0,0.0,0.0,0.0,0.0,0.0,0.0,0.0,0.0,0.0,0.0,0.0,0.0,0.0,0.0,0.0,0.0,0.0,0.0,0.0,0.0,0.0,0.0,0.0,0.0,0.0,0.0,0.0,0.0,0.0,0.0,0.0,0.0,0.0,0.0,0.0,0.0,0.0,0.0,0.0,0.0,0.0,0.0,0.0,0.0,0.0,0.0,0.0,0.0,0.0,0.0,0.0,0.0,0.0,0.0,0.0,0.0,0.0,0.0,0.0,0.0,0.0,0.0,0.0,0.0,0.0,0.0,0.0,0.0,0.0,0.0,0.0,0.0,0.0,0.0,0.0,0.0,0.0,0.0,0.0,0.0,0.0,0.0,0.0,0.0,0.0,0.0,0.0,0.0,0.0,0.0,0.0,0.0,0.0,0.0,0.0,0.0,0.0,0.0,0.0,0.0,0.0,0.0,0.0,0.0,0.0,0.0,0.0,0.0,0.0,0.0,0.0,0.0,0.0,0.0,0.0,0.0,0.0,0.0,0.0,0.0,0.0,0.0,0.0,0.0,0.0,0.0,0.0,0.0,0.0,0.0,0.0,0.0,0.0,0.0,0.0,0.0,0.0,0.0,0.0,0.0,0.0,0.0,0.0,0.0,0.0,0.0,0.0,0.0,0.0,0.0,0.0,0.0,0.0,0.0,0.0,0.0,0.0,0.0,0.0,0.0,0.0,0.0,0.0,0.0,0.0,0.0,0.0,0.0,0.0,0.0,0.0,0.0,0.0,0.0,0.0,0.0,0.0,0.0,0.0,0.0,0.0,0.0,0.0,0.0,0.0,0.0,0.0,0.0,0.0,0.0,0.0,0.0,0.0,0.0,0.0,0.0,0.0,0.0,0.0,0.0,0.0,0.0,0.0,0.0,0.0,0.0,0.0,0.0,0.0,0.0,0.0,0.0,0.0,0.0,0.0,0.0,0.0,0.0,0.0,0.0,0.0,0.0,0.0,0.0,0.0,0.0,0.0,0.0,0.0,0.0,0.0,0.0,0.0,0.0,0.0,0.0,0.0,0.0,0.0,0.0,0.0,0.0,0.0,0.0,0.0,0.0,0.0,0.0,0.0,0.0,0.0,0.0,0.0,0.0,0.0,0.0,0.0,0.0,0.0,0.0,0.0,0.0,0.0,0.0,0.0,0.0,0.0,0.0,0.0,0.0,0.0,0.0,0.0,0.0,0.0,0.0,0.0,0.0,0.0,0.0,0.0,0.0,0.0,0.0,0.0,0.0,0.0,0.0,0.0,0.0,0.0,0.0,0.0,0.0,0.0,0.0,0.0,0.0,0.0,0.0,0.0,0.0,0.0,0.0,0.0,0.0,0.0,0.0,0.0,0.0,0.0,0.0,0.0,0.0,0.0,0.0,0.0,0.0,0.0,0.0,0.0,0.0,0.0,0.0,0.0,0.0,0.0,0.0,0.0,0.0,0.0,0.0,0.0,0.0,0.0,0.0,0.0,0.0,0.0,0.0,0.0,0.0,0.0,0.0,0.0,0.0,0.0,0.0,0.0,0.0,0.0,0.0,0.0,0.0,0.0,0.0,0.0,0.0,0.0,0.0,0.0,0.0,0.0,0.0,0.0,0.0,0.0,0.0,0.0,0.0,0.0,0.0,0.0,0.0,0.0,0.0,0.0,0.0,0.0,0.0,0.0,0.0,0.0,0.0,0.0,0.0,0.0,0.0,0.0,0.0,0.0,0.0,0.0,0.0,0.0,0.0,0.0,0.0,0.0,0.0,0.0,0.0,0.0,0.0,0.0,0.0,0.0,0.0,0.0,0.0,0.0,0.0,0.0,0.0,0.0,0.0,0.0,0.0,0.0,0.0,0.0,0.0,0.0,0.0,0.0,0.0,0.0,0.0,0.0,0.0,0.0,0.0,0.0,0.0,0.0,0.0,0.0,0.0,0.0,0.0,0.0,0.0,0.0,0.0,0.0,0.0,0.0,0.0,0.0,0.0,0.0,0.0,0.0,0.0,0.0,0.0,0.0,0.0,0.0,0.0,0.0,0.0,0.0,0.0,0.0,0.0,0.0,0.0,0.0,0.0,0.0,0.0,0.0,0.0,0.0,0.0,0.0,0.0,0.0,0.0,0.0,0.0,0.0,0.0,0.0,0.0,0.0,0.0,0.0,0.0,0.0,0.0,0.0,0.0,0.0,0.0,0.0,0.0,0.0,0.0,0.0,0.0,0.0,0.0,0.0,0.0,0.0,0.0,0.0,0.0,0.0,0.0,0.0,0.0,0.0,0.0,0.0,0.0,0.0,0.0,0.0,0.0,0.0,0.0,0.0,0.0,0.0,0.0,0.0,0.0,0.0,0.0,0.0,0.0,0.0,0.0,0.0,0.0,0.0,0.0,0.0,0.0,0.0,0.0,0.0,0.0,0.0,0.0,0.0,0.0,0.0,0.0,0.0,0.0,0.0,0.0,0.0,0.0,0.0,0.0,0.0,0.0,0.0,0.0,0.0,0.0,0.0,0.0,0.0,0.0,0.0,0.0,0.0,0.0,0.0,0.0,0.0,0.0,0.0,0.0,0.0,0.0,0.0,0.0,0.0,0.0,0.0,0.0,0.0,0.0,0.0,0.0,0.0,0.0,0.0,0.0,0.0,0.0,0.0,0.0,0.0,0.0,0.0,0.0,0.0,0.0,0.0,0.0,0.0,0.0,0.0,0.0,0.0,0.0,0.0,0.0,0.0,0.0,0.0,0.0,0.0,0.0,0.0,0.0,0.0,0.0,0.0,0.0,0.0,0.0,0.0,0.0,0.0,0.0,0.0,0.0,0.0,0.0,0.0,0.0,0.0,0.0,0.0,0.0,0.0,0.0,0.0,0.0,0.0,0.0,0.0,0.0,0.0,0.0,0.0,0.0,0.0,0.0,0.0,0.0,0.0,0.0,0.0,0.0,0.0,0.0,0.0,0.0,0.0,0.0,0.0,0.0,0.0,0.0,0.0,0.0,-3.0884,0.0,0.0,0.0,0.0,0.0,0.0,0.0,0.0,0.0,0.0,0.0,0.0,0.0,0.0,0.0,0.0,0.0,0.0,0.0,0.0,0.0,0.0,0.0,0.0,-1.9745,-1.9763,-1.9795,-1.9807,-1.9957,-2.0352,0.0,0.0,0.0,0.0,0.0,-2.161,-2.2454,-2.3045,-2.3397,-2.3659,-2.4098,-2.4706,-2.5189,-2.5078,-2.4508,0.0,0.0,0.0,0.0,0.0,0.0,0.0,0.0,0.0,0.0,0.0,0.0,0.0,0.0,0.0,0.0,0.0,0.0,0.0,0.0,0.0,0.0,0.0,0.0,0.0,0.0,0.0,0.0,0.0,0.0,0.0,0.0,0.0,0.0,0.0,0.0,0.0,0.0,0.0,0.0,0.0,0.0,0.0,0.0,0.0,0.0,0.0,0.0,0.0,0.0,0.0,0.0,0.0,0.0,0.0,0.0,0.0,0.0,0.0,0.0,0.0,0.0,0.0,0.0,0.0,0.0,0.0,0.0,0.0,0.0,0.0,-3.355,0.0,0.0,0.0,0.0,0.0,0.0,0.0,0.0,0.0,0.0,0.0,0.0,0.0,0.0,0.0,0.0,0.0,0.0,0.0,0.0,0.0,-1.9864,-1.9995,-2.0014,-2.007,-2.022,-2.0239,-2.0521,-2.1178,-2.1234,0.0,0.0,0.0,-2.2511,-2.2511,-2.3266,-2.3603,-2.3475,-2.434,-2.512,-2.5805,-2.6561,-2.6409,-2.5553,-2.5042,0.0,0.0,0.0,0.0,0.0,0.0,0.0,0.0,0.0,0.0,0.0,0.0,0.0,0.0,0.0,0.0,0.0,0.0,0.0,0.0,0.0,0.0,0.0,0.0,0.0,0.0,0.0,0.0,0.0,0.0,0.0,0.0,0.0,0.0,0.0,0.0,0.0,0.0,0.0,0.0,0.0,0.0,0.0,0.0,0.0,0.0,0.0,0.0,0.0,0.0,0.0,0.0,0.0,0.0,0.0,0.0,0.0,0.0,0.0,0.0,0.0,0.0,0.0,-4.014,-4.1436,-4.2111,-4.2956,-4.4158,-4.5322,-4.0553,-3.8075,-3.7305,0.0,0.0,0.0,0.0,0.0,0.0,0.0,0.0,0.0,0.0,0.0,0.0,0.0,0.0,0.0,0.0,0.0,0.0,0.0,0.0,-2.007,-2.0765,-2.084,-2.114,-2.191,-2.1966,-2.2023,-2.2116,-2.2135,0.0,0.0,-2.2961,-2.3351,-2.3351,-2.4033,-2.4292,-2.417,-2.5832,-2.7316,-2.8592,-2.9337,-3.0012,-3.0521,-2.7369,-2.6731,-2.7875,0.0,0.0,0.0,0.0,0.0,0.0,0.0,0.0,0.0,0.0,0.0,0.0,0.0,0.0,0.0,0.0,0.0,0.0,0.0,0.0,0.0,0.0,0.0,0.0,0.0,0.0,0.0,0.0,0.0,0.0,0.0,0.0,0.0,0.0,0.0,0.0,0.0,0.0,0.0,0.0,0.0,-2.8406,-2.927,0.0,0.0,0.0,0.0,0.0,0.0,0.0,0.0,0.0,0.0,0.0,0.0,0.0,0.0,-3.7474,-4.0703,-4.2374,-4.2506,-4.5585,-4.7105,-4.7237,-4.8119,-4.9002,-4.9828,-4.9077,0.0,-4.32,-4.0929,0.0,0.0,0.0,0.0,0.0,0.0,0.0,0.0,0.0,0.0,0.0,0.0,0.0,0.0,0.0,0.0,0.0,0.0,0.0,0.0,0.0,-2.1293,-2.1693,-2.199,-2.2848,-2.3215,-2.288,-2.3705,0.0,0.0,-2.3994,-2.4163,-2.4163,-2.4307,-2.4856,-2.5819,-2.8282,-2.9986,-3.0994,-3.2174,-3.2948,-3.3263,-3.1675,-3.0306,-2.9091,-2.7634,0.0,0.0,0.0,0.0,0.0,0.0,0.0,0.0,0.0,0.0,0.0,0.0,0.0,0.0,0.0,0.0,0.0,0.0,0.0,0.0,0.0,0.0,0.0,0.0,0.0,0.0,0.0,0.0,0.0,0.0,0.0,0.0,0.0,0.0,0.0,0.0,0.0,0.0,0.0,-2.8631,-3.0302,-2.9758,-3.1241,-3.1616,0.0,0.0,0.0,0.0,0.0,0.0,0.0,0.0,0.0,-3.8037,-4.014,-4.1886,-4.3182,-4.6035,-4.7687,-4.8157,-5.0541,-5.2175,-5.3095,-5.347,-5.4615,-5.6211,-5.5272,-5.409,-5.2381,-4.6636,-4.3782,-4.2769,0.0,0.0,0.0,0.0,-3.969,-4.0591,0.0,0.0,0.0,0.0,0.0,0.0,0.0,0.0,0.0,0.0,0.0,0.0,-2.1392,-2.2309,-2.293,-2.3049,-2.4155,-2.4654,-2.4256,-2.4963,-2.52,-2.4711,-2.4707,-2.4692,-2.466,-2.4949,-2.6242,-2.8541,-3.1151,-3.2926,-3.397,-3.5344,-3.6151,-3.6443,-3.6039,-3.4287,-3.144,-2.988,-2.8771,-2.7991,0.0,0.0,0.0,0.0,0.0,0.0,0.0,0.0,0.0,0.0,0.0,0.0,0.0,0.0,0.0,0.0,0.0,0.0,0.0,0.0,0.0,0.0,0.0,0.0,0.0,0.0,0.0,0.0,0.0,0.0,0.0,0.0,0.0,0.0,0.0,0.0,0.0,-3.0359,-3.1823,-3.0208,-3.2574,-3.3362,0.0,0.0,0.0,0.0,0.0,0.0,-3.646,-3.8657,-4.076,-4.2637,-4.5097,-4.7105,-4.857,-5.0823,-5.2362,-5.3207,-5.4859,-5.6418,-5.7845,-5.8051,-5.9159,-6.0848,-5.9591,-5.9384,-5.9365,-5.1949,-4.8382,-4.7312,-4.4214,-4.3013,-4.3031,-4.3031,-4.3538,-4.4496,0.0,0.0,0.0,0.0,0.0,0.0,0.0,0.0,0.0,0.0,0.0,-2.141,-2.3007,-2.4394,-2.5556,-2.6368,-2.6516,-2.6613,-2.6711,-2.5371,-2.4599,-2.4692,-2.4707,-2.4626,-2.4512,-2.6368,-2.913,-3.278,-3.4321,-3.615,-3.8199,-3.8978,-4.0023,-4.12,-3.9726,-3.8146,-3.6397,-3.265,-3.16,-3.2184,-2.8568,0.0,0.0,0.0,0.0,0.0,0.0,0.0,0.0,0.0,0.0,0.0,0.0,0.0,0.0,0.0,0.0,0.0,0.0,0.0,0.0,0.0,0.0,0.0,0.0,0.0,0.0,0.0,0.0,0.0,0.0,0.0,0.0,0.0,0.0,0.0,0.0,0.0,0.0,-3.1053,-3.4433,0.0,0.0,0.0,0.0,-3.6723,-3.7606,-3.9145,-4.1485,-4.3275,-4.5322,-4.7744,-5.0241,-5.1968,-5.2869,-5.454,-5.5798,-5.6662,-5.8276,-5.9534,-6.0454,-6.1205,-6.1618,-6.1731,-6.1637,-6.1637,-6.128,-5.6136,-5.3545,-5.255,-4.9978,-4.902,-4.9058,-4.9058,-4.9565,-5.0278,0.0,0.0,0.0,0.0,0.0,-1.9807,-1.9807,-1.9807,-2.0089,-2.0877,-2.133,-2.2365,-2.4431,-2.5515,-2.66,-2.7825,-2.7911,-2.7762,-2.739,-2.6463,-2.5987,-2.6095,-2.5747,-2.6112,-2.7308,-2.943,-3.2094,-3.5285,-3.7828,-4.0024,-4.1706,-4.2321,-4.2864,-4.3288,-4.259,-4.1955,-4.1148,-3.6777,-3.464,-3.3878,-3.0618,-2.9341,0.0,0.0,0.0,0.0,0.0,0.0,0.0,0.0,0.0,0.0,0.0,0.0,0.0,0.0,0.0,0.0,0.0,0.0,0.0,0.0,0.0,0.0,0.0,0.0,0.0,0.0,0.0,0.0,0.0,0.0,0.0,0.0,0.0,0.0,0.0,0.0,0.0,-3.5728,-3.9333,0.0,0.0,-3.999,-4.1004,-4.1811,-4.3613,-4.5303,-4.6749,-4.8908,-5.0973,-5.2907,-5.4371,-5.6023,-5.7938,-5.8539,-5.9234,-6.006,-6.0623,-6.1374,-6.22,-6.1919,-6.2388,-6.3364,-6.2857,-6.2932,-6.3214,-6.0942,-5.8558,-5.6061,-5.3019,-5.1855,-5.1874,-5.1874,-5.2381,-5.3151,0.0,0.0,0.0,-1.9807,-1.9807,-1.9807,-1.9807,-1.9807,-2.017,-2.1199,-2.1667,-2.3007,-2.5825,-2.6798,-2.7918,-2.9663,-2.9337,-2.8767,-2.8141,-2.6969,-2.6245,-2.6151,-2.6467,-2.773,-3.0027,-3.2283,-3.4984,-3.8241,-4.063,-4.2548,-4.4008,-4.4375,-4.4592,-4.466,-4.4477,-4.4525,-4.4483,-4.1394,-3.8643,-3.6158,-3.347,-3.2509,-3.2301,0.0,0.0,0.0,0.0,0.0,0.0,0.0,0.0,0.0,0.0,0.0,0.0,0.0,0.0,0.0,0.0,0.0,0.0,0.0,0.0,0.0,0.0,0.0,0.0,0.0,0.0,0.0,0.0,0.0,0.0,0.0,0.0,0.0,0.0,0.0,-3.999,-3.999,-4.367,-4.5641,-4.4233,-4.5134,-4.6129,-4.6955,-4.8795,-5.0504,-5.1912,-5.3808,-5.5592,-5.7244,-5.8107,-5.9347,-6.0999,-6.0999,-6.1262,-6.1787,-6.2088,-6.2538,-6.3101,-6.2782,-6.3252,-6.4284,-6.4021,-6.4059,-6.4247,-6.3721,-6.2031,-5.9515,-5.6756,-5.5685,-5.5648,-5.5366,-5.5592,-5.6099,0.0,-1.8669,-1.9807,-1.9807,-1.9807,-1.9807,-1.9807,-1.9807,-2.0319,-2.1812,-2.1879,-2.329,-2.72,-2.8221,-2.959,-3.1981,-3.0695,-2.958,-2.9122,-2.6811,-2.5282,-2.4845,-2.6895,-2.9457,-3.2484,-3.4776,-3.7884,-4.1759,-4.2611,-4.3746,-4.5114,-4.515,-4.529,-4.551,-4.5545,-4.5847,-4.6291,-4.6291,-4.3693,-3.9357,-3.7143,-3.6249,-3.5809,0.0,0.0,0.0,0.0,0.0,0.0,0.0,0.0,0.0,0.0,0.0,0.0,0.0,0.0,0.0,0.0,0.0,0.0,0.0,0.0,0.0,0.0,0.0,0.0,0.0,0.0,0.0,0.0,0.0,0.0,0.0,0.0,0.0,-3.6216,-4.0347,-4.3482,-4.3557,-4.7181,-4.9377,-4.8589,-4.9978,-5.1273,-5.2118,-5.2944,-5.4484,-5.6925,-5.7788,-5.8971,-6.0642,-6.1412,-6.1825,-6.1881,-6.1844,-6.1844,-6.1881,-6.2726,-6.3139,-6.3158,-6.3928,-6.4284,-6.4322,-6.511,-6.5016,-6.4284,-6.4284,-6.3834,-6.297,-6.1299,-6.0623,-6.0511,-5.9647,-5.9328,-5.9196,-1.8061,-1.9056,-1.9807,-1.9807,-1.9807,-1.9807,-1.9807,-1.9807,-2.0319,-2.1812,-2.1879,-2.3492,-2.7986,-2.8548,-2.959,-3.1981,-3.0206,-2.8905,-2.8868,-2.6215,-2.5653,-2.7941,-3.0088,-3.2692,-3.5823,-3.8074,-4.06,-4.3444,-4.4838,-4.63,-4.785,-4.8235,-4.8461,-4.8557,-4.8925,-4.89,-4.8519,-4.8325,-4.7148,-4.5134,-4.1542,-3.9482,-3.821,0.0,0.0,0.0,0.0,0.0,0.0,0.0,0.0,0.0,0.0,0.0,0.0,0.0,0.0,0.0,0.0,0.0,0.0,0.0,0.0,0.0,0.0,0.0,0.0,0.0,0.0,0.0,0.0,0.0,0.0,0.0,0.0,-4.1961,-4.0534,-4.4083,-4.7519,-4.9321,-5.2137,-5.4315,-5.5291,-5.5798,-5.6662,-5.8107,-5.8427,-5.9121,-6.0379,-6.0661,-6.128,-6.2388,-6.2013,-6.2369,-6.359,-6.3026,-6.3026,-6.3608,-6.3852,-6.3965,-6.3965,-6.419,-6.4284,-6.4303,-6.4528,-6.4491,-6.4284,-6.4284,-6.4153,-6.3796,-6.2125,-6.1111,-6.0567,-6.0342,-5.9835,-5.9271,-1.7836,-1.8681,-1.9375,-1.9751,-1.9807,-1.9807,-1.9807,-1.9807,-2.0324,-2.1721,-2.2142,-2.3933,-2.8257,-2.8354,-2.9083,-3.1492,-2.9533,-2.8111,-2.7926,-2.6645,-2.7149,-2.9964,-3.291,-3.5757,-3.8522,-4.0817,-4.319,-4.5617,-4.654,-4.8007,-4.9908,-4.9884,-4.9982,-5.0214,-5.0522,-5.039,-4.9852,-5.0044,-4.987,-4.9195,-4.6442,-4.4367,-4.2652,-3.9603,-3.8665,-3.8618,-3.633,-3.5851,-3.6091,-3.4679,0.0,0.0,0.0,0.0,0.0,0.0,0.0,0.0,0.0,0.0,0.0,0.0,0.0,0.0,0.0,0.0,0.0,0.0,0.0,0.0,0.0,0.0,0.0,0.0,-4.4083,-4.7124,-4.7199,-4.9265,-5.1593,-5.3733,-5.5873,-5.7694,-5.9027,-5.9459,-6.006,-6.1036,-6.1111,-6.1468,-6.2294,-6.2332,-6.2726,-6.3571,-6.3101,-6.3308,-6.4284,-6.3834,-6.3834,-6.4284,-6.4284,-6.4284,-6.4284,-6.4284,-6.4284,0.0,-6.466,-6.4603,-6.4322,-6.466,-6.4585,0.0,0.0,0.0,0.0,0.0,-5.9722,-5.929,-1.7262,-1.8005,-1.8775,-1.9657,-1.9807,-1.9807,-1.9807,-1.9807,-2.0265,-2.1611,-2.2423,-2.428,-2.7973,-2.7707,-2.8214,-3.0567,-2.8749,-2.7284,-2.6866,-2.7761,-2.9374,-3.1754,-3.5526,-3.8598,-4.0872,-4.3262,-4.5562,-4.7717,-4.788,-4.9166,-5.1411,-5.0687,-5.067,-5.1243,-5.1304,-5.1191,-5.0896,-5.1719,-5.2008,-5.1969,-5.1294,-4.9862,-4.7802,-4.5036,-4.4181,-4.4178,-4.1847,-3.9822,-3.8138,-3.7809,0.0,0.0,0.0,0.0,0.0,0.0,0.0,0.0,0.0,0.0,0.0,0.0,0.0,0.0,0.0,0.0,0.0,0.0,0.0,0.0,0.0,0.0,0.0,0.0,-4.8476,-5.2118,-5.4597,-5.5047,-5.561,-5.7,-5.852,-5.9816,-6.0792,-6.143,-6.1881,-6.2069,-6.2069,-6.2407,-6.3195,0.0,0.0,0.0,0.0,-6.4284,-6.4284,-6.4378,-6.4434,-6.4434,-6.4434,-6.4434,-6.4416,-6.4322,-6.4284,-6.4322,-6.5054,-6.496,-6.4359,-6.5073,-6.4941,-6.4209,-6.3402,-6.2632,-6.175,-6.0173,-5.9515,-5.9459,-1.7986,-1.8399,-1.8775,-1.9657,-1.9807,-1.9807,-1.9807,-1.9807,-2.0265,-2.1611,-2.1927,-2.329,-2.6553,-2.6617,-2.7263,-2.9292,-2.7775,-2.6991,-2.7638,-2.8888,-3.1558,-3.5848,-3.8474,-4.098,-4.3353,-4.578,-4.7246,-4.7717,-4.9003,-5.0524,-5.2263,-5.21,-5.2462,-5.3212,-5.3815,-5.3743,-5.3135,-5.3684,-5.3975,-5.4011,-5.4186,-5.2564,-4.9852,-4.7972,-4.785,-4.8245,-4.5227,-4.4791,-4.5236,-4.2629,-4.0582,-3.8862,-3.7286,-3.4461,0.0,0.0,0.0,0.0,0.0,0.0,0.0,0.0,0.0,0.0,0.0,0.0,0.0,0.0,0.0,0.0,0.0,0.0,0.0,-4.6982,-5.1518,-5.5535,-5.7995,-5.8971,-5.9271,-5.8877,-5.9741,-6.0961,-6.2463,-6.2125,-6.235,-6.3702,-6.3815,-6.389,-6.4059,-6.4059,0.0,-6.4284,-6.4284,-6.4284,-6.4284,-6.4941,-6.5279,-6.5279,0.0,0.0,-6.5261,-6.4585,-6.4284,-6.4303,-6.4453,-6.4434,-6.4303,-6.4472,-6.4434,-6.4209,-6.3402,-6.3008,-6.2726,-6.1693,-6.0905,-6.036,-1.8268,-1.8493,-1.8775,-1.9657,-1.9807,-1.9807,-1.9807,-1.9807,-2.0161,-2.1171,-2.2006,-2.3232,-2.5126,-2.5651,-2.6243,-2.7216,-2.6491,-2.6709,-2.8371,-3.0576,-3.3723,-3.8071,-4.0854,-4.3425,-4.5852,-4.7482,-4.8713,-4.9492,-5.0307,-5.1502,-5.3096,-5.2679,-5.2933,-5.3693,-5.3693,-5.3693,-5.3748,-5.4417,-5.4909,-5.527,-5.5497,-5.4939,-5.3752,-5.24,-5.1581,-5.1004,-4.9793,-4.8898,-4.8007,-4.5979,-4.3697,-4.1361,-3.9405,-3.6852,-3.4208,0.0,0.0,0.0,0.0,0.0,0.0,0.0,0.0,0.0,0.0,0.0,0.0,0.0,0.0,-3.9185,-4.195,0.0,-4.9514,-5.2137,-5.5685,-5.8689,-6.0323,-6.1299,-6.1524,-6.0642,-6.1318,-6.2181,-6.3026,-6.3064,-6.3383,-6.4228,-6.466,-6.4716,-6.4303,-6.5092,-6.5167,-6.4322,-6.5092,-6.5336,-6.4904,-6.573,-6.6143,-6.6143,-6.5711,-6.5505,-6.5467,-6.466,-6.4284,-6.4284,-6.4284,-6.4284,-6.4284,-6.4284,-6.4284,-6.4247,-6.3852,-6.3195,-6.235,-6.1506,-6.068,-5.9947,-1.8362,-1.8643,-1.8962,-1.9676,-1.9807,-1.9807,-1.9807,-1.982,-2.0063,-2.0732,-2.2111,-2.3289,-2.3987,-2.482,-2.5319,-2.5338,-2.5449,-2.6667,-2.9388,-3.2062,-3.549,-3.9804,-4.2774,-4.5454,-4.7898,-4.8731,-4.9836,-5.1285,-5.1448,-5.2281,-5.3675,-5.2878,-5.3078,-5.411,-5.3313,-5.3585,-5.4653,-5.5305,-5.6011,-5.6663,-5.6355,-5.6518,-5.688,-5.5833,-5.4494,-5.3204,-5.3403,-5.1411,-4.855,-4.7753,-4.5436,-4.2592,-4.0854,-3.9097,-3.7105,-3.4208,-3.3375,0.0,0.0,0.0,0.0,0.0,0.0,0.0,0.0,0.0,-3.6248,-3.9322,-4.1683,-4.4258,-4.7716,-5.1359,-5.4675,-5.7206,-5.944,-6.1168,-6.2144,-6.2763,-6.2839,-6.2144,-6.267,-6.3158,-6.3327,-6.3777,-6.419,-6.451,-6.4998,-6.5129,-6.4791,-6.5749,-6.5749,-6.4566,-6.5824,-6.6199,-6.5505,-6.6518,-6.6931,-6.6781,-6.6087,-6.5655,-6.5467,-6.466,-6.4284,-6.4284,-6.4284,-6.4284,-6.4284,-6.4284,-6.4284,-6.4265,-6.4115,-6.3139,-6.175,-6.1449,-6.068,-5.9797,-1.8474,-1.9131,-1.9695,-1.9788,-1.9807,-1.9807,-1.9807,-1.9856,-2.0138,-2.0797,-2.1732,-2.2656,-2.3491,-2.4201,-2.4671,-2.4767,-2.5293,-2.7191,-3.0969,-3.2611,-3.6159,-4.2212,-4.4204,-4.6305,-4.8731,-4.9546,-5.0397,-5.1285,-5.2009,-5.2824,-5.3675,-5.2878,-5.3657,-5.5703,-5.4961,-5.5848,-5.7876,-5.7967,-5.8474,-5.9072,-5.7641,-5.6681,-5.6047,-5.5256,-5.522,-5.5341,-5.3349,-5.0578,-4.7717,-4.692,-4.4965,-4.2973,-4.3425,-4.1977,-3.9786,-3.8029,-3.5566,-3.3379,-3.325,-3.3469,-3.4182,-3.6023,-3.5457,-3.5928,0.0,0.0,-4.2415,-4.6287,-4.8071,-4.9839,-5.2675,-5.4801,-5.7005,-5.9741,-6.1017,-6.2219,-6.3796,-6.3477,-6.3064,-6.297,-6.3045,-6.3383,-6.4096,-6.359,-6.3834,-6.5261,-6.4791,-6.5035,-6.6443,-6.5279,-6.481,-6.5354,-6.5561,-6.5598,-6.5505,-6.7063,-6.7513,-6.6781,-6.6687,-6.6237,-6.5467,-6.466,-6.4284,-6.4284,-6.4284,-6.4284,-6.4284,-6.4284,-6.4284,-6.4228,-6.3514,-6.2651,-6.1956,-6.3364,-6.2876,-6.1506,-1.9263,-1.9563,-1.9807,-1.9807,-1.9807,-1.9807,-1.9807,-1.9868,-2.0005,-2.0277,-2.1079,-2.1928,-2.2778,-2.3978,-2.4756,-2.4799,-2.5305,-2.7303,-3.1288,-3.3159,-3.6725,-4.2629,-4.444,-4.6649,-4.9546,-4.9927,-5.0705,-5.1991,-5.2806,-5.3132,-5.3005,-5.3132,-5.3711,-5.4653,-5.4345,-5.5015,-5.6428,-5.7315,-5.7623,-5.7532,-5.7786,-5.7134,-5.5866,-5.4653,-5.3512,-5.2371,-5.0923,-4.8351,0.0,-4.4675,-4.3425,-4.2339,-4.3154,-4.1741,-3.953,-3.8085,-3.676,-3.5951,-3.6966,-3.6545,-3.6358,0.0,-3.9586,-4.1016,-4.4345,-4.5407,-4.6691,-5.0158,-5.2401,-5.441,-5.6668,-5.8859,-6.0864,0.0,-6.3421,-6.4209,-6.4904,-6.4303,-6.3439,-6.2463,-6.2332,-6.267,-6.3514,-6.3308,-6.3571,-6.4716,-6.5373,-6.5824,-6.603,-6.6293,-6.6387,-6.6256,-6.6706,-6.695,-6.695,-6.7645,-6.7833,-6.7476,-6.7007,-6.6331,-6.5505,-6.5148,-6.4735,-6.4284,-6.4284,-6.4284,-6.4247,-6.3777,-6.359,-6.3514,-6.267,-6.2426,-6.2519,-6.2257,-6.1374,-6.0342,-1.9807,-1.9807,-1.9807,-1.9807,-1.9807,-1.9807,-1.9832,-1.9873,-1.9919,-1.9941,-2.0895,-2.2004,-2.3068,-2.4265,-2.4987,-2.4987,-2.5227,-2.6879,-3.0394,-3.2546,-3.6046,-4.1361,-4.3552,-4.6142,-4.9365,-4.9854,-5.076,-5.2172,-5.2969,-5.3078,-5.2516,-5.3096,-5.3603,-5.4037,-5.4037,-5.4599,-5.5613,-5.6717,-5.6989,-5.6699,-5.7224,-5.6609,-5.5124,-5.2896,-5.0271,-4.7735,-4.7373,-4.5222,-4.2377,-4.1307,-4.0437,-3.9982,-4.098,-4.0092,-3.8601,-3.8118,-3.7906,-3.8021,-3.8816,-3.8693,0.0,-4.1252,-4.3538,-4.5672,-4.7403,-4.8989,-5.0878,-5.3572,-5.5641,-5.7473,-5.9309,-6.098,-6.2613,-6.4341,-6.4923,-6.5261,-6.5467,-6.4622,-6.3252,-6.1337,-6.0717,-6.0867,-6.1956,-6.2463,-6.3158,-6.4209,-6.5204,-6.5899,-6.618,-6.6894,-6.7251,-6.7119,-6.7701,-6.7889,-6.7664,-6.7889,-6.7776,-6.7307,-6.6706,-6.5993,-6.5167,-6.5167,-6.4847,-6.4284,-6.4284,-6.4153,-6.3909,-6.3345,-6.297,-6.2688,-6.205,-6.2181,-6.2576,-6.113,-6.0342,-5.9966,-1.9807,-1.9807,-1.9807,-1.9807,-1.9807,-1.9832,-1.9903,-1.9949,-1.9996,-1.9991,-2.15,-2.3212,-2.4931,-2.516,-2.518,-2.518,-2.4974,-2.5803,-2.8053,-3.0199,-3.3469,-3.8153,-4.1307,-4.4476,-4.7717,-4.9293,-5.0488,-5.1339,-5.2136,-5.2516,-5.2498,-5.2516,-5.3367,-5.487,-5.487,-5.5721,-5.7134,-5.717,-5.7641,-5.813,-5.5903,-5.4508,-5.3349,-4.9401,-4.5417,-4.2067,-4.281,-4.1125,-3.8296,-3.6608,-3.5581,-3.5246,-3.6717,-3.7217,-3.7575,-3.9168,-3.9307,-3.8728,-3.7668,0.0,-4.1567,-4.4445,-4.6621,-4.8907,-5.2053,-5.3931,-5.5435,-5.7132,-5.7753,-5.8596,-6.0266,-5.9929,-6.0736,-6.481,-6.4829,-6.4603,-6.5392,-6.4134,-6.22,-5.9684,-5.7995,-5.7657,0.0,-6.0886,-6.2519,-6.4172,-6.3608,-6.4585,-6.7758,-6.6425,-6.6312,-6.7908,-6.7983,-6.7626,-6.6819,-6.7607,-6.7176,-6.558,-6.5561,-6.511,-6.4322,-6.4322,-6.4303,-6.4284,-6.4284,-6.3852,-6.3139,-6.3101,-6.2595,-6.1825,-6.1806,-6.1806,-6.1731,-6.0905,-6.1074,-6.1599,-1.9807,-1.9807,-1.9807,-1.9807,-1.9807,-1.9844,-1.9949,-2.0001,-1.9996,-2.0001,-2.1519,0.0,0.0,0.0,0.0,0.0,-2.4955,-2.5808,-2.8163,-2.9684,-3.2151,-3.5841,-3.8946,-4.2049,-4.5236,-4.6359,-4.7826,-4.9709,-5.0506,-5.0633,-5.0144,-5.1194,-5.1991,-5.2498,-5.2498,-5.3096,-5.4074,-5.4074,-5.4852,-5.5884,-5.3476,-5.2661,-5.2353,-4.7246,-4.3556,-4.0739,0.0,-3.5793,-3.442,-3.3927,-3.3597,-3.3687,-3.5237,-3.5101,-3.471,-3.6512,-3.804,-3.9612,-4.1783,0.0,-4.5865,-4.8587,-5.0931,-5.3086,-5.5238,-5.6681,-5.7637,-5.7885,-5.7657,-5.7422,-5.7422,-5.7733,-5.899,-6.2085,-6.3311,-6.4123,-6.4917,-6.4595,-6.2878,-5.915,-5.8716,0.0,0.0,0.0,0.0,-6.3289,-6.4247,-6.5167,-6.6274,-6.6856,-6.742,-6.7983,-6.7476,-6.7326,-6.7589,-6.7326,-6.6631,-6.5505,-6.496,-6.4829,-6.5073,-6.4528,-6.4284,-6.4284,-6.4284,-6.3834,-6.3064,-6.2482,-6.175,-6.0942,-6.036,-6.0492,-6.0943,-6.0314,-6.0572,-6.1139,0.0,-1.9807,-1.9807,-1.9807,-1.9807,0.0,0.0,0.0,0.0,0.0,0.0,0.0,0.0,0.0,0.0,0.0,0.0,-2.5565,-2.7019,-2.8333,-3.022,-3.279,-3.5593,-3.8287,-4.0878,-4.1993,-4.3287,-4.4835,-4.6179,-4.6535,-4.6041,-4.8176,-4.8985,-4.8768,-4.9927,-5.0416,-5.0361,-5.0669,-5.1049,-5.1267,-4.8926,-4.7951,-4.7389,-4.2687,-3.9622,0.0,-3.387,-3.209,-3.1444,-3.1468,-3.1492,-3.1755,-3.3038,-3.384,-3.4519,-3.5688,-3.835,-4.1601,-4.472,-4.6948,-4.9093,-5.2051,-5.4154,-5.5946,-5.7362,-5.8151,-5.8296,-5.7467,-5.6463,-5.5527,-5.4692,-5.4333,-5.5428,-5.9138,-6.0122,-6.1178,-6.3186,-6.3243,-6.1936,-5.8864,-5.8415,-5.7928,0.0,0.0,0.0,-6.1543,-6.3252,-6.4434,-6.5035,-6.6368,-6.7382,-6.7983,-6.7213,-6.7044,-6.757,-6.6744,-6.5899,-6.5054,-6.4547,-6.4566,-6.5054,-6.4528,-6.4284,-6.4265,-6.3984,-6.3402,-6.2576,-6.1712,-6.0886,-6.0116,-5.9853,-6.0116,-6.0567,-6.032,-6.0633,-6.1052,0.0,0.0,-1.9807,0.0,0.0,0.0,0.0,0.0,0.0,0.0,0.0,0.0,0.0,0.0,0.0,0.0,0.0,0.0,-2.4836,-2.6276,-2.773,-2.9057,-3.1426,-3.3438,-3.4988,-3.6545,-3.7359,-3.7366,-3.9538,-4.0562,-4.0571,-4.3485,-4.4442,-4.3844,-4.6866,-4.7409,-4.6051,-4.6776,-4.6287,-4.4823,-4.2559,-4.0789,-3.9213,-3.6156,-3.4034,-3.2533,-3.111,-3.0124,-2.9514,-2.9412,-2.9502,-2.9764,-3.0466,-3.3585,-3.6932,-3.6861,-4.0364,-4.4689,-4.6597,-4.893,-5.1566,-5.4799,-5.6429,-5.7492,-5.8505,-5.8371,-5.754,-5.5909,-5.4245,-5.2836,0.0,0.0,-5.0392,-5.6071,-5.5844,-5.6424,-6.0605,-6.0511,-5.9696,0.0,0.0,0.0,0.0,0.0,0.0,-5.9253,0.0,-6.2576,-6.4209,-6.511,-6.6274,-6.7814,-6.7119,-6.6706,-6.6706,-6.5861,-6.5073,-6.4359,-6.4303,-6.4284,-6.4284,-6.4284,-6.4284,-6.4247,-6.3458,-6.2613,-6.1731,-6.0924,-6.0097,-5.9384,-6.021,-6.0567,-6.0586,-6.0884,-6.1172,-6.1344,0.0,0.0,0.0,0.0,0.0,0.0,0.0,0.0,0.0,0.0,0.0,0.0,0.0,0.0,0.0,0.0,0.0,0.0,-2.5094,-2.5854,-2.6472,-2.6841,-2.9005,-3.0965,-3.2553,-3.3586,-3.4648,-3.5787,-3.6362,-3.6611,-3.657,-3.7955,-3.8462,-3.824,-3.9081,-3.9557,-3.967,-3.9319,-3.994,-4.0946,-3.7992,-3.7619,-3.8456,-3.4724,-3.3142,-3.272,-3.1173,-3.0202,-2.9739,-3.0281,0.0,0.0,-3.3318,-3.5805,-3.8887,-4.0066,-4.3927,-4.8327,-5.0666,-5.3588,-5.6341,-5.7855,-5.8694,-5.902,-5.8444,-5.7401,-5.5788,-5.2908,-5.0553,-4.8188,0.0,0.0,0.0,-5.2507,-5.5328,0.0,-6.1953,-6.2811,0.0,-6.0886,0.0,-6.044,-5.9454,-5.9547,0.0,0.0,-6.1825,-6.3214,-6.4247,-6.5674,-6.6368,-6.6143,-6.5936,-6.5824,-6.5824,-6.5016,-6.4791,-6.5185,-6.4585,-6.4284,-6.4284,-6.4284,-6.4284,-6.4247,-6.3458,-6.2613,-6.1731,-6.0924,-6.0097,-5.9365,-5.982,-5.9999,-6.0066,-6.0589,-6.0821,-6.0902,0.0,0.0,0.0,0.0,0.0,0.0,0.0,0.0,0.0,0.0,0.0,0.0,0.0,0.0,0.0,0.0,0.0,0.0,0.0,-2.5482,-2.5644,-2.5644,-2.6824,-2.7913,-2.8836,-2.9288,-2.9945,-3.0767,-3.1376,-3.1644,-3.163,-3.3445,-3.4072,-3.3744,-3.4776,-3.5302,-3.5395,-3.4862,-3.5064,0.0,0.0,-3.2564,-3.3234,-3.1098,-3.0623,-3.099,-3.0449,-3.0675,-3.1386,0.0,0.0,-3.5541,-3.6526,-3.9021,-4.1941,-4.3915,0.0,-5.1693,-5.3861,-5.6744,-5.9268,-5.9536,-5.9526,-5.8815,-5.6519,-5.5144,-5.3116,-4.8799,-4.6809,0.0,-4.2081,0.0,0.0,0.0,0.0,0.0,-6.0083,-6.1765,-6.227,0.0,-6.2166,0.0,-6.114,-6.1315,-6.1647,0.0,-6.2711,-6.3308,-6.374,-6.4998,-6.5636,-6.5505,-6.5167,-6.496,-6.496,-6.4528,-6.4528,-6.496,-6.451,-6.4284,-6.4284,-6.4284,-6.4284,-6.4228,0.0,-6.2257,-6.1712,-6.0529,-5.9833,-5.9559,-5.9744,-5.9868,-6.0034,-6.052,-6.0704,-6.075,0.0,0.0,0.0,0.0,0.0,0.0,0.0,0.0,0.0,0.0,-2.343,-2.4224,0.0,0.0,0.0,0.0,0.0,0.0,0.0,0.0,-2.5191,-2.5191,-2.5191,-2.5191,-2.5191,-2.5191,-2.5156,-2.5114,-2.6332,-2.6906,-2.6881,-2.9566,-3.0435,-2.9859,-3.1879,-3.2455,-3.1842,-3.1691,-3.0876,-2.9551,-2.8179,-2.7326,-2.6823,0.0,-2.778,-2.8676,-2.9374,-3.1016,0.0,0.0,-3.6422,-3.8014,-4.0013,-4.2841,-4.5823,-4.8159,-5.1503,-5.4797,-5.6636,-5.9024,-6.084,-6.0408,-5.9449,-5.7679,-5.4161,-5.2315,-4.9854,-4.4573,0.0,-4.2441,-4.0062,-4.0081,-4.203,-4.6863,0.0,-5.1486,-5.739,-5.9472,-6.0771,-6.1822,-6.2576,-6.3072,-6.3187,-6.3016,-6.3226,-6.3987,-6.3594,-6.333,-6.3291,-6.3949,-6.4622,-6.5317,-6.466,-6.4284,-6.4284,-6.4284,-6.4284,-6.4284,-6.4284,-6.4284,-6.4284,-6.4284,-6.4284,-6.4209,0.0,0.0,-6.1732,-6.0172,-5.9634,-5.9855,-5.9899,-6.0063,-6.03,-6.0618,-6.075,-6.0773,0.0,0.0,0.0,0.0,0.0,0.0,0.0,0.0,0.0,0.0,-2.3736,-2.4202,0.0,0.0,0.0,0.0,0.0,0.0,0.0,0.0,0.0,-2.5191,-2.5191,-2.5191,-2.5191,-2.5191,-2.518,-2.5168,0.0,-2.5514,-2.5454,-2.5982,-2.6109,-2.588,-2.6314,-2.6412,-2.628,-2.6185,-2.6051,-2.5827,-2.544,-2.5684,-2.6312,-2.7022,0.0,0.0,-2.8661,0.0,0.0,-3.5291,-3.8729,-4.1896,-4.4013,-4.7095,-5.0324,-5.2755,-5.5121,-5.7423,-5.949,-6.093,-6.1788,-6.1368,-5.9457,-5.6948,-5.4306,-5.0423,0.0,0.0,-4.0807,-3.9051,-3.6566,-3.8935,-4.2488,-4.6137,0.0,0.0,0.0,0.0,-6.123,0.0,0.0,0.0,0.0,0.0,0.0,0.0,0.0,-6.4519,-6.4351,-6.4328,-6.4359,-6.4491,-6.4359,-6.4284,-6.4284,-6.4284,-6.4284,-6.4284,-6.4284,-6.4284,-6.4284,-6.4284,-6.4284,-6.4247,-6.3289,0.0,-6.2132,-6.113,-6.0475,-6.0161,-6.0444,-6.0589,-6.0661,-6.0922,-6.1022,-6.1041,0.0,0.0,0.0,0.0,0.0,0.0,0.0,-2.3027,-2.3752,-2.4172,-2.4731,-2.5076,-2.4993,-2.5095,-2.5151,0.0,0.0,0.0,0.0,0.0,0.0,0.0,0.0,0.0,0.0,0.0,0.0,0.0,0.0,0.0,0.0,0.0,0.0,0.0,-2.5057,-2.5057,-2.5057,-2.4966,-2.4972,-2.498,-2.4851,-2.5064,-2.5565,0.0,0.0,0.0,0.0,0.0,0.0,-3.3956,-3.8111,-4.2742,-4.6136,-4.9363,-5.2233,-5.4094,-5.637,-5.8694,-6.0555,-6.2126,-6.2993,-6.1917,-5.9381,-5.5964,-5.1452,0.0,0.0,0.0,-3.7578,-3.6661,-3.5439,0.0,0.0,0.0,0.0,0.0,0.0,0.0,0.0,0.0,0.0,0.0,0.0,0.0,0.0,0.0,0.0,0.0,-6.4745,-6.4671,-6.4558,-6.4443,-6.4443,-6.4403,-6.4284,-6.4284,-6.4284,-6.4284,-6.4284,-6.4284,-6.4284,-6.4284,-6.4284,-6.4247,-6.3458,0.0,-6.2254,-6.1349,-6.0795,-6.0476,-6.0638,-6.0773,-6.0922,-6.1041,-6.1099,-6.1099,0.0,0.0,0.0,0.0,0.0,0.0,-2.2398,-2.315,-2.3842,-2.4595,-2.5397,-2.5622,-2.4936,-2.5137,-2.5266,0.0,0.0,0.0,0.0,0.0,0.0,0.0,0.0,0.0,0.0,0.0,0.0,0.0,0.0,0.0,0.0,0.0,0.0,0.0,0.0,0.0,0.0,-2.5126,-2.5114,0.0,0.0,0.0,0.0,0.0,0.0,0.0,0.0,0.0,0.0,0.0,-3.626,-4.1068,-4.5369,-4.9334,-5.2679,-5.4065,-5.654,-5.9275,-6.1144,-6.2956,-6.389,-6.2219,-5.8933,-5.4608,-4.8862,-4.431,0.0,0.0,-3.519,-3.4999,-3.5171,0.0,-3.8285,0.0,-4.266,0.0,0.0,0.0,0.0,0.0,0.0,0.0,0.0,0.0,0.0,0.0,0.0,0.0,-6.4907,-6.4907,-6.4836,-6.4671,-6.4634,-6.4558,-6.4443,-6.4324,-6.4324,-6.4364,-6.4324,-6.4284,-6.4284,-6.4284,-6.4209,-6.4003,-6.3424,0.0,0.0,-6.1451,-6.1037,-6.0773,-6.0773,-6.0922,-6.1099,-6.1099,-6.1099,-6.1099,0.0,0.0,0.0,0.0,0.0,0.0,-2.3145,-2.3464,-2.3802,-2.4595,-2.4779,-2.4798,-2.4723,-2.5536,-2.5773,0.0,0.0,0.0,0.0,0.0,0.0,0.0,0.0,0.0,0.0,0.0,0.0,0.0,0.0,0.0,0.0,0.0,0.0,0.0,0.0,0.0,0.0,0.0,0.0,0.0,0.0,0.0,0.0,0.0,0.0,0.0,0.0,0.0,0.0,0.0,0.0,-3.6132,-3.9524,-4.5629,-5.186,-5.3479,0.0,0.0,-6.2176,-6.3608,-6.389,-6.2219,-5.7638,-5.2634,-4.9164,0.0,-3.7562,-3.6571,-3.5171,-3.4331,-3.5076,-3.5974,-3.7445,-4.0005,-4.182,-4.501,0.0,0.0,0.0,0.0,0.0,0.0,0.0,0.0,0.0,0.0,0.0,0.0,-6.4907,-6.4907,-6.4907,-6.4872,-6.4708,-6.4671,-6.4817,-6.4481,-6.4403,-6.4558,-6.4403,-6.4284,-6.4284,-6.4284,-6.389,-6.3195,-6.3406,0.0,0.0,-6.1754,-6.1524,-6.1061,-6.1061,-6.108,-6.1099,-6.1099,-6.1099,-6.1099,0.0,0.0,0.0,0.0,0.0,0.0,-2.2605,-2.3201,-2.3787,-2.4595,-2.5158,-2.5271,-2.4764,-2.554,-2.5752,-2.4913,-2.4874,0.0,0.0,0.0,0.0,0.0,0.0,0.0,0.0,0.0,0.0,0.0,0.0,0.0,0.0,0.0,0.0,0.0,0.0,0.0,0.0,0.0,0.0,0.0,0.0,0.0,0.0,0.0,0.0,0.0,0.0,0.0,0.0,0.0,0.0,0.0,-3.4226,-3.8422,0.0,0.0,-5.1908,-5.5249,-5.8914,-6.1316,-6.2388,-6.0698,-5.5999,-5.0922,-4.7737,0.0,-3.578,-3.5138,-3.3662,-3.2745,-3.3547,-3.4407,-3.5496,-3.6986,-3.7789,-4.0291,-4.6214,0.0,0.0,0.0,0.0,0.0,0.0,0.0,0.0,0.0,0.0,0.0,-6.4521,-6.4959,-6.4913,-6.4339,-6.4708,-6.4886,-6.4907,-6.4745,-6.4708,-6.4781,-6.4708,-6.4407,-6.3879,-6.4426,-6.4253,-6.3596,-6.3674,0.0,0.0,-6.2175,-6.1695,-6.1227,-6.1227,-6.1227,-6.1227,-6.1227,-6.1227,-6.1227,0.0,0.0,0.0,0.0,0.0,-2.1028,-2.2135,-2.2774,-2.3525,-2.4557,-2.5233,-2.5383,-2.4782,-2.5252,-2.5396,-2.4821,-2.4804,0.0,0.0,0.0,0.0,0.0,0.0,0.0,0.0,0.0,-2.5113,-2.5113,-2.5113,0.0,0.0,0.0,0.0,0.0,0.0,0.0,0.0,0.0,0.0,0.0,0.0,0.0,0.0,0.0,0.0,0.0,0.0,0.0,0.0,0.0,0.0,0.0,0.0,-3.2327,-3.5816,0.0,-4.7534,-5.1499,-5.5375,-5.8522,-6.036,-5.8933,-5.4322,-4.9267,0.0,0.0,-3.4464,-3.3761,-3.2497,-3.1828,-3.2898,-3.3586,-3.4254,-3.5076,-3.542,-3.7483,-4.2889,-4.4074,0.0,0.0,0.0,0.0,0.0,0.0,0.0,0.0,0.0,0.0,0.0,-6.4344,-6.4436,-6.3988,-6.4242,-6.4576,-6.5061,-6.4677,-6.4677,-6.4958,-6.4677,-6.4152,-6.3549,-6.3994,-6.3788,-6.3092,0.0,0.0,0.0,-6.2063,-6.164,-6.1297,-6.1297,-6.1297,-6.1297,-6.1297,-6.1297,-6.1297,0.0,0.0,0.0,0.0,0.0,-2.037,-2.206,-2.2304,-2.2886,-2.4501,-2.4707,-2.4707,-2.4707,-2.4707,-2.4707,-2.4707,-2.4707,0.0,0.0,0.0,0.0,0.0,0.0,0.0,-2.4902,-2.4902,-2.4902,-2.4902,-2.4902,-2.498,-2.5101,-2.498,0.0,0.0,0.0,0.0,0.0,0.0,0.0,0.0,0.0,0.0,0.0,0.0,0.0,0.0,0.0,0.0,0.0,0.0,0.0,0.0,0.0,-2.8414,-2.9384,-3.7504,-4.3907,-4.9077,-5.2429,-5.5679,-5.7957,-5.7131,-5.2648,-4.7589,0.0,0.0,-3.3589,-3.2867,-3.2076,-3.2019,-3.3681,-3.3987,-3.4254,-3.5076,-3.5935,-3.798,-4.2221,0.0,0.0,0.0,0.0,0.0,0.0,0.0,0.0,0.0,0.0,0.0,0.0,-6.293,-6.3331,-6.4172,-6.318,-6.3511,-6.5394,-6.4206,-6.412,-6.5085,-6.4067,-6.3495,-6.3294,-6.2758,-6.2015,0.0,0.0,0.0,0.0,-6.1171,-6.1317,-6.1297,-6.1297,-6.1297,-6.1297,-6.1297,-6.1297,-6.1314,0.0,0.0,0.0,0.0,0.0,0.0,-2.2849,-2.3112,-2.3487,-2.4557,-2.4707,-2.4707,-2.4707,-2.4707,-2.4707,-2.4707,-2.4707,0.0,0.0,0.0,0.0,0.0,0.0,0.0,-2.4837,-2.4874,-2.5186,-2.5778,-2.5778,-2.5811,-2.5858,-2.5811,-2.5489,-2.4961,0.0,0.0,0.0,0.0,0.0,0.0,0.0,0.0,0.0,0.0,0.0,0.0,0.0,0.0,0.0,0.0,0.0,0.0,0.0,0.0,0.0,-3.1245,-3.5989,-4.0844,-4.4576,-4.7269,-4.8815,-4.7966,-4.4726,-4.1348,-3.98,-3.5702,-3.2145,-3.1928,-3.1197,-3.0758,-3.1312,-3.2344,-3.3566,-3.498,-3.6394,-3.84,0.0,0.0,0.0,0.0,0.0,0.0,0.0,0.0,0.0,0.0,0.0,0.0,0.0,-6.2338,-6.2147,-6.2414,-6.3234,-6.3673,-6.3694,-6.3909,-6.3879,-6.3585,-6.3257,-6.2788,-6.2166,-6.271,0.0,0.0,0.0,0.0,0.0,-6.1574,-6.1356,-6.1356,-6.1356,-6.1356,-6.1356,-6.1356,-6.1356,-6.1356,0.0,0.0,0.0,0.0,0.0,0.0,-2.3239,-2.3502,-2.3787,-2.4595,-2.4707,-2.4707,-2.4707,-2.4707,-2.4707,-2.4707,-2.4707,0.0,0.0,0.0,0.0,0.0,0.0,0.0,-2.4749,-2.4808,-2.5253,-2.6122,-2.6122,-2.6291,-2.6624,-2.6594,-2.614,-2.5352,-2.5324,-2.5154,0.0,0.0,0.0,0.0,0.0,0.0,-2.4794,0.0,0.0,0.0,0.0,0.0,0.0,0.0,0.0,0.0,0.0,0.0,0.0,0.0,-3.0113,-3.3558,-3.8474,-4.1321,-4.2862,-4.2654,-4.04,-3.7945,-3.6825,0.0,-3.1408,-3.1083,-3.0586,-3.0395,-3.1026,-3.2,-3.3245,-3.4942,-3.6356,-3.8132,0.0,0.0,0.0,0.0,0.0,0.0,0.0,0.0,0.0,0.0,0.0,0.0,0.0,-6.1612,-6.1153,-6.1153,-6.2185,-6.2796,-6.2911,-6.3102,-6.3102,-6.2911,-6.2653,-6.2193,-6.163,-6.2175,0.0,0.0,0.0,0.0,0.0,-6.1633,-6.14,-6.14,-6.14,-6.14,-6.14,-6.14,-6.14,-6.14,0.0,0.0,0.0,0.0,0.0,0.0,0.0,-2.3566,-2.3844,-2.4598,-2.4692,-2.4707,-2.4707,-2.4707,-2.4707,-2.4707,-2.4707,0.0,0.0,0.0,0.0,0.0,0.0,-2.4707,-2.4707,-2.4707,-2.5158,-2.6094,-2.6151,-2.6634,-2.7474,-2.7464,-2.6994,-2.617,-2.6107,-2.56,0.0,0.0,0.0,0.0,0.0,-2.4794,0.0,0.0,0.0,0.0,0.0,0.0,0.0,0.0,0.0,0.0,0.0,0.0,0.0,0.0,0.0,0.0,0.0,-3.722,-3.9236,-4.0106,-3.8622,-3.6578,-3.502,0.0,0.0,-3.0376,-3.0204,-3.0701,-3.2386,-3.2691,-3.3283,-3.5095,-3.6165,0.0,0.0,0.0,0.0,0.0,0.0,0.0,0.0,0.0,0.0,0.0,0.0,0.0,0.0,-6.0828,-6.0389,-6.0389,-6.0389,-6.1153,-6.272,-6.1975,-6.1975,-6.272,-6.2099,-6.1703,-6.1521,-6.1248,0.0,0.0,0.0,0.0,0.0,-6.14,-6.14,-6.14,-6.14,-6.14,-6.14,-6.14,-6.14,-6.14,0.0,0.0,0.0,0.0,0.0,0.0,0.0,0.0,0.0,0.0,-2.4645,-2.4707,-2.4707,-2.4707,-2.4707,0.0,0.0,0.0,0.0,0.0,0.0,0.0,-2.4707,-2.4707,-2.4707,-2.4707,-2.544,-2.6923,-2.7542,-2.8275,-2.9156,-2.9739,-2.8932,-2.6937,-2.694,-2.6113,0.0,0.0,0.0,0.0,-2.4779,-2.4764,0.0,0.0,0.0,0.0,-2.4707,-2.4707,0.0,0.0,0.0,0.0,0.0,0.0,0.0,0.0,-2.5412,-2.5888,-2.8107,0.0,-3.1664,-3.2537,-3.2324,-3.1802,0.0,-3.0897,0.0,0.0,0.0,0.0,0.0,-3.2691,-3.3681,-3.6623,-3.84,0.0,0.0,0.0,0.0,0.0,0.0,0.0,0.0,0.0,0.0,0.0,0.0,0.0,0.0,-6.0828,-6.0389,-6.0389,-6.0389,-6.058,-6.0981,-6.1382,-6.1382,-6.0981,-6.093,-6.0872,-6.0852,-6.1021,0.0,0.0,0.0,0.0,-6.14,-6.14,-6.14,-6.14,-6.14,-6.14,-6.14,-6.14,-6.14,-6.14,0.0,0.0,0.0,0.0,0.0,0.0,0.0,0.0,0.0,0.0,-2.4642,-2.4707,-2.4707,-2.4707,-2.4707,0.0,0.0,0.0,0.0,0.0,0.0,-2.4707,-2.4707,-2.4707,-2.4707,-2.4707,-2.5515,-2.7204,-2.7636,-2.8669,-3.0246,-3.0321,-2.942,-2.7711,-2.6566,-2.5552,0.0,0.0,0.0,0.0,-2.4753,0.0,0.0,0.0,0.0,0.0,-2.4707,-2.4707,0.0,-2.4734,-2.4749,-2.4783,0.0,0.0,0.0,0.0,-2.5012,-2.5196,-2.6072,-2.7546,-2.9065,-2.9899,-3.0384,-3.0674,-3.0674,-3.0399,0.0,0.0,0.0,0.0,0.0,0.0,0.0,0.0,0.0,0.0,0.0,0.0,0.0,0.0,0.0,0.0,0.0,0.0,0.0,0.0,0.0,0.0,0.0,-6.0637,-6.0389,-6.0389,-6.0389,-6.0389,-6.0389,-6.0828,-6.0828,-6.0389,-6.0628,-6.075,-6.075,-6.1077,-6.1252,0.0,0.0,0.0,-6.14,-6.14,-6.14,-6.14,-6.14,-6.14,-6.14,-6.14,-6.14,-6.14,0.0,0.0,0.0,0.0,0.0,0.0,0.0,0.0,0.0,0.0,0.0,0.0,0.0,0.0,0.0,0.0,0.0,0.0,0.0,0.0,-2.4707,-2.4707,-2.4707,-2.4764,-2.4895,-2.4782,-2.5515,-2.7204,-2.7467,-2.8725,-3.0884,-3.0584,-2.9795,-2.8482,-2.6022,-2.482,-2.4707,-2.4707,-2.4707,-2.4707,-2.4707,0.0,0.0,0.0,0.0,0.0,0.0,0.0,0.0,-2.4707,-2.4707,-2.4707,-2.4783,0.0,0.0,0.0,0.0,0.0,-2.6266,-2.7831,-2.9247,-2.9696,-3.0522,-3.1174,-3.1042,0.0,0.0,0.0,0.0,0.0,0.0,0.0,0.0,0.0,0.0,0.0,0.0,0.0,0.0,0.0,0.0,0.0,0.0,0.0,0.0,0.0,0.0,0.0,0.0,-6.0389,-6.0389,-6.0389,-6.0389,-6.0389,-6.0389,-6.0389,-6.0417,-6.0425,-6.0746,-6.0902,-6.0943,-6.1255,-6.14,0.0,0.0,0.0,-6.14,-6.14,-6.14,-6.14,-6.14,-6.14,-6.14,-6.14,-6.14,-6.14,0.0,0.0,0.0,0.0,0.0,0.0,0.0,0.0,0.0,0.0,0.0,0.0,0.0,0.0,0.0,0.0,0.0,0.0,0.0,-2.4707,-2.4707,-2.4707,-2.4707,-2.5045,-2.5794,-2.5083,-2.5515,-2.7204,-2.8612,-2.987,-3.094,-3.2912,-3.2292,-2.9382,-2.6921,-2.5383,-2.4707,-2.4707,-2.4707,-2.4707,-2.4707,0.0,0.0,0.0,0.0,0.0,0.0,0.0,0.0,-2.4707,-2.4707,-2.4707,-2.4723,0.0,0.0,0.0,0.0,0.0,-2.768,-2.9444,-3.0371,-2.9185,-3.0073,-3.1023,-3.0267,-3.0,0.0,0.0,0.0,0.0,0.0,0.0,0.0,0.0,0.0,0.0,0.0,0.0,0.0,0.0,0.0,0.0,0.0,0.0,0.0,0.0,0.0,0.0,0.0,0.0,-6.0389,-6.0389,-6.0389,-6.0389,-6.0389,-6.0389,-6.046,-6.0584,-6.0795,-6.0963,-6.1076,-6.1302,-6.14,0.0,0.0,-6.14,-6.14,-6.14,-6.14,-6.14,-6.14,-6.14,-6.14,-6.14,-6.14,-6.14,0.0,0.0,0.0,0.0,0.0,0.0,0.0,0.0,0.0,0.0,0.0,0.0,0.0,0.0,0.0,0.0,0.0,0.0,0.0,-2.4707,-2.4707,-2.4707,-2.4707,-2.4895,-2.5289,-2.5364,-2.6209,-2.7862,-2.9082,-3.0584,-3.2255,-3.2048,-3.0659,-2.8256,-2.6209,-2.5083,-2.4707,-2.4707,-2.4707,-2.4707,0.0,0.0,0.0,0.0,0.0,0.0,0.0,0.0,0.0,0.0,-2.4707,-2.4707,-2.4707,0.0,0.0,0.0,0.0,0.0,-2.6211,-2.8041,-2.9418,-2.8699,-3.0808,-3.2694,-3.1393,-3.1147,0.0,0.0,0.0,0.0,0.0,0.0,0.0,0.0,0.0,0.0,0.0,0.0,0.0,0.0,0.0,0.0,0.0,0.0,0.0,0.0,0.0,0.0,0.0,0.0,-6.0389,-6.0389,-6.0389,-6.0425,-6.052,-6.0073,-6.0105,-6.0589,-6.0439,-6.0634,-6.1092,-6.0817,-6.0953,-6.14,0.0,-6.1128,-6.074,-6.1206,-6.1128,-6.074,-6.1225,-6.14,-6.14,-6.14,-6.14,-6.14,0.0,0.0,0.0,0.0,0.0,0.0,0.0,0.0,0.0,0.0,0.0,0.0,0.0,0.0,0.0,0.0,0.0,0.0,0.0,-2.4676,-2.4692,-2.4642,-2.4692,-2.4876,-2.5289,-2.5756,-2.6791,-2.8388,-2.927,-3.0865,-3.3062,-3.0772,-2.9026,-2.7693,-2.5834,-2.5008,-2.4989,-2.4801,-2.4707,-2.4707,0.0,0.0,0.0,0.0,0.0,0.0,0.0,0.0,0.0,0.0,0.0,0.0,0.0,0.0,0.0,-2.4707,-2.4707,-2.4839,-2.5421,-2.7093,-2.8745,-2.8932,-3.1391,-3.355,-3.2856,-3.2766,0.0,0.0,0.0,0.0,0.0,0.0,0.0,0.0,0.0,0.0,0.0,0.0,0.0,0.0,0.0,0.0,0.0,0.0,0.0,0.0,0.0,0.0,0.0,0.0,-5.9892,-6.0083,-6.0102,-6.0078,-6.0013,-5.9657,-5.9777,-6.0442,-5.9862,-5.993,-6.0544,-6.0017,-6.0157,-6.0798,-6.0798,-6.0409,-5.9846,-6.0526,-6.0409,-5.9865,-6.0526,-6.0914,-6.1109,-6.1109,-6.1109,-6.1109,0.0,0.0,0.0,0.0,0.0,0.0,0.0,0.0,0.0,0.0,0.0,0.0,0.0,0.0,0.0,0.0,0.0,0.0,-2.4339,-2.4564,-2.4642,-2.4528,-2.4626,-2.544,-2.6998,-2.6357,-2.6791,-2.8388,-2.927,-3.0565,-3.2161,-3.0471,-2.9626,-2.9401,-2.6996,-2.5906,-2.585,-2.5045,-2.4707,-2.4707,-2.4707,0.0,0.0,0.0,0.0,0.0,0.0,0.0,0.0,0.0,0.0,0.0,0.0,0.0,-2.4707,-2.4707,-2.4707,-2.5214,-2.7506,-2.8857,-2.9795,-3.0546,-3.094,-3.1748,-3.3926,-3.4435,0.0,-3.6521,0.0,0.0,0.0,0.0,0.0,0.0,0.0,0.0,0.0,0.0,0.0,0.0,0.0,0.0,0.0,0.0,0.0,0.0,0.0,0.0,0.0,0.0,0.0,-5.9185,-5.9205,-5.891,-5.8304,-5.9155,-5.9727,-5.9936,-5.9102,-5.8781,-5.8958,-5.8933,-5.8933,-5.8991,-5.8991,-5.8952,-5.8894,-5.8952,-5.8952,-5.8894,-5.8952,-5.9477,-6.0196,-6.0196,-6.0196,-6.0196,0.0,0.0,0.0,0.0,0.0,0.0,0.0,0.0,0.0,0.0,0.0,0.0,0.0,0.0,0.0,0.0,0.0,0.0,-2.4321,-2.4461,-2.4545,-2.4512,-2.4626,-2.5252,-2.6432,-2.6641,-2.7298,-2.8388,-3.0283,-3.1241,-3.1335,-2.9664,-2.8894,-2.8781,-2.6303,-2.5477,-2.5944,-2.5064,-2.4707,-2.4707,-2.4707,-2.4707,0.0,0.0,0.0,0.0,0.0,0.0,0.0,0.0,-2.4707,-2.4707,-2.4707,-2.4707,-2.4707,-2.4707,-2.4707,-2.4914,-2.5853,-2.7862,-2.9758,-3.0077,-3.1692,0.0,0.0,-3.6592,-3.8169,-3.9821,-4.1886,0.0,0.0,0.0,0.0,0.0,0.0,0.0,0.0,0.0,0.0,0.0,0.0,0.0,0.0,0.0,0.0,0.0,0.0,0.0,0.0,0.0,0.0,-5.8345,-5.8345,-5.8279,-5.8093,-5.806,-5.8143,-5.8267,-5.8075,-5.827,-5.8778,-5.8273,-5.8331,-5.8797,-5.8797,-5.8525,-5.8078,-5.8583,-5.8506,-5.8098,-5.8603,-5.9011,-5.9283,-5.9283,-5.9283,-5.938,0.0,0.0,0.0,0.0,0.0,0.0,0.0,0.0,0.0,0.0,0.0,0.0,0.0,0.0,0.0,0.0,0.0,0.0,-2.4247,-2.4392,-2.4478,-2.4426,-2.458,-2.4907,-2.5504,-2.631,-2.7153,-2.8013,-2.9983,-3.0527,-2.972,-2.882,-2.8388,-2.8313,-2.636,-2.5965,-2.6679,-2.5571,-2.5102,-2.5083,-2.482,-2.4707,0.0,0.0,0.0,0.0,0.0,0.0,0.0,0.0,-2.4707,-2.4707,-2.4707,-2.4707,-2.4707,-2.4707,-2.4707,-2.4764,-2.5045,-2.696,-2.9044,-2.957,0.0,0.0,-3.7005,-3.9164,-4.1436,-4.3876,-4.5303,0.0,0.0,0.0,0.0,0.0,0.0,0.0,0.0,0.0,0.0,0.0,0.0,0.0,0.0,0.0,0.0,0.0,0.0,0.0,0.0,0.0,0.0,0.0,-5.7485,-5.7436,-5.7305,-5.7174,-5.7042,-5.6892,-5.7091,-5.7476,-5.7981,-5.7437,-5.7496,-5.802,-5.802,-5.769,-5.7224,-5.7787,-5.769,-5.7243,-5.7806,-5.8176,-5.8428,-5.8428,-5.8428,-5.8506,0.0,0.0,0.0,0.0,0.0,0.0,0.0,0.0,-2.3795,-2.3795,-2.3795,0.0,0.0,0.0,0.0,0.0,0.0,0.0,-2.4113,-2.4338,-2.4426,-2.4303,-2.4426,-2.4495,-2.4495,-2.5277,-2.6186,-2.7204,-2.7994,-2.7975,-2.7223,-2.8013,-2.8388,-2.8351,-2.7561,-2.7636,-2.8276,-2.666,-2.6,-2.5906,-2.5045,-2.4707,-2.4707,0.0,0.0,0.0,0.0,0.0,0.0,0.0,-2.4707,-2.4707,-2.4707,-2.4707,-2.4707,-2.4707,-2.4707,-2.4895,-2.5775,-2.6585,-2.7636,0.0,0.0,0.0,-3.9896,-4.213,-4.4496,-4.8683,0.0,0.0,0.0,0.0,0.0,0.0,0.0,0.0,0.0,0.0,0.0,0.0,0.0,0.0,0.0,0.0,0.0,0.0,0.0,0.0,0.0,0.0,0.0,0.0,-5.6568,-5.625,-5.5577,-5.6576,-5.6714,-5.5982,-5.6179,-5.6272,-5.6291,-5.6291,-5.6291,-5.6291,-5.6291,-5.6291,-5.6291,-5.6291,-5.6291,-5.6291,-5.6291,-5.6835,-5.7593,-5.7593,-5.7593,-5.7593,0.0,0.0,0.0,0.0,0.0,0.0,0.0,0.0,-2.3795,-2.3795,-2.3917,0.0,0.0,0.0,0.0,0.0,0.0,0.0,-2.3896,-2.4114,-2.4191,-2.4171,-2.4284,-2.4392,-2.4495,-2.4837,-2.571,-2.7204,-2.7448,-2.743,-2.7204,-2.7448,-2.7862,-2.8332,-2.696,-2.6791,-2.7431,-2.5695,-2.5003,-2.5064,-2.4706,-2.4629,-2.4707,0.0,0.0,0.0,0.0,0.0,0.0,0.0,0.0,0.0,-2.4707,-2.512,-2.5477,-2.4876,-2.512,-2.5681,-2.5925,-2.7466,0.0,0.0,0.0,0.0,0.0,-4.4195,0.0,0.0,0.0,0.0,0.0,0.0,0.0,0.0,0.0,0.0,0.0,0.0,0.0,0.0,0.0,0.0,0.0,0.0,0.0,0.0,0.0,0.0,0.0,0.0,0.0,0.0,-5.483,-5.4508,-5.3769,-5.4207,-5.4357,-5.4239,-5.4394,-5.5106,-5.6291,-5.6291,-5.6291,-5.6291,-5.6291,-5.6291,-5.6291,-5.6291,-5.6291,-5.6291,-5.6291,-5.6466,-5.668,-5.668,-5.668,-5.6758,0.0,0.0,0.0,0.0,0.0,0.0,0.0,0.0,-2.3795,-2.3795,-2.3896,-2.3937,0.0,0.0,0.0,0.0,0.0,0.0,-2.3917,-2.4016,-2.4094,-2.4094,-2.419,-2.4247,-2.4338,-2.4528,-2.5115,-2.6143,-2.6531,-2.6547,-2.6228,-2.7154,-2.7715,-2.7882,-2.719,-2.7171,-2.7544,-2.5826,-2.5132,-2.5177,-2.476,-2.4645,-2.4707,0.0,0.0,0.0,0.0,0.0,0.0,0.0,0.0,0.0,-2.4707,-2.5064,-2.5383,-2.4858,-2.5308,-2.6151,-2.6773,-2.8537,0.0,0.0,0.0,0.0,0.0,0.0,0.0,0.0,0.0,0.0,0.0,0.0,0.0,0.0,0.0,0.0,0.0,0.0,0.0,0.0,0.0,0.0,0.0,0.0,0.0,0.0,0.0,0.0,0.0,0.0,0.0,0.0,-5.3569,-5.3403,-5.3001,-5.3243,-5.3423,-5.3503,-5.3637,-5.4252,-5.5262,-5.5262,-5.5262,-5.5262,-5.5262,-5.5262,-5.5281,-5.5631,-5.5786,-5.5825,-5.6155,-5.6291,-5.6291,-5.6291,-5.6291,-5.6369,0.0,0.0,-2.1839,-2.2582,0.0,0.0,0.0,0.0,-2.3795,-2.3795,-2.3795,-2.3795,0.0,0.0,0.0,0.0,0.0,0.0,-2.4074,-2.4074,-2.4074,-2.4074,-2.4094,-2.4094,-2.4094,-2.4356,-2.4495,-2.4495,-2.5429,-2.5477,-2.4764,-2.7009,-2.7774,-2.7242,-2.7811,-2.8147,-2.8182,-2.6533,-2.5855,-2.5812,-2.4976,-2.4676,-2.4692,-2.4692,0.0,0.0,0.0,0.0,0.0,0.0,0.0,0.0,-2.4707,-2.4745,-2.4801,-2.4726,-2.5308,-2.6376,-2.8068,0.0,0.0,0.0,0.0,0.0,0.0,0.0,0.0,0.0,0.0,0.0,0.0,0.0,0.0,0.0,0.0,0.0,0.0,0.0,0.0,0.0,0.0,0.0,0.0,0.0,0.0,0.0,0.0,0.0,0.0,0.0,0.0,0.0,-5.2614,-5.2702,-5.2698,-5.3005,-5.3116,0.0,-5.3185,-5.3242,-5.3242,-5.3553,-5.3689,-5.3689,-5.3689,-5.3689,-5.3747,-5.4543,-5.4873,-5.4971,-5.5747,-5.6117,-5.6175,-5.6097,-5.6155,-5.6291,0.0,0.0,-2.251,-2.2672,0.0,0.0,0.0,0.0,0.0,-2.3795,0.0,0.0,0.0,0.0,0.0,0.0,0.0,0.0,-2.3858,-2.3858,-2.3858,-2.3858,-2.4016,-2.4094,-2.4094,-2.4356,-2.4495,-2.4495,-2.4813,-2.4876,-2.4745,-2.6394,-2.7177,-2.7187,-2.7083,-2.7177,-2.7337,-2.5356,-2.4688,-2.4936,-2.4554,-2.4462,-2.4545,-2.466,-2.4626,0.0,0.0,0.0,0.0,0.0,0.0,0.0,-2.4707,-2.5177,-2.5606,-2.4895,-2.5308,-2.6507,0.0,-3.0152,0.0,0.0,0.0,0.0,0.0,0.0,0.0,0.0,0.0,0.0,0.0,0.0,0.0,0.0,0.0,0.0,0.0,0.0,0.0,0.0,0.0,0.0,0.0,0.0,0.0,0.0,0.0,0.0,0.0,0.0,0.0,-5.1744,-5.182,-5.1369,-5.0342,-5.0457,-5.0234,0.0,-4.9676,-4.9707,-4.9784,-5.2484,-5.3689,-5.3689,-5.3689,-5.3689,-5.3708,-5.3902,-5.398,-5.3999,-5.4194,-5.4679,-5.5204,-5.4504,-5.5126,-5.6194,0.0,0.0,0.0,0.0,0.0,0.0,0.0,0.0,0.0,0.0,0.0,0.0,0.0,0.0,0.0,0.0,-2.3795,-2.3795,-2.3795,-2.3795,-2.3795,-2.3795,-2.3896,-2.3976,-2.3976,-2.4192,-2.4321,-2.4321,-2.4426,-2.4528,-2.4631,-2.6061,-2.6801,-2.6954,-2.6782,-2.6801,-2.6842,-2.5114,-2.4426,-2.4513,-2.4428,-2.4426,-2.4512,-2.4578,-2.4594,-2.4594,-2.4657,0.0,0.0,0.0,0.0,0.0,0.0,0.0,-2.5289,-2.4839,-2.5308,-2.6451,0.0,0.0,0.0,0.0,0.0,0.0,0.0,0.0,0.0,0.0,0.0,0.0,0.0,0.0,0.0,0.0,0.0,0.0,0.0,0.0,0.0,0.0,0.0,0.0,0.0,0.0,0.0,0.0,0.0,0.0,0.0,-4.9868,-4.9617,-4.962,-4.9698,-4.9509,-4.9025,-4.9116,-4.8974,-4.8599,-4.8599,-4.8599,-4.8677,-5.0872,-5.1882,-5.1901,-5.2309,-5.2271,-5.194,-5.2756,-5.3086,-5.3125,-5.3533,-5.398,-5.431,-5.3863,-5.4288,-5.508,0.0,0.0,0.0,0.0,0.0,0.0,0.0,0.0,0.0,0.0,0.0,0.0,0.0,0.0,0.0,0.0,0.0,0.0,-2.3795,-2.3795,-2.3795,-2.3795,-2.3795,-2.3795,-2.3795,-2.3996,-2.4094,-2.4094,-2.4209,-2.4469,-2.4873,-2.5991,-2.6646,-2.6907,-2.6696,-2.6661,-2.6613,-2.5167,-2.4444,-2.4303,-2.4409,-2.4444,-2.4444,-2.4512,-2.4561,-2.4594,-2.466,-2.4676,-2.4676,-2.4676,0.0,0.0,0.0,0.0,-2.4707,-2.4707,-2.5214,-2.6153,0.0,0.0,0.0,0.0,0.0,0.0,0.0,0.0,0.0,0.0,0.0,0.0,0.0,0.0,0.0,0.0,0.0,0.0,0.0,0.0,0.0,0.0,0.0,0.0,0.0,0.0,0.0,0.0,0.0,0.0,-4.8025,-4.7988,-4.789,-4.7632,-4.7668,-4.7857,-4.8178,-4.8315,-4.8305,-4.8153,-4.8153,-4.823,-4.8405,-4.9124,-4.9532,-4.9707,-5.0445,-5.0425,-4.9998,-5.1222,-5.1921,-5.2251,-5.2814,-5.3222,-5.3455,-5.3319,-5.3494,-5.3847,0.0,0.0,0.0,0.0,0.0,0.0,0.0,0.0,0.0,0.0,-2.3795,-2.3795,0.0,0.0,-2.3795,-2.3795,-2.3795,-2.3795,-2.3795,0.0,0.0,-2.3795,-2.3795,-2.3795,-2.3795,-2.3996,-2.4094,-2.4094,-2.4113,-2.4847,-2.624,-2.6435,-2.694,-2.7696,-2.6717,-2.6432,-2.6573,-2.4716,-2.4058,-2.4303,-2.4321,-2.4247,-2.4191,-2.4528,-2.4461,-2.421,-2.4444,-2.4528,-2.4528,-2.4528,-2.4594,0.0,0.0,0.0,-2.4707,-2.4707,-2.4782,-2.5402,0.0,0.0,0.0,0.0,0.0,0.0,0.0,0.0,0.0,0.0,0.0,0.0,0.0,0.0,0.0,0.0,0.0,0.0,0.0,0.0,0.0,0.0,0.0,0.0,0.0,0.0,0.0,0.0,0.0,0.0,-4.7181,-4.7162,-4.7332,-4.7681,-4.7712,-4.7587,-4.7366,-4.7442,-4.709,-4.6346,-4.6346,-4.6735,-4.7473,-4.7589,-4.8055,-4.8774,-4.8891,-4.9299,-4.9862,-4.9337,-4.9998,-5.1299,-5.0658,-5.128,-5.2484,-5.1785,-5.2457,-5.3627,0.0,0.0,0.0,0.0,0.0,0.0,0.0,0.0,0.0,0.0,0.0,-2.3795,0.0,-2.3795,-2.3795,-2.3795,-2.3795,-2.3795,-2.3795,-2.3795,-2.3795,-2.3795,-2.3795,-2.3795,-2.3795,-2.3896,-2.3917,-2.3917,-2.3917,-2.4754,-2.6354,-2.6786,-2.7705,-2.8931,-2.8038,-2.7488,-2.709,-2.5454,-2.4537,-2.419,-2.419,-2.4427,-2.4791,-2.4967,-2.5244,-2.5591,-2.5783,-2.5837,-2.5799,-2.5454,-2.5389,-2.5327,-2.4858,0.0,0.0,0.0,-2.4707,0.0,-2.8331,0.0,0.0,0.0,0.0,0.0,0.0,0.0,0.0,0.0,0.0,0.0,0.0,0.0,0.0,0.0,0.0,0.0,0.0,0.0,0.0,0.0,0.0,0.0,0.0,0.0,0.0,0.0,0.0,-4.6786,-4.6298,-4.6279,-4.6275,-4.6313,-4.6294,-4.6376,-4.6531,-4.6511,-4.6341,-4.5997,-4.5997,-4.6191,-4.656,-4.656,-4.7045,-4.79,-4.8386,-4.8541,-4.8444,-4.8561,-4.9046,-4.9745,-4.9862,-5.0348,-5.102,-5.1162,-5.1685,-5.2368,0.0,0.0,0.0,0.0,0.0,0.0,0.0,0.0,0.0,0.0,0.0,0.0,0.0,0.0,0.0,0.0,-2.3795,-2.3795,-2.3795,-2.3795,-2.3795,-2.3795,-2.3795,-2.3795,-2.3795,-2.3795,-2.3795,-2.3795,-2.3795,-2.4737,-2.653,-2.7127,-2.8377,-3.0087,-2.9137,-2.8317,-2.7442,-2.6004,-2.4957,-2.4326,-2.4385,-2.4732,-2.5257,-2.556,-2.6041,-2.6599,-2.6723,-2.6822,-2.6786,-2.6336,-2.6235,-2.6188,-2.5533,-2.5346,0.0,0.0,0.0,0.0,0.0,0.0,0.0,0.0,0.0,0.0,0.0,0.0,0.0,0.0,0.0,0.0,0.0,0.0,0.0,0.0,0.0,0.0,0.0,0.0,0.0,0.0,0.0,0.0,0.0,0.0,0.0,0.0,0.0,-4.6092,-4.5435,-4.5247,-4.518,-4.5185,-4.5034,-4.5276,-4.596,-4.5941,-4.5953,-4.5997,-4.5997,-4.5997,-4.5997,-4.5997,-4.6346,-4.7007,-4.7667,-4.7706,-4.7337,-4.7764,-4.8327,-4.8968,-4.9396,-4.9845,-5.0305,-5.0964,-5.1252,-5.1394,0.0,0.0,0.0,0.0,0.0,0.0,0.0,0.0,0.0,0.0,0.0,0.0,-2.3795,-2.3795,-2.3795,-2.3795,-2.3795,-2.3795,-2.3795,-2.3795,-2.3795,-2.3795,-2.3795,0.0,-2.3795,-2.3795,-2.3795,-2.3795,-2.3795,-2.5009,-2.7345,-2.7381,-2.8667,-3.0858,-2.93,-2.816,-2.7308,-2.5701,-2.4994,-2.4958,-2.5145,-2.5142,-2.5125,-2.6229,-2.6457,-2.625,-2.6443,-2.6597,-2.6723,-2.6668,-2.6861,-2.7129,-2.7073,-2.7073,-2.6923,0.0,0.0,0.0,0.0,0.0,0.0,0.0,0.0,0.0,0.0,0.0,0.0,0.0,0.0,0.0,0.0,0.0,0.0,0.0,0.0,0.0,0.0,0.0,0.0,0.0,0.0,0.0,0.0,0.0,0.0,0.0,0.0,-4.4627,-4.4571,-4.402,-4.4174,-4.5163,-4.4575,-4.4778,-4.5886,-4.5964,-4.5997,-4.5997,-4.5997,-4.5997,-4.5997,-4.5997,-4.6016,-4.6074,-4.6113,-4.6579,-4.724,-4.6463,-4.7589,-4.9745,-4.8968,-4.9673,-5.1137,-5.1183,-5.1252,-5.132,0.0,0.0,0.0,0.0,0.0,0.0,0.0,0.0,0.0,0.0,0.0,0.0,0.0,-2.3795,-2.3795,-2.3795,-2.3795,-2.3795,-2.3795,-2.3795,-2.3795,-2.3795,-2.3795,-2.3795,-2.3795,-2.3795,-2.3795,-2.3795,-2.3795,-2.4502,-2.5878,-2.6403,-2.7381,-2.8721,-2.9174,-2.8953,-2.8215,-2.7048,-2.6304,-2.5962,-2.5899,-2.6141,-2.6566,-2.6972,-2.7404,0.0,0.0,0.0,0.0,-2.7601,-2.7559,-2.7566,-2.714,-2.7009,-2.6859,-2.6193,-2.5794,0.0,0.0,0.0,0.0,0.0,0.0,0.0,0.0,0.0,0.0,0.0,0.0,0.0,0.0,0.0,0.0,0.0,0.0,0.0,0.0,0.0,0.0,0.0,0.0,0.0,0.0,0.0,0.0,0.0,0.0,0.0,-4.4707,-4.4007,-4.3881,-4.4556,-4.3822,-4.3698,-4.4296,-4.4353,-4.4404,-4.4404,-4.4404,-4.4695,-4.522,-4.522,-4.5511,-4.5997,-4.5997,-4.6171,-4.6443,-4.6133,-4.654,-4.7484,-4.8331,-4.9056,-4.9737,-5.0906,-5.1338,-5.1365,0.0,0.0,0.0,0.0,0.0,-2.4016,-2.4016,-2.4016,-2.3996,-2.3937,0.0,0.0,0.0,0.0,-2.3816,-2.3795,-2.3795,-2.3795,-2.3795,-2.3795,-2.3795,-2.3795,-2.3795,-2.3795,-2.3795,-2.3795,-2.3795,-2.3795,-2.3795,-2.4212,-2.5009,-2.5552,-2.624,-2.7055,-2.8105,-2.8506,-2.827,-2.7393,-2.6758,-2.6417,-2.6558,-2.7091,-2.7906,-2.8703,0.0,0.0,0.0,0.0,0.0,0.0,-2.8264,-2.8257,-2.7863,-2.7568,-2.7326,-2.6908,-2.6604,-2.6338,-2.6075,0.0,0.0,0.0,0.0,0.0,0.0,0.0,0.0,0.0,0.0,0.0,0.0,0.0,0.0,0.0,0.0,0.0,0.0,0.0,0.0,0.0,0.0,0.0,0.0,0.0,0.0,0.0,0.0,0.0,-4.4397,-4.3475,-4.312,-4.3455,-4.3254,-4.3225,-4.3404,-4.346,-4.351,-4.351,-4.3802,-4.4248,-4.4812,-4.5084,-4.5491,-4.5997,-4.5997,-4.5997,-4.6007,-4.6018,-4.6211,-4.659,-4.7788,-4.8625,-4.9313,-5.0524,-5.1152,-5.1402,0.0,0.0,-2.4016,-2.4094,-2.4054,-2.4016,-2.4094,-2.4054,-2.3996,-2.3996,0.0,0.0,0.0,0.0,0.0,-2.3816,-2.3795,-2.3795,-2.3795,-2.3795,-2.3795,-2.3795,-2.3795,-2.3795,-2.3795,-2.3795,-2.3795,-2.3795,-2.3795,-2.4194,-2.4954,-2.4954,-2.5389,-2.6168,-2.6149,-2.6602,-2.7327,-2.6566,-2.6258,-2.6349,-2.7127,-2.7918,-2.8938,0.0,0.0,0.0,-3.1908,-3.1319,0.0,-2.9234,0.0,0.0,0.0,-2.8951,-2.8426,-2.8407,-2.7862,-2.7054,0.0,0.0,0.0,0.0,0.0,0.0,0.0,0.0,0.0,0.0,0.0,0.0,0.0,0.0,0.0,0.0,0.0,0.0,0.0,0.0,0.0,0.0,0.0,0.0,0.0,0.0,0.0,0.0,0.0,-4.3583,-4.3564,-4.2393,-4.1782,-4.197,-4.2826,-4.3288,-4.3288,-4.3343,-4.3394,-4.3394,-4.4268,-4.4695,-4.4753,-4.553,-4.5899,-4.5919,-4.5949,-4.5968,-4.5978,-4.6068,-4.6605,-4.7365,-4.7396,-4.8487,-5.0058,-5.0098,-5.0658,-5.1394,0.0,-2.4113,-2.4151,-2.417,-2.4151,-2.4151,-2.417,-2.4151,-2.4132,0.0,0.0,0.0,-2.3917,-2.3876,-2.3816,-2.3795,-2.3795,-2.3795,-2.3795,-2.3795,-2.3795,-2.3795,-2.3795,-2.3795,-2.3795,-2.3795,-2.3795,-2.3795,-2.3795,-2.3904,-2.4121,-2.4121,-2.4556,-2.5316,-2.4719,-2.5226,-2.6566,-2.6928,-2.7417,-2.7978,-2.8196,-2.9101,0.0,0.0,0.0,0.0,0.0,-3.1574,-3.0703,0.0,-3.0064,-2.9545,0.0,0.0,-2.9213,-2.8576,-2.8238,-2.7882,-2.7092,0.0,0.0,0.0,0.0,0.0,0.0,0.0,0.0,0.0,0.0,0.0,0.0,0.0,0.0,0.0,0.0,0.0,0.0,0.0,0.0,0.0,0.0,0.0,0.0,0.0,0.0,0.0,-4.2661,-4.2746,-4.2959,-4.228,-4.168,-4.1139,-4.0812,-4.0652,-4.0652,-4.0723,-4.0752,-4.0771,-4.1587,-4.2306,-4.2928,-4.3141,-4.3607,-4.4229,-4.4848,-4.5134,-4.5173,-4.5838,-4.6235,-4.6541,-4.721,-4.8163,-4.9238,-4.9873,-5.064,-5.1394,-2.4151,-2.417,-2.419,-2.419,-2.419,-2.419,-2.419,-2.419,-2.419,0.0,0.0,0.0,-2.4923,-2.4878,-2.4708,-2.432,-2.4302,-2.4157,-2.3813,-2.3795,-2.3795,-2.3795,-2.3795,-2.3795,-2.3795,-2.3795,-2.3795,-2.3795,-2.3795,-2.3795,-2.3795,-2.3795,-2.4049,-2.4483,-2.4013,-2.4502,-2.5751,-2.6566,0.0,0.0,-2.883,0.0,0.0,-3.2089,-3.2596,0.0,0.0,0.0,-3.285,-3.1836,-3.1083,0.0,0.0,0.0,0.0,0.0,-2.895,-2.8763,-2.7937,-2.7711,-2.7711,0.0,0.0,0.0,-2.8781,-2.9795,0.0,0.0,0.0,0.0,0.0,0.0,0.0,0.0,0.0,0.0,0.0,0.0,0.0,0.0,0.0,0.0,0.0,0.0,0.0,-4.2172,-4.1996,-4.176,-4.1382,-4.1117,-4.059,-3.9739,-3.9293,-3.9062,-3.9062,-3.9112,-3.9334,-3.9703,-4.0519,-4.1354,-4.2209,-4.2578,-4.3025,-4.353,-4.4036,-4.4267,-4.4332,-4.5241,-4.58,-4.6199,-4.6777,-4.7748,-4.886,-4.9371,-5.0106,-5.0906,0.0,-2.419,-2.419,-2.419,-2.419,-2.4226,-2.4318,-2.4263,-2.4263,0.0,-2.5071,-2.5745,-2.6334,-2.634,-2.6004,-2.519,-2.5135,-2.4827,-2.4103,-2.4067,-2.4067,-2.4067,-2.4067,-2.4067,-2.4067,-2.4067,-2.4067,-2.4067,-2.4067,-2.4067,-2.4067,-2.4067,-2.4067,-2.4067,-2.4067,-2.4502,-2.5316,-2.6041,0.0,-2.7671,-2.9174,-3.0749,0.0,0.0,-3.5548,0.0,-3.6635,-3.6363,-3.5204,-3.294,-3.1926,0.0,0.0,0.0,0.0,0.0,-2.9739,-2.9532,-2.8745,-2.8613,-2.8651,-2.8557,0.0,0.0,-2.9401,-2.9176,-2.9064,0.0,0.0,0.0,0.0,0.0,0.0,0.0,0.0,0.0,0.0,0.0,0.0,0.0,0.0,0.0,0.0,-4.1893,-4.1902,-4.1897,-4.1338,-4.0543,-3.9414,-3.9364,-3.9015,-3.8244,-3.8179,-3.8151,-3.8151,-3.8228,-3.8635,-3.9431,-4.0325,-4.116,-4.1956,-4.2821,-4.3209,-4.3238,-4.3337,-4.3389,-4.346,-4.437,-4.5273,-4.6074,-4.6234,-4.7276,-4.8662,-4.8662,-4.9208,-5.0087,-2.419,-2.419,-2.419,-2.419,-2.419,-2.441,-2.5072,-2.4612,-2.4667,-2.597,-2.6222,-2.6307,-2.6388,-2.634,-2.6222,-2.5986,-2.5968,-2.5896,-2.5751,-2.5733,-2.5733,-2.5733,-2.5733,-2.5733,-2.5733,-2.5733,-2.5733,-2.5733,-2.5733,-2.5733,-2.5733,-2.5733,-2.5733,-2.5733,-2.5733,-2.6186,-2.6946,-2.7109,0.0,-2.8467,-2.9409,0.0,-3.2325,-3.3447,-3.3882,-3.4135,-3.6236,-3.5639,-3.3701,0.0,-3.1837,-3.1327,0.0,0.0,0.0,0.0,0.0,0.0,0.0,0.0,0.0,0.0,0.0,0.0,-2.9908,-3.0077,-3.0321,0.0,0.0,0.0,0.0,0.0,0.0,0.0,0.0,0.0,0.0,0.0,0.0,0.0,0.0,0.0,0.0,-4.1178,-4.0734,-3.9413,-3.8856,-3.8546,-3.8465,-3.8487,-3.847,-3.8296,-3.7599,-3.724,-3.724,-3.7316,-3.743,-3.7625,-3.9198,-4.0014,-4.0228,-4.1101,-4.1493,-4.1519,-4.2282,-4.2612,-4.2673,-4.3569,-4.4427,-4.5234,-4.6,-4.6924,-4.7822,-4.7822,-4.8349,-4.9189,-2.419,-2.419,-2.419,-2.419,-2.419,-2.4465,-2.5293,-2.5072,-2.5217,-2.6447,-2.6878,-2.7196,-2.7528,-2.7518,-2.7307,-2.6838,-2.6801,-2.6638,-2.624,-2.6204,-2.6204,-2.6204,-2.6204,-2.6204,-2.6204,-2.6204,-2.6204,-2.6204,-2.6204,-2.6204,-2.6204,-2.6204,-2.6204,-2.6204,-2.6204,-2.6656,-2.7417,0.0,-2.787,-2.8696,-2.9898,0.0,-3.2325,-3.3538,-3.4262,-3.4769,-3.5965,-3.5367,-3.4009,-3.4009,-3.3338,0.0,0.0,-3.1808,-3.164,0.0,-3.0982,-3.0672,0.0,0.0,0.0,-3.0396,0.0,0.0,0.0,-3.0302,-3.0302,0.0,0.0,0.0,0.0,0.0,0.0,0.0,0.0,0.0,0.0,0.0,0.0,0.0,0.0,0.0,0.0,-3.8886,-3.8969,-3.8288,-3.8142,-3.7924,-3.7616,-3.7637,-3.7472,-3.7065,-3.6629,-3.6396,-3.6396,-3.6423,-3.6673,-3.712,-3.7994,-3.8868,-3.9703,-4.0142,-4.0584,-4.1039,-4.1535,-4.1758,-4.1816,-4.2681,-4.3557,-4.4388,-4.5291,-4.6456,-4.7608,-4.7608,-4.7861,-4.833,-2.419,-2.419,-2.419,-2.419,-2.4318,-2.4685,-2.5513,-2.5621,-2.5894,-2.668,-2.7442,-2.8122,-2.8646,-2.8694,-2.8469,-2.7906,-2.7725,-2.7435,-2.6928,-2.6747,-2.6675,-2.6675,-2.6675,-2.6675,-2.6675,-2.6675,-2.6675,-2.6675,-2.6675,-2.6675,-2.6675,-2.6675,-2.6675,-2.6675,-2.6675,-2.7037,-2.761,0.0,0.0,-2.8974,0.0,-3.1383,-3.2162,-3.3936,-3.4914,-3.5349,-3.5349,-3.5023,-3.4679,-3.5186,0.0,-3.3588,-3.2894,-3.2716,0.0,0.0,0.0,0.0,0.0,0.0,0.0,0.0,0.0,-3.064,0.0,0.0,0.0,0.0,0.0,0.0,0.0,0.0,0.0,0.0,0.0,0.0,0.0,0.0,0.0,0.0,0.0,0.0,0.0,-3.6398,-3.6879,-3.7199,-3.7235,-3.7035,-3.6532,-3.6523,-3.6309,-3.5823,-3.5803,-3.5803,-3.5803,-3.581,-3.6148,-3.6848,-3.702,-3.7844,-3.9205,-3.9558,-4.0092,-4.0779,-4.0994,-4.1093,-4.1151,-4.1858,-4.2669,-4.3548,-4.4582,-4.5968,-4.7354,-4.7354,-4.7354,-4.7471,-2.419,-2.419,-2.419,-2.419,-2.4777,-2.5529,-2.6337,-2.6405,-2.6655,-2.7392,-2.8171,-2.8676,-2.8694,-2.8694,-2.8923,-2.9489,-2.8884,-2.8739,-2.9337,-2.8721,-2.8316,-2.8316,-2.8316,-2.8316,-2.8316,-2.8316,-2.8316,-2.8316,-2.8316,-2.8316,-2.8316,-2.8316,-2.8316,-2.8316,-2.8316,0.0,0.0,0.0,-2.8938,0.0,-3.0622,-3.1039,0.0,-3.3719,-3.4208,-3.3665,-3.3665,-3.4081,-3.4516,0.0,-3.3666,-3.3652,0.0,-3.3067,-3.2791,0.0,0.0,0.0,0.0,0.0,0.0,0.0,-3.248,0.0,0.0,0.0,0.0,0.0,0.0,0.0,0.0,0.0,0.0,0.0,0.0,0.0,0.0,0.0,0.0,0.0,0.0,0.0,0.0,0.0,-3.4442,-3.4781,-3.4158,-3.4071,-3.4739,-3.4783,-3.5091,-3.5771,-3.5791,-3.5791,-3.5791,-3.5791,-3.5857,-3.5954,-3.6729,-3.7202,-3.7461,-3.9069,-3.9842,-3.998,-4.0754,-4.1094,-4.1114,-4.1208,-4.1752,-4.2708,-4.4367,-4.5597,-4.6456,-4.6456,-4.6456,-4.6573,-2.419,-2.419,-2.419,-2.419,-2.4869,-2.5658,-2.6484,-2.772,-2.8534,-2.8317,-2.8961,-2.9403,-2.9352,0.0,0.0,0.0,0.0,-2.9854,0.0,0.0,-2.9101,-2.8605,-2.8587,-2.8587,-2.8587,-2.8587,-2.8587,-2.8587,-2.8587,-2.8587,-2.8587,-2.8587,-2.8587,-2.8587,-2.8587,0.0,-2.8623,0.0,-2.9481,0.0,0.0,0.0,0.0,-3.3339,-3.3701,-3.3393,-3.3393,-3.3628,-3.3846,0.0,-3.3452,0.0,0.0,0.0,0.0,0.0,0.0,0.0,0.0,0.0,0.0,0.0,0.0,0.0,-3.1297,0.0,-3.0246,0.0,0.0,0.0,0.0,0.0,0.0,0.0,0.0,0.0,0.0,0.0,0.0,0.0,0.0,0.0,0.0,0.0,0.0,0.0,0.0,-3.3363,-3.3731,-3.3774,-3.4187,-3.5022,-3.5041,-3.5294,-3.5799,-3.5799,-3.5823,-3.5866,-3.6228,-3.6665,-3.718,-3.7945,-3.8848,-3.9824,-4.0184,-4.062,-4.1108,-4.1108,-4.1615,-4.2474,-4.3216,-4.4328,-4.5617,-4.6105,-4.63,-4.6358,-2.4483,-2.4355,-2.4263,-2.4483,-2.5181,-2.6062,-2.7065,-2.8667,-2.9582,-2.9125,-2.9348,0.0,-3.0106,-3.0115,0.0,0.0,-3.1315,-3.1083,0.0,0.0,-2.9771,-2.8974,-2.8938,0.0,-2.8587,-2.8587,-2.8587,-2.8587,-2.8587,-2.8587,-2.8587,-2.8587,-2.8587,-2.8587,0.0,-2.8739,-2.8974,0.0,0.0,-3.055,-3.1727,-3.2325,-3.2596,-3.3176,-3.3393,-3.3393,-3.3393,-3.3393,-3.3393,-3.3393,-3.3422,0.0,-3.3422,0.0,0.0,0.0,0.0,0.0,-3.3761,0.0,0.0,0.0,0.0,0.0,0.0,0.0,0.0,0.0,0.0,0.0,0.0,0.0,0.0,-2.942,0.0,0.0,0.0,0.0,0.0,0.0,0.0,0.0,0.0,0.0,0.0,0.0,0.0,0.0,-3.2829,-3.2901,-3.3313,-3.4148,-3.4381,-3.4808,-3.5449,-3.5706,-3.584,-3.5908,-3.5899,-3.6238,-3.6843,-3.7109,-3.7928,-3.9138,-3.9593,-4.0151,-4.0756,-4.0991,-4.1479,-4.2064,-4.2318,-4.3313,-4.4758,-4.5617,-4.6085,-4.63,-2.5219,-2.4722,-2.4447,-2.5237,-2.6025,-2.7046,-2.85,-2.8791,-2.9071,0.0,0.0,0.0,0.0,0.0,0.0,0.0,0.0,-3.2488,-3.3201,0.0,-3.0586,-2.9816,-2.9753,-2.9391,0.0,-2.8587,-2.8587,-2.8587,-2.8587,-2.8587,-2.8587,-2.8587,-2.8587,-2.8587,-2.8587,-2.9029,-2.9753,-2.9771,-3.0695,-3.2125,-3.218,-3.2669,-3.3357,0.0,-3.3393,-3.3393,-3.3393,0.0,0.0,-3.3393,-3.352,0.0,0.0,0.0,0.0,0.0,0.0,0.0,0.0,0.0,0.0,-3.3813,0.0,0.0,0.0,0.0,-3.2837,0.0,0.0,0.0,0.0,0.0,-3.0321,-2.8707,-2.9138,0.0,0.0,0.0,0.0,0.0,0.0,0.0,0.0,0.0,0.0,0.0,0.0,0.0,-3.1864,-3.2016,-3.2438,-3.3313,-3.4089,-3.4517,-3.4536,-3.5451,-3.5908,-3.5889,-3.5908,-3.5918,-3.5976,-3.6884,-3.7324,-3.748,-3.9097,-3.9819,-3.9917,-4.0756,-4.1127,-4.1225,-4.2064,-4.2942,-4.384,-4.4719,-4.5578,-4.63,-2.6043,-2.5988,-2.5878,-2.6153,0.0,-2.7728,-2.8764,-2.9314,0.0,0.0,0.0,0.0,0.0,0.0,-3.3407,0.0,0.0,-3.3401,-3.2639,-3.2349,0.0,0.0,0.0,-3.0459,0.0,0.0,0.0,-3.0188,-3.0188,-3.0188,-3.0188,-3.0188,-2.9898,-2.9391,-2.9391,-2.9536,0.0,0.0,0.0,0.0,0.0,-3.3484,-3.4154,0.0,0.0,-3.3393,-3.3393,-3.3393,0.0,-3.3393,-3.3452,-3.3509,-3.3422,-3.3452,-3.3549,-3.3753,-3.4263,0.0,0.0,0.0,-3.6423,-3.5334,0.0,0.0,0.0,0.0,0.0,0.0,0.0,0.0,0.0,-2.9927,-2.9927,-2.9345,-2.9026,-2.8702,0.0,0.0,0.0,0.0,0.0,0.0,0.0,0.0,0.0,0.0,-2.9051,0.0,0.0,-3.0819,-3.1545,-3.2419,-3.271,-3.3393,-3.4555,-3.4884,-3.5338,-3.5908,-3.5898,-3.5917,-3.6005,-3.6897,-3.7614,-3.8219,-3.9312,-4.0132,-4.0678,-4.0971,-4.1108,-4.1127,-4.142,-4.2415,-4.3801,-4.468,-4.5558,-4.6378,-2.6869,-2.7034,-2.7034,0.0,0.0,0.0,0.0,0.0,0.0,0.0,-3.1982,0.0,-3.5346,0.0,-3.4867,0.0,-3.563,-3.4905,-3.3318,-3.3621,0.0,-3.151,-3.1691,0.0,0.0,0.0,0.0,0.0,-3.0985,-3.0985,-3.0985,-3.0695,-3.0441,-3.0206,0.0,-3.0142,-3.0677,0.0,-3.189,0.0,0.0,-3.3719,0.0,0.0,-3.3574,-3.3791,0.0,-3.3393,-3.3393,-3.3393,-3.3393,-3.3393,-3.3393,-3.3393,-3.3452,-3.3643,-3.4174,-3.4776,-3.5355,-3.5992,0.0,-3.6344,-3.5691,0.0,-3.4414,0.0,0.0,0.0,0.0,0.0,0.0,0.0,-3.0133,-3.0133,-2.942,-2.8832,0.0,-2.8658,0.0,0.0,0.0,0.0,0.0,0.0,0.0,-2.7544,-2.8412,0.0,0.0,0.0,-3.0962,-3.1525,-3.1836,-3.2532,-3.3668,-3.4291,-3.4898,-3.5488,-3.5799,-3.5968,-3.601,-3.6579,-3.7301,-3.816,-3.8687,-3.9566,-4.0639,-4.0639,-4.0815,-4.1108,-4.1108,-4.2162,-4.3762,-4.4328,-4.5285,-4.6475,-2.7695,-2.7879,0.0,0.0,-2.8494,0.0,0.0,0.0,-3.0856,0.0,-3.2105,-3.3209,-3.5514,-3.5706,-3.599,-3.6781,-3.7185,0.0,-3.5258,-3.5576,0.0,0.0,-3.3067,-3.2741,-3.1202,0.0,0.0,0.0,0.0,-3.1111,-3.1093,-3.0333,-3.0351,-3.1021,-3.0242,0.0,-3.2198,-3.2198,-3.2651,-3.3393,-3.3393,-3.3429,-3.3465,-3.3429,-3.39,-3.4498,-3.3701,-3.3393,-3.3393,-3.3393,-3.3393,-3.3393,-3.3393,-3.3393,-3.3452,-3.3661,-3.3781,-3.4109,-3.5256,-3.5615,-3.5949,-3.6902,0.0,0.0,0.0,0.0,-3.5428,0.0,0.0,0.0,0.0,0.0,0.0,-3.0865,-3.0208,-2.9542,-2.9025,-2.8262,0.0,0.0,0.0,0.0,0.0,0.0,-2.5836,-2.6667,-2.7586,-2.8461,0.0,0.0,-3.069,-3.069,-3.1506,-3.1968,-3.1992,-3.3698,-3.4583,-3.4707,-3.5574,-3.5991,-3.5991,-3.603,-3.6521,-3.7301,-3.734,-3.8297,-3.98,-3.98,-4.0307,-4.1108,-4.1147,-4.222,-4.3762,-4.3801,-4.4875,-4.6534,-2.8539,-2.9182,-2.9769,0.0,-2.9635,-2.9153,0.0,0.0,0.0,0.0,-3.5139,-3.6186,-3.7923,-3.7421,-3.7015,-3.7222,-3.6863,0.0,0.0,0.0,0.0,-3.4901,-3.4516,-3.4099,-3.3683,-3.3085,0.0,-3.2777,0.0,0.0,-3.2777,-3.2578,-3.227,-3.1872,0.0,0.0,-3.2198,-3.2198,-3.2651,-3.3393,-3.3393,-3.3755,0.0,0.0,-3.39,-3.4498,-3.3701,-3.3393,-3.3393,-3.3393,-3.3393,-3.3422,-3.3577,-3.3615,-3.3671,-3.3868,-3.4918,-3.6073,-3.6379,-3.7474,-3.8458,-3.8094,-3.738,-3.6629,0.0,0.0,0.0,0.0,0.0,0.0,0.0,0.0,0.0,-3.0114,-2.9988,-2.9946,-2.9822,0.0,0.0,-2.905,0.0,0.0,0.0,0.0,-2.5584,-2.5822,-2.7244,-2.8209,0.0,0.0,0.0,-3.069,-3.0923,-3.1376,-3.2062,-3.3105,-3.3982,-3.4715,-3.5586,-3.5991,-3.601,-3.6677,-3.7087,-3.734,-3.7985,-3.8843,-3.98,-3.98,-4.0307,-4.1166,-4.181,-4.3138,-4.4738,-4.5382,-4.5925,-4.6542,-2.9439,0.0,0.0,-3.1286,0.0,0.0,-3.0776,0.0,0.0,-3.386,-3.4874,0.0,-3.7115,-3.716,-3.7131,-3.7131,-3.7093,0.0,0.0,0.0,0.0,-3.5824,-3.5385,-3.4969,-3.4624,-3.381,0.0,-3.3393,0.0,-3.3067,-3.3375,-3.2687,-3.2488,-3.2687,0.0,-3.1872,0.0,-3.2198,-3.2651,-3.3393,-3.3393,0.0,0.0,-3.3574,-3.3683,-3.4027,-3.3556,-3.3393,-3.3393,-3.3393,-3.3452,-3.352,-3.3549,-3.3698,-3.386,-3.3842,-3.467,-3.5764,-3.6584,-3.7281,-3.7978,-3.8689,-3.7699,-3.6535,-3.6441,-3.5859,-3.5052,0.0,0.0,0.0,0.0,0.0,0.0,-2.9833,-2.9872,0.0,0.0,0.0,0.0,0.0,0.0,0.0,0.0,0.0,-2.5507,-2.5492,-2.7108,-2.8112,0.0,0.0,0.0,-3.069,-3.1449,-3.1919,-3.2094,-3.3685,-3.4551,-3.4705,-3.5584,-3.5991,-3.601,-3.6501,-3.6931,-3.7321,-3.7828,-3.8707,-3.98,-3.98,-4.0307,-4.1225,-4.2474,-4.3798,-4.5102,-4.598,-4.6522,-4.7006,-3.0467,0.0,0.0,0.0,0.0,0.0,0.0,-3.2151,0.0,-3.258,0.0,-3.4631,-3.5197,-3.6246,-3.6859,-3.6803,0.0,-3.7382,-3.6121,-3.7398,-3.7522,-3.6037,-3.5874,-3.5421,-3.4624,-3.381,0.0,0.0,0.0,-3.2705,-3.3375,-3.1962,-3.2053,-3.3339,0.0,0.0,0.0,-3.2306,-3.2759,-3.3393,-3.3393,-3.3393,-3.3393,-3.3393,-3.3393,-3.3411,-3.3364,-3.3364,-3.3393,-3.3393,-3.352,-3.3661,-3.3509,-3.3698,-3.3998,-3.3834,-3.3994,-3.4606,-3.6255,-3.6205,-3.6267,-3.8689,-3.7568,-3.6085,-3.6779,-3.5728,-3.4602,-3.4602,-3.4038,-3.3531,0.0,0.0,0.0,-2.9983,0.0,0.0,0.0,0.0,0.0,0.0,0.0,0.0,0.0,0.0,-2.5631,-2.5518,-2.7011,0.0,0.0,0.0,0.0,-3.0704,-3.2172,0.0,-3.2274,0.0,-3.5386,-3.4881,-3.5642,-3.5991,-3.5991,-3.613,-3.6521,-3.7145,-3.7379,-3.8297,-3.9644,-3.9761,-4.0444,-4.1596,-4.3118,-4.4302,-4.5245,-4.6011,-4.6865,-4.7777,0.0,0.0,0.0,0.0,0.0,-3.4724,-3.4994,-3.4728,-3.4713,-3.5393,-3.6488,-3.7017,-3.6525,-3.6977,-3.7189,-3.6923,-3.7326,0.0,0.0,0.0,0.0,-3.6816,-3.6164,-3.5421,-3.4624,-3.381,-3.3393,0.0,-3.3266,-3.3266,-3.3393,-3.3103,-3.314,-3.3357,0.0,0.0,-3.2234,-3.2904,0.0,-3.3393,-3.3393,-3.3393,-3.3393,-3.3393,-3.3393,-3.3364,-3.3226,-3.3256,-3.3393,-3.3393,-3.3509,-3.3633,-3.3643,-3.3895,-3.4173,-3.4197,-3.4862,-3.5637,-3.5983,-3.6433,-3.6944,-3.7418,-3.6704,-3.5935,-3.6085,-3.5334,-3.4602,-3.4602,-3.4489,-3.4189,-3.3531,0.0,0.0,0.0,0.0,0.0,0.0,0.0,0.0,0.0,0.0,0.0,0.0,0.0,0.0,0.0,0.0,0.0,0.0,0.0,0.0,0.0,-3.0994,0.0,0.0,0.0,-3.4508,-3.5779,-3.5932,-3.5991,-3.601,-3.6735,-3.6755,-3.6306,-3.775,-3.8531,-3.8863,-3.9527,-4.1163,-4.3263,-4.3583,-4.4649,-4.6016,-4.6153,-4.7215,-4.8581,0.0,0.0,0.0,0.0,0.0,0.0,0.0,-3.5631,0.0,-3.5572,-3.5711,-3.5667,-3.5352,-3.62,-3.6765,-3.6591,-3.717,-3.7596,-3.7845,-3.8054,-3.8011,-3.7631,-3.6852,0.0,-3.5258,-3.4443,-3.3828,-3.3393,-3.2977,-3.2995,-3.3393,-3.2977,-3.2995,-3.3357,0.0,-3.2198,0.0,0.0,0.0,-3.3393,-3.3304,-3.3256,-3.3226,-3.3165,-3.3135,-3.3135,-3.3042,-3.3073,-3.3135,-3.3135,-3.3268,-3.3426,-3.3494,-3.3823,-3.4173,-3.4269,-3.4749,-3.5315,-3.5784,-3.5841,-3.601,-3.6873,-3.616,-3.5334,-3.5803,-3.5221,-3.4602,-3.4602,-3.4602,-3.4339,-3.355,-3.2367,0.0,0.0,0.0,0.0,0.0,0.0,0.0,0.0,0.0,0.0,0.0,0.0,0.0,0.0,0.0,0.0,0.0,0.0,0.0,0.0,0.0,0.0,0.0,0.0,0.0,-3.5991,-3.5991,-3.5991,-3.601,-3.6423,-3.6638,-3.6755,-3.8043,-3.8843,-3.9292,-4.0125,-4.1741,-4.3708,-4.3708,-4.4709,-4.6195,-4.6195,-4.7228,-4.8623,0.0,-3.4025,0.0,0.0,-3.5222,0.0,-3.6094,-3.6007,-3.5677,-3.5173,-3.4778,-3.4477,-3.4444,-3.5673,-3.654,-3.6533,-3.7114,-3.7542,-3.7632,-3.8002,-3.8101,-3.7938,-3.7323,-3.6526,-3.5584,-3.4932,-3.4208,0.0,-3.2777,-3.2777,-3.3393,-3.2741,-3.2705,0.0,0.0,0.0,0.0,0.0,-3.2814,-3.3364,-3.3196,-3.3117,-3.3147,-3.2979,-3.2916,-3.293,-3.2866,-3.2866,-3.2916,-3.2898,-3.3019,-3.3214,-3.3361,-3.3698,-3.4099,-3.4245,-3.445,-3.4752,-3.5446,-3.5108,-3.4921,-3.6235,-3.5578,-3.4771,-3.5465,-3.509,-3.4602,-3.4602,-3.4602,-3.4414,-3.3776,-3.284,0.0,0.0,0.0,0.0,0.0,0.0,0.0,0.0,0.0,0.0,0.0,0.0,0.0,0.0,0.0,0.0,0.0,0.0,0.0,0.0,0.0,-3.3808,-3.367,0.0,-3.6404,0.0,-3.6088,-3.5991,-3.601,-3.6384,-3.6833,-3.7379,-3.859,-3.9488,-4.0132,-4.1019,-4.2284,-4.3723,-4.389,-4.4869,-4.6196,-4.6203,-4.7189,-4.851,0.0,0.0,0.0,0.0,0.0,0.0,0.0,-3.6468,-3.64,-3.565,-3.6107,-3.6406,-3.6121,-3.6818,-3.7346,-3.7374,-3.7469,-3.7667,-3.8106,-3.8192,-3.7848,-3.7123,-3.7033,-3.6272,-3.4751,-3.4643,-3.4208,0.0,0.0,-3.3339,-3.3393,-3.3321,-3.294,0.0,0.0,0.0,0.0,-3.2977,-3.3339,-3.3364,-3.3196,-3.3226,-3.3334,-3.3011,-3.2979,-3.3055,-3.2737,-3.2737,-3.2898,-3.2908,-3.2983,-3.3142,-3.3332,-3.3671,-3.4049,-3.4245,-3.445,-3.462,-3.4695,-3.4658,-3.4639,-3.4789,-3.4714,-3.462,-3.4695,-3.4658,-3.4602,-3.4602,-3.4602,-3.4583,-3.4489,-3.3335,-3.2387,0.0,0.0,0.0,0.0,0.0,0.0,0.0,0.0,0.0,0.0,0.0,0.0,0.0,0.0,0.0,0.0,0.0,0.0,-3.0761,0.0,-3.2264,-3.4554,-3.4042,-3.492,-3.7165,-3.6384,-3.5991,-3.6049,-3.7633,-3.7965,-3.7438,-3.9819,-4.0912,-4.1049,-4.1917,-4.2841,-4.3768,-4.4509,-4.537,-4.6203,-4.6196,-4.7189,-4.848,0.0,0.0,0.0,0.0,0.0,0.0,0.0,-3.6559,-3.596,-3.5656,-3.5893,-3.6005,-3.5905,-3.6388,-3.6846,-3.7111,-3.7358,-3.7721,-3.8192,-3.8192,-3.783,-3.7047,-3.7011,-3.6236,-3.4643,-3.4606,-3.4208,0.0,0.0,-3.3393,-3.3393,-3.3393,0.0,0.0,0.0,-3.3046,-3.2775,-3.3009,-3.3104,-3.3104,-3.3011,-3.3042,-3.3073,-3.2802,-3.277,-3.2784,-3.2781,-3.2844,-3.2939,-3.3196,-3.3225,-3.3243,-3.3671,-3.3928,-3.4124,-3.4404,-3.4539,-3.4602,-3.4602,-3.4602,-3.4602,-3.4602,-3.4602,-3.4602,-3.4602,-3.4602,-3.4602,-3.4602,-3.4602,-3.4475,-3.4071,-3.3526,-3.2874,0.0,0.0,0.0,0.0,0.0,0.0,0.0,0.0,0.0,0.0,0.0,0.0,0.0,0.0,0.0,0.0,0.0,0.0,-3.0762,0.0,-3.286,-3.3905,-3.4608,-3.5486,-3.6521,-3.6169,-3.6267,-3.6794,-3.7497,-3.818,-3.8882,-4.0424,-4.14,-4.1869,-4.1694,-4.2739,-4.4406,-4.4195,-4.4915,-4.6084,-4.6074,-4.6981,-4.8199,-3.5527,0.0,-3.6772,0.0,-3.7151,-3.6727,-3.7174,-3.6315,-3.5622,-3.5622,-3.5622,-3.5667,-3.5783,-3.6277,-3.6759,-3.7034,-3.7358,-3.7721,-3.8192,-3.8192,-3.783,-3.7047,-3.7011,0.0,-3.4643,-3.4606,-3.4208,-3.3393,-3.3393,0.0,-3.3393,0.0,0.0,0.0,-3.3135,-3.3024,-3.3024,-3.2948,-3.2916,-3.2884,-3.2852,-3.2852,-3.2884,-3.2623,-3.2573,-3.2621,-3.2749,-3.289,-3.3057,-3.3439,-3.3542,-3.3597,-3.3979,-3.4099,-3.4173,-3.4495,-3.4602,-3.4602,-3.4602,-3.4602,-3.4602,-3.4602,-3.4602,-3.4602,-3.4602,-3.4602,-3.4602,-3.4602,-3.4647,-3.4466,-3.3734,-3.3483,-3.2988,-3.1802,0.0,0.0,0.0,0.0,0.0,0.0,-2.9522,-2.9361,-2.8553,0.0,0.0,0.0,0.0,0.0,0.0,0.0,0.0,0.0,0.0,0.0,0.0,-3.4861,-3.5876,-3.6384,-3.613,-3.6599,-3.7692,-3.7926,-3.8824,-4.0229,-4.0834,-4.1439,-4.2006,-4.1905,-4.2929,-4.4523,-4.4416,-4.5032,-4.5997,-4.5997,-4.6853,-4.801,-3.9418,-3.8239,-3.6967,-3.7759,-3.9073,-3.9022,-3.6096,-3.5639,-3.5622,-3.5622,-3.5622,-3.5783,-3.6259,-3.6956,-3.7415,-3.7503,-3.7505,-3.7721,-3.8192,-3.8192,-3.783,0.0,0.0,-3.6236,-3.4643,-3.4606,-3.4208,-3.3393,0.0,0.0,-3.3411,0.0,-3.3117,-3.3086,-3.2961,-3.2916,-3.2916,-3.2916,-3.2916,-3.2884,-3.2672,-3.2737,-3.2852,-3.2525,-3.2473,-3.2606,-3.2588,-3.2862,-3.3273,-3.3579,-3.3968,-3.4269,-3.4148,-3.4099,-3.4173,-3.4495,-3.4602,-3.4602,-3.4602,-3.4602,-3.4602,-3.4602,-3.4602,-3.4602,-3.4602,-3.4602,-3.4602,-3.4602,-3.4771,-3.4643,-3.3771,-3.3223,-3.2615,-3.1731,0.0,0.0,0.0,0.0,0.0,0.0,-3.0064,-3.0277,-2.9458,0.0,0.0,0.0,0.0,0.0,0.0,0.0,0.0,-3.0801,-3.166,0.0,-3.3398,-3.4276,-3.5584,-3.7262,-3.6404,-3.6911,-3.8612,-3.9409,-4.0249,-4.1088,-4.1108,-4.1108,-4.1244,-4.2958,-4.369,-4.388,-4.5527,-4.6111,-4.5997,-4.5997,-4.6853,-4.801,-3.9713,-3.9538,-3.8457,-3.6666,-3.6738,-3.7077,-3.7161,-3.678,-3.6262,-3.5542,-3.5412,-3.5458,-3.5594,-3.6093,-3.6542,0.0,-3.715,-3.7504,0.0,-3.8106,-3.783,-3.7047,-3.6338,-3.5479,-3.4416,-3.375,-3.3311,-3.3042,0.0,0.0,0.0,-3.3011,-3.2961,-3.2948,-3.277,-3.2705,-3.2672,-3.2608,-3.2558,-3.2541,-3.2573,-3.2639,-3.2672,-3.259,-3.2573,-3.2639,-3.2925,-3.3184,-3.3486,-3.3961,-3.4293,-3.4495,-3.445,-3.445,-3.4473,-3.4561,-3.4602,-3.4602,-3.4602,-3.4602,-3.4602,-3.4602,-3.4602,-3.4602,-3.4602,-3.4602,-3.4626,-3.4791,-3.487,-3.4546,-3.3349,-3.3004,-3.2461,-3.1127,-3.0743,0.0,0.0,0.0,0.0,0.0,0.0,-3.0562,0.0,-3.0345,0.0,0.0,0.0,0.0,0.0,0.0,0.0,0.0,-3.2539,0.0,-3.5152,-3.6033,-3.6755,-3.7301,-3.7614,-3.8355,-3.9449,-4.0307,-4.0834,-4.1127,-4.1732,-4.2315,-4.2912,-4.3461,-4.4319,-4.5254,-4.5209,-4.5367,-4.5731,-4.6329,-4.7104,-4.7943,-3.9901,-4.007,-3.9495,-3.7618,-3.7297,-3.7618,-3.8582,-3.8398,-3.741,-3.5462,-3.5228,-3.5228,-3.5291,-3.5756,0.0,-3.6492,-3.7034,-3.7522,-3.7864,-3.8021,-3.7745,-3.7015,-3.6327,-3.5418,-3.4335,0.0,0.0,-3.2916,-3.2948,-3.2979,-3.2979,-3.2979,-3.2979,-3.2979,-3.2802,-3.2705,-3.2705,-3.2623,-3.2574,-3.2608,-3.269,-3.2705,-3.2705,-3.2639,-3.2687,-3.2862,-3.3093,-3.3447,-3.3778,-3.4154,-3.4431,-3.4602,-3.4602,-3.4602,-3.4602,-3.4602,-3.4602,-3.4602,-3.4602,-3.4602,-3.4602,-3.4602,-3.4602,-3.4602,-3.4602,-3.4647,-3.4751,-3.487,-3.4734,-3.4257,-3.3108,-3.2666,-3.2069,-3.082,-3.0598,-3.0598,-3.0598,0.0,0.0,0.0,0.0,0.0,0.0,-3.0775,0.0,0.0,0.0,0.0,0.0,0.0,0.0,-3.207,-3.2949,0.0,-3.5506,-3.6384,-3.7145,-3.7809,-3.898,-3.9618,-3.9798,-4.0676,-4.1066,-4.1105,-4.1983,-4.2656,-4.3187,-4.3818,-4.4612,-4.5412,-4.5165,-4.5244,-4.5605,-4.649,-4.7222,-4.7933,-4.0037,-4.007,0.0,0.0,-4.007,0.0,-3.98,-3.9902,-3.8807,-3.5376,-3.5074,-3.5185,-3.5261,-3.5739,-3.6139,-3.6374,0.0,0.0,0.0,-3.7864,-3.7644,-3.7073,-3.6798,-3.596,-3.4483,-3.4166,-3.3708,-3.2923,-3.3082,-3.3109,-3.3055,-3.3055,-3.3055,-3.3055,-3.293,-3.2884,-3.2916,-3.2916,-3.2916,-3.2916,-3.2916,-3.2916,-3.2898,-3.2687,-3.2894,-3.3214,-3.3243,-3.3616,-3.4124,-3.4245,-3.4431,-3.4602,-3.4602,-3.4602,-3.4602,-3.4602,-3.4602,-3.4602,-3.4658,-3.4639,-3.4602,-3.4677,-3.4639,-3.4583,-3.4623,-3.4771,-3.4908,-3.4926,-3.4538,-3.3955,-3.316,-3.2389,-3.1642,-3.081,-3.0636,-3.0598,-3.0598,0.0,0.0,0.0,0.0,0.0,0.0,-3.0801,-3.0799,0.0,0.0,0.0,0.0,0.0,-3.1289,-3.2168,-3.3046,-3.3944,-3.4861,-3.5759,-3.7045,-3.8782,-4.0285,-4.0578,-3.9799,-4.0617,-4.0987,-4.1046,-4.1903,-4.224,-4.2327,-4.4003,-4.4616,-4.4576,-4.5374,-4.56,-4.5587,-4.6472,-4.7202,-4.7933,0.0,0.0,-4.007,-4.007,-4.007,-3.921,-3.6551,-3.8019,-3.8367,-3.528,-3.561,-3.5824,-3.5077,-3.5441,-3.5871,-3.6284,-3.697,-3.7372,-3.7447,-3.7594,-3.7614,-3.7453,-3.6684,-3.6061,-3.5687,-3.4942,-3.4147,-3.3353,-3.3406,-3.3123,-3.2592,-3.2592,-3.2623,-3.2737,-3.2705,-3.2737,-3.2916,-3.2916,-3.2916,-3.2916,-3.2916,-3.2975,-3.3124,-3.3081,-3.3196,-3.3429,-3.3552,-3.3787,-3.4124,-3.4245,-3.4431,-3.4602,-3.4602,-3.4602,-3.4602,-3.4602,-3.4602,-3.4752,-3.5409,-3.5108,-3.4752,-3.5428,-3.509,-3.4626,-3.4772,-3.487,-3.4982,-3.5232,-3.5177,-3.4892,-3.4179,-3.3362,-3.2502,-3.1661,-3.1004,-3.0607,-3.0606,-3.0587,0.0,0.0,-3.0746,-3.0775,-3.08,-3.0797,-3.0806,0.0,0.0,0.0,0.0,-3.1426,-3.2187,-3.3066,-3.3944,-3.5135,-3.6677,-3.7555,-3.8811,-4.0427,-4.0159,-4.0202,-4.0555,-4.0749,-4.089,-4.1052,-4.1769,-4.212,-4.2313,-4.3896,-4.4479,-4.4421,-4.523,-4.5455,-4.5455,-4.6278,-4.7097,-4.7933,-3.799,-3.914,-4.007,-4.007,-3.9884,-3.909,-3.7186,-3.7119,-3.7185,-3.692,-3.7367,-3.6986,-3.5098,-3.5304,-3.5783,-3.6259,-3.6851,-3.7182,-3.7297,-3.741,-3.7503,-3.7594,-3.6984,-3.6465,-3.6093,-3.552,-3.4635,-3.3512,-3.3213,-3.2861,-3.2507,-3.2674,-3.2755,-3.2816,-3.293,-3.3042,-3.3135,-3.3135,-3.3196,-3.3268,-3.3268,-3.3397,-3.356,-3.3458,-3.3625,-3.3884,-3.3884,-3.4062,-3.434,-3.4409,-3.4517,-3.4602,-3.4602,-3.4864,-3.5184,-3.5184,-3.4902,-3.4864,-3.6104,-3.554,-3.4736,-3.5294,-3.5088,-3.4772,-3.4963,-3.5049,-3.5184,-3.5364,-3.5156,-3.4832,-3.4475,-3.3363,-3.2348,-3.1894,-3.1129,-3.0595,-3.0607,-3.0626,0.0,-3.1272,-3.1379,-3.1543,-3.1949,-3.1999,-3.1992,-3.1992,0.0,0.0,-3.1992,-3.2812,-3.3319,-3.3398,-3.4627,-3.5935,-3.7282,-3.8495,-3.9546,-4.0409,-4.0278,-4.041,-4.0759,-4.0759,-4.077,-4.0878,-4.2047,-4.2555,-4.2691,-4.4297,-4.4881,-4.4806,-4.5247,-4.559,-4.5946,-4.6787,-4.7646,-4.8506,-3.6122,-3.7928,-3.9969,-3.9969,-3.9625,-3.9123,-3.8676,-3.687,-3.6456,-3.8941,-3.9179,-3.8051,-3.5197,-3.5441,-3.5958,-3.6385,-3.6771,-3.7066,-3.7259,-3.7259,-3.7334,-3.7503,-3.7334,-3.6887,-3.6074,-3.5782,-3.5004,-3.3669,-3.3036,-3.2679,-3.2606,-3.2898,-3.3055,-3.3117,-3.3286,-3.3393,-3.3452,-3.3452,-3.3549,-3.3753,-3.3753,-3.3868,-3.4023,-3.3865,-3.4018,-3.4316,-3.4221,-3.4363,-3.462,-3.4752,-3.4789,-3.4808,-3.494,-3.5484,-3.6104,-3.6235,-3.5653,-3.5296,-3.6855,-3.6258,-3.5216,-3.5267,-3.5306,-3.5361,-3.5496,-3.5652,-3.5751,-3.5663,-3.5172,-3.4737,-3.4621,-3.317,-3.2048,-3.2164,-3.1312,-3.0645,-3.0782,0.0,-3.1211,-3.201,-3.2226,-3.2595,-3.3319,-3.3398,-3.3398,-3.3398,-3.3398,-3.3456,0.0,-3.4295,-3.4471,-3.4003,-3.5428,-3.6674,-3.7643,-3.8998,-3.9721,-3.9843,-4.047,-4.0749,-4.0675,-4.0675,-4.07,-4.0866,-4.2319,-4.2969,-4.3118,-4.4641,-4.5208,-4.5125,-4.5239,-4.5793,-4.6596,-4.7341,-4.8239,-4.9194,-3.5702,-3.7403,-3.9415,-3.9415,-3.9379,-3.8444,-3.5943,-3.7301,-3.8758,-3.9259,-3.8706,-3.7405,-3.5177,-3.6028,-3.6811,-3.6891,-3.6948,-3.7009,-3.7066,-3.7066,-3.7066,-3.7087,-3.7066,-3.6658,-3.5867,-3.5197,-3.474,-3.4512,-3.374,-3.3106,-3.2606,-3.2654,-3.2834,-3.3086,-3.3117,-3.3327,-3.3643,-3.3643,-3.378,-3.3947,-3.3947,-3.4074,-3.4245,-3.4221,-3.4363,-3.4539,-3.4517,-3.4561,-3.4714,-3.5446,-3.5709,-3.5822,-3.6498,-3.6798,-3.7042,-3.7737,-3.7343,-3.6911,-3.7868,-3.8049,-3.7804,-3.7183,-3.7147,-3.7288,-3.7429,-3.7488,-3.7338,-3.6779,-3.6582,-3.6303,-3.5626,-3.4079,-3.3151,-3.3886,-3.2092,-3.0859,-3.1579,0.0,-3.1931,-3.209,-3.2749,-3.3244,-3.3398,-3.3398,-3.3398,-3.3398,-3.3398,-3.3729,-3.4452,-3.4627,-3.531,-3.6657,-3.697,-3.7812,-3.931,-3.9451,-3.984,-4.0455,-4.0622,-4.0615,-4.0447,-4.0515,-4.0927,-4.1628,-4.1771,-4.229,-4.3069,-4.3886,-4.4229,-4.4284,-4.501,-4.5793,-4.6519,-4.6653,-4.7723,-4.9117,-3.7567,-3.8344,-3.8775,-3.7201,-3.692,-3.6986,-3.7218,-3.8411,-3.9272,-3.9272,-3.8972,-3.8046,-3.6241,-3.6632,-3.6987,-3.6987,-3.6987,-3.6987,-3.6987,-3.6987,-3.6987,-3.6987,-3.6987,-3.6812,-3.6443,-3.5688,-3.5285,-3.5285,-3.4091,-3.3424,-3.3243,-3.29,-3.2866,-3.3117,-3.3226,-3.3415,-3.3698,-3.3698,-3.3868,-3.4173,-3.4173,-3.4269,-3.4473,-3.4473,-3.4517,-3.4602,-3.4602,-3.4602,-3.4733,-3.5615,-3.5897,-3.6047,-3.6836,-3.7454,-3.798,-3.8357,-3.8527,-3.849,-3.7961,-3.8283,-3.8594,-3.7844,-3.7737,-3.7847,-3.8028,-3.8054,-3.7971,-3.7665,-3.7599,-3.7348,-3.6497,-3.496,-3.41,-3.5008,-3.2616,0.0,0.0,-3.263,-3.2617,-3.4036,-3.4554,-3.5174,-3.6111,-3.5779,-3.5701,-3.6169,-3.5779,-3.5876,-3.6755,-3.6794,-3.736,-3.8609,-3.8608,-3.917,-4.039,-4.0218,-4.0304,-4.0604,-4.0582,-4.0519,-4.0415,-4.0466,-4.0943,-4.1696,-4.2086,-4.2737,-4.3599,-4.4382,-4.4704,-4.4743,-4.5144,-4.608,-4.7207,-4.7207,-4.8277,-4.9748,-3.9139,-3.8725,-3.7765,-3.6191,-3.5346,-3.5661,-3.7914,-3.9174,-3.9564,-3.8875,-3.8791,-3.8461,-3.7612,-3.719,-3.6987,-3.6987,-3.6987,-3.6987,-3.6987,-3.6987,-3.6987,-3.6987,-3.6812,-3.6794,-3.6987,-3.6039,-3.5548,-3.5568,-3.4215,-3.36,-3.3628,-3.3169,-3.3055,-3.3238,-3.3404,-3.3605,-3.3842,-3.3842,-3.4049,-3.4363,-3.4363,-3.4473,-3.4602,-3.4602,-3.4602,-3.4602,-3.4602,-3.4733,-3.5033,-3.5878,-3.6291,-3.661,-3.7418,-3.8241,-3.8888,-3.8888,-3.9445,-3.9755,-3.8422,-3.8651,-3.9136,-3.8627,-3.8551,-3.8607,-3.8774,-3.8798,-3.876,-3.8547,-3.8489,-3.8249,-3.7378,-3.6028,-3.526,-3.6001,0.0,0.0,0.0,-3.3984,-3.4058,-3.6052,-3.6482,-3.7126,-3.8475,-3.7985,-3.7887,-3.8553,-3.7985,-3.7985,-3.8824,-3.871,-3.8961,-3.9761,-3.99,-4.0285,-4.0948,-4.0757,-4.0629,-4.0554,-4.0519,-4.0463,-4.0381,-4.0432,-4.0954,-4.1915,-4.2527,-4.3369,-4.436,-4.501,-4.5297,-4.5316,-4.5507,-4.65,-4.7818,-4.8028,-4.9041,-5.0302,-3.8742,-3.7085,-3.6009,-3.851,-3.6704,-3.4965,-3.5181,-3.8733,-4.0377,-3.7528,-3.7184,-3.7655,-3.8972,-3.7841,-3.6987,-3.6987,-3.6987,-3.6987,-3.6987,-3.6987,-3.6987,-3.6987,-3.6285,-3.625,-3.697,-3.553,-3.4814,-3.496,-3.4164,-3.3555,-3.3145,-3.3122,-3.3298,-3.3671,-3.3671,-3.3895,-3.4245,-3.4245,-3.4363,-3.458,-3.458,-3.4602,-3.4602,-3.4602,-3.4602,-3.4602,-3.4602,-3.5108,-3.5935,-3.6742,-3.7512,-3.8263,-3.9126,-3.9599,-3.9797,-3.9797,-4.012,-4.0386,-4.008,-4.0168,-4.0373,-4.0315,-4.0453,-4.0584,-4.0616,-4.0597,-4.0384,-3.9572,-3.9402,-3.9154,-3.8341,-3.7489,-3.6917,-3.6988,0.0,0.0,-3.578,-3.6441,-3.6992,-3.7184,-3.7926,-3.8456,-3.8593,-3.8534,-3.8534,-3.8593,-3.8534,-3.8863,-3.9663,-3.9,-3.8961,-3.9761,-4.0402,-4.0742,-4.08,-4.0623,-4.0492,-4.0413,-4.0466,-4.0435,-4.031,-4.0308,-4.1188,-4.2698,-4.2756,-4.3711,-4.5201,-4.5258,-4.5297,-4.5373,-4.6118,-4.6978,-4.7914,-4.8716,-4.9557,-5.0302,-3.911,-3.8377,-3.74,-3.6688,-3.5628,-3.5195,-3.6071,-3.7666,-3.8322,-3.7128,-3.6987,-3.7207,-3.7799,-3.7328,-3.6987,-3.6987,-3.6987,-3.6987,-3.6987,-3.6987,-3.6987,-3.6987,-3.6707,-3.6671,-3.697,-3.6408,-3.5902,-3.5467,-3.4942,-3.4378,-3.3844,-3.3579,-3.3616,-3.3895,-3.3895,-3.4049,-3.4293,-3.4293,-3.4427,-3.4602,-3.4602,-3.4602,-3.4658,-3.5202,-3.5409,-3.5465,-3.5972,-3.6348,-3.6761,-3.7568,-3.8112,-3.8644,-3.9494,-4.0,-4.04,-4.102,-4.0954,-4.0775,-4.12,-4.0998,-4.0693,-4.0693,-4.0733,-4.079,-4.079,-4.0803,-4.0699,-4.0382,-4.0343,-4.012,-3.9265,-3.8442,-3.8096,-3.8684,0.0,-3.6503,-3.81,-3.7739,-3.7692,-3.8726,-3.9136,-3.9566,-4.0093,-3.9663,-3.9566,-4.0112,-3.9644,-3.9702,-4.0561,-4.0327,-4.0278,-4.054,-4.0715,-4.081,-4.081,-4.0602,-4.0482,-4.0415,-4.0969,-4.1166,-4.1055,-4.1609,-4.247,-4.3539,-4.3539,-4.4208,-4.5297,-4.5297,-4.5297,-4.5373,-4.6194,-4.7035,-4.7914,-4.8774,-4.9614,-5.0302,-3.7897,-3.7897,-3.7268,-3.5247,-3.4899,-3.5379,-3.6753,-3.6987,-3.6987,-3.6987,-3.6987,-3.6987,-3.6987,-3.6987,-3.6987,-3.6987,-3.6987,-3.6987,-3.6987,-3.6987,-3.6987,-3.6987,-3.6987,-3.6987,-3.6987,-3.6987,-3.6576,-3.5721,-3.5684,-3.5191,-3.42,-3.4193,-3.4149,-3.4099,-3.4099,-3.4197,-3.4404,-3.4685,-3.4884,-3.5033,-3.5277,-3.539,-3.5446,-3.6047,-3.6273,-3.637,-3.6964,-3.7367,-3.7668,-3.8282,-3.8753,-3.92,-3.9829,-4.0405,-4.1093,-4.2105,-4.2028,-4.1699,-4.226,-4.2009,-4.1448,-4.0926,-4.079,-4.0803,-4.0803,-4.0792,-4.0818,-4.0828,-4.1107,-4.1163,-4.0559,-4.0231,-4.0109,-4.0194,-3.8964,-3.843,-3.9627,-3.9058,-3.8921,-4.0073,-4.021,-4.0444,-4.103,-4.0561,-4.0464,-4.1049,-4.0542,-4.0464,-4.1069,-4.1108,-4.107,-4.0994,-4.0874,-4.0781,-4.0751,-4.0579,-4.0449,-4.0381,-4.126,-4.1608,-4.1533,-4.2393,-4.3254,-4.4017,-4.4017,-4.4494,-4.5297,-4.5297,-4.5297,-4.5373,-4.6194,-4.7035,-4.7914,-4.8774,-4.9614,-5.0302,-3.4932,-3.4932,-3.4916,-3.4899,-3.4899,-3.5379,-3.6811,-3.6987,-3.6987,-3.6987,-3.6987,-3.6987,-3.6987,-3.6987,-3.6987,-3.6987,-3.6987,-3.6987,-3.6987,-3.7009,-3.7009,-3.7009,-3.7009,-3.7009,-3.7009,-3.7027,-3.6537,-3.5519,-3.6291,-3.5775,-3.4035,-3.4829,-3.4902,-3.4311,-3.4311,-3.4427,-3.4677,-3.554,-3.5916,-3.5972,-3.6779,-3.7099,-3.7099,-3.7122,-3.7122,-3.7145,-3.7348,-3.7923,-3.8645,-3.8842,-3.9488,-4.0214,-4.0214,-4.0895,-4.1921,-4.2994,-4.3305,-4.3305,-4.3305,-4.3305,-4.2899,-4.1235,-4.081,-4.0822,-4.0808,-4.081,-4.0835,-4.089,-4.166,-4.2291,-4.2311,-4.3061,-4.3125,-4.1406,-4.1847,-4.1791,-4.0054,-4.0561,-4.1108,-4.1108,-4.1108,-4.1108,-4.1108,-4.1108,-4.1108,-4.1108,-4.1108,-4.1108,-4.1108,-4.1108,-4.107,-4.0994,-4.0876,-4.0738,-4.0604,-4.0523,-4.0432,-4.0326,-4.1187,-4.1571,-4.1552,-4.2412,-4.3271,-4.4017,-4.4017,-4.4494,-4.5297,-4.5297,-4.5297,-4.5373,-4.6194,-4.7035,-4.7914,-4.8793,-4.9614,-5.0302,-3.7566,-3.8863,-3.8936,-3.6748,-3.6367,-3.6509,-3.6948,-3.6987,-3.6987,-3.6987,-3.6987,-3.6987,-3.6987,-3.6987,-3.6987,-3.6987,-3.6987,-3.6987,-3.6987,-3.7241,-3.7411,-3.7432,-3.7376,-3.7339,-3.7339,-3.7685,-3.7406,-3.6572,-3.7131,-3.6832,-3.5747,-3.5714,-3.589,-3.6241,-3.5679,-3.5777,-3.6366,-3.6629,-3.6742,-3.6761,-3.6986,-3.7099,-3.7178,-3.7885,-3.8159,-3.8256,-3.907,-3.9528,-3.9719,-3.9776,-4.0093,-4.0537,-4.1239,-4.2088,-4.3018,-4.3949,-4.3788,-4.344,-4.4059,-4.38,-4.3236,-4.2692,-4.259,-4.2451,-4.1849,-4.1777,-4.1866,-4.1871,-4.2148,-4.2556,-4.3161,-4.3514,-4.3523,-4.3015,-4.3144,-4.2923,-4.1771,-4.1849,-4.1791,-4.1166,-4.1108,-4.1108,-4.1108,-4.1108,-4.1108,-4.1108,-4.1108,-4.1108,-4.1108,-4.1061,-4.0974,-4.0855,-4.0729,-4.061,-4.0457,-4.0394,-4.065,-4.1226,-4.2049,-4.2737,-4.3291,-4.415,-4.4685,-4.4914,-4.4914,-4.5048,-4.5297,-4.5297,-4.5297,-4.543,-4.6863,-4.757,-4.7971,-4.9404,-5.0092,-5.0302,-3.7417,-3.8751,-3.9182,-3.7303,-3.6987,-3.6987,-3.6987,-3.8023,-3.8813,-3.8813,-3.7742,-3.6987,-3.6987,-3.6987,-3.6987,-3.6987,-3.6987,-3.6987,-3.6987,-3.7541,-3.7879,-3.7859,-3.7962,-3.7962,-3.7843,-3.8096,-3.7908,-3.7289,-3.7884,-3.77,-3.6739,-3.6798,-3.6948,-3.7061,-3.6592,-3.6629,-3.7117,-3.7437,-3.7619,-3.7728,-3.8067,-3.8266,-3.8391,-3.899,-3.924,-3.9317,-4.0059,-4.0321,-4.0321,-4.0406,-4.0716,-4.1263,-4.2215,-4.3111,-4.4001,-4.4891,-4.4789,-4.4502,-4.5037,-4.4842,-4.4464,-4.4424,-4.3664,-4.2882,-4.2734,-4.2485,-4.2407,-4.2781,-4.3164,-4.3589,-4.4116,-4.4496,-4.4621,-4.427,-4.4211,-4.3918,-4.304,-4.2903,-4.2728,-4.2181,-4.181,-4.1615,-4.1615,-4.1303,-4.1244,-4.1596,-4.1927,-4.2123,-4.2123,-4.1749,-4.1447,-4.1286,-4.1132,-4.0997,-4.0879,-4.1149,-4.138,-4.1571,-4.2737,-4.3539,-4.4036,-4.4895,-4.5297,-4.5297,-4.5297,-4.5297,-4.5297,-4.5297,-4.5297,-4.543,-4.6768,-4.7513,-4.7971,-4.9328,-5.0034,-5.0302,-3.5604,-3.6114,-3.6987,-3.6987,-3.6987,-3.6987,-3.6987,-3.9375,-4.1183,-4.1183,-3.8725,-3.7075,-3.7356,-3.7391,-3.7286,-3.7005,-3.7233,-3.7347,-3.7241,-3.798,-3.8355,-3.8273,-3.8651,-3.8711,-3.8418,-3.8405,-3.8242,-3.7868,-3.8619,-3.8391,-3.7324,-3.7981,-3.7943,-3.7305,-3.7253,-3.7276,-3.7408,-3.8164,-3.8584,-3.8816,-3.9612,-4.004,-4.0214,-4.0233,-4.0233,-4.0251,-4.0457,-4.0539,-4.0554,-4.0733,-4.139,-4.2241,-4.3053,-4.3962,-4.4891,-4.575,-4.5991,-4.6007,-4.608,-4.6099,-4.6119,-4.6119,-4.425,-4.2678,-4.3525,-4.3117,-4.2773,-4.3632,-4.4442,-4.5012,-4.5109,-4.5753,-4.6046,-4.5246,-4.5129,-4.4816,-4.3938,-4.3821,-4.3782,-4.3704,-4.3001,-4.2513,-4.2513,-4.1791,-4.1654,-4.2454,-4.3177,-4.3606,-4.3681,-4.2719,-4.2152,-4.211,-4.1892,-4.1758,-4.1723,-4.2508,-4.2507,-4.1743,-4.3271,-4.4055,-4.415,-4.4934,-4.5297,-4.5297,-4.5297,-4.5297,-4.5297,-4.5297,-4.5297,-4.5392,-4.6271,-4.7111,-4.7914,-4.885,-4.9671,-5.0302,-3.6672,-3.6811,-3.6987,-3.6987,-3.6987,-3.6987,-3.6987,-3.7549,-3.7988,-3.7988,-3.7409,-3.79,-4.034,-4.0604,-3.9621,-3.7198,-3.9199,-4.0107,-3.8962,-3.9137,-3.9146,-3.8762,-3.899,-3.9183,-3.9335,-3.9283,-3.9208,-3.9093,-3.9338,-3.9321,-3.9057,-3.8544,-3.8563,-3.9038,-3.8508,-3.8653,-3.9318,-3.9658,-3.9814,-3.9872,-4.0063,-4.0158,-4.0214,-4.0372,-4.0422,-4.0457,-4.066,-4.0733,-4.0733,-4.079,-4.1796,-4.3053,-4.3247,-4.4407,-4.5731,-4.5944,-4.6029,-4.6075,-4.6098,-4.6136,-4.6184,-4.6184,-4.5273,-4.443,-4.4587,-4.4511,-4.4477,-4.4689,-4.4878,-4.5207,-4.589,-4.6163,-4.6241,-4.6046,-4.6027,-4.5714,-4.4836,-4.4719,-4.4465,-4.3782,-4.3528,-4.3411,-4.3411,-4.3255,-4.3216,-4.3391,-4.2962,-4.2928,-4.3512,-4.2007,-4.1653,-4.2827,-4.2066,-4.1931,-4.2527,-4.333,-4.3654,-4.3463,-4.3845,-4.436,-4.501,-4.5201,-4.5297,-4.5297,-4.5297,-4.5297,-4.5297,-4.5297,-4.5297,-4.5449,-4.694,-4.7646,-4.799,-4.95,-5.0149,-5.0302,-3.9182,-3.9182,-3.9182,-3.9182,-3.797,-3.6987,-3.6987,-3.6987,-3.6987,-3.6987,-3.6987,-3.7602,-3.9217,-3.941,-3.9093,-3.8307,-3.9722,-4.0327,-3.9537,-3.9552,-3.9483,-3.9227,-3.9317,-3.9458,-3.9596,-3.9571,-3.9546,-3.9546,-3.9577,-3.9602,-3.9602,-3.9126,-3.9145,-3.9583,-3.9331,-3.9456,-3.9914,-4.012,-4.0251,-4.0339,-4.0339,-4.0389,-4.0489,-4.0598,-4.0646,-4.066,-4.0746,-4.079,-4.0848,-4.1235,-4.2241,-4.3421,-4.3827,-4.491,-4.6061,-4.6093,-4.6128,-4.6156,-4.6187,-4.6211,-4.6247,-4.6247,-4.5924,-4.5604,-4.5581,-4.528,-4.5129,-4.5539,-4.5617,-4.5753,-4.6222,-4.63,-4.63,-4.63,-4.63,-4.6144,-4.5675,-4.5617,-4.5441,-4.4992,-4.4563,-4.4153,-4.3743,-4.4075,-4.4328,-4.4328,-4.4289,-4.4434,-4.4811,-4.3411,-4.2959,-4.375,-4.3131,-4.2986,-4.3369,-4.4209,-4.4628,-4.4628,-4.4628,-4.4857,-4.5297,-4.5297,-4.5297,-4.5297,-4.5297,-4.5297,-4.5297,-4.5297,-4.5297,-4.543,-4.6691,-4.7436,-4.7971,-4.9251,-4.9977,-5.0302,-4.1117,-4.1029,-4.1029,-4.1029,-3.8876,-3.722,-3.722,-3.722,-3.722,-3.722,-3.722,-3.722,-3.722,-3.7356,-3.8029,-3.9483,-3.9602,-3.9602,-3.9602,-3.9602,-3.9602,-3.9602,-3.9602,-3.9602,-3.9602,-3.9602,-3.9602,-3.9602,-3.9602,-3.9626,-3.965,-3.965,-3.9656,-3.9703,-3.9914,-4.0,-4.002,-4.0214,-4.0389,-4.0554,-4.0554,-4.0646,-4.079,-4.079,-4.079,-4.079,-4.079,-4.09,-4.1132,-4.1807,-4.2749,-4.3768,-4.4478,-4.5362,-4.6119,-4.6189,-4.6209,-4.6229,-4.6273,-4.63,-4.63,-4.63,-4.63,-4.63,-4.63,-4.5734,-4.5421,-4.6144,-4.63,-4.63,-4.63,-4.63,-4.63,-4.63,-4.63,-4.63,-4.63,-4.63,-4.63,-4.63,-4.5656,-4.4933,-4.4211,-4.4797,-4.5226,-4.5223,-4.575,-4.6132,-4.625,-4.5045,-4.4451,-4.4686,-4.4301,-4.4133,-4.4227,-4.4934,-4.5297,-4.5297,-4.5297,-4.5297,-4.5297,-4.5297,-4.5297,-4.5297,-4.5297,-4.5297,-4.5297,-4.5297,-4.5297,-4.5373,-4.6194,-4.7035,-4.7933,-4.8926,-4.9729,-5.0302,-3.9211,-3.8669,-3.8669,-3.8669,-3.8326,-3.8038,-3.8038,-3.8038,-3.8038,-3.8038,-3.8038,-3.8038,-3.8038,-3.8766,-3.9343,-3.9577,-3.9602,-3.9602,-3.9602,-3.9602,-3.9602,-3.9602,-3.9602,-3.9602,-3.9602,-3.9602,-3.9602,-3.9602,-3.9602,-3.9679,-3.9848,-3.9848,-3.9937,-4.0139,-4.0321,-4.0425,-4.0441,-4.0646,-4.0733,-4.0765,-4.0765,-4.0778,-4.079,-4.079,-4.079,-4.079,-4.079,-4.1287,-4.1943,-4.212,-4.3261,-4.4631,-4.4748,-4.544,-4.6186,-4.62,-4.6249,-4.629,-4.6303,-4.63,-4.63,-4.63,-4.63,-4.63,-4.63,-4.6202,-4.6163,-4.628,-4.63,-4.63,-4.63,-4.63,-4.63,-4.63,-4.63,-4.63,-4.63,-4.63,-4.63,-4.63,-4.6202,-4.6085,-4.5968,-4.6046,-4.612,-4.6113,-4.5542,-4.544,-4.6088,-4.4392,-4.402,-4.5414,-4.4518,-4.436,-4.5125,-4.5239,-4.5297,-4.5297,-4.5297,-4.5297,-4.5297,-4.5297,-4.5297,-4.5297,-4.5297,-4.5297,-4.5297,-4.5297,-4.5297,-4.5373,-4.6194,-4.7035,-4.799,-4.9557,-5.0206,-5.0302,-3.8808,-3.8192,-3.8192,-3.8192,-3.8192,-3.8192,-3.8192,-3.8192,-3.9043,-4.141,-4.0137,-3.9692,-4.1526,-4.0456,-3.9602,-3.9602,-3.9602,-3.9602,-3.9602,-3.9602,-3.9674,-3.9823,-3.9777,-3.9823,-3.9916,-3.9935,-3.9935,-3.9935,-3.9804,-3.987,-4.006,-4.006,-4.012,-4.0214,-4.0425,-4.0489,-4.0504,-4.072,-4.079,-4.079,-4.079,-4.079,-4.079,-4.079,-4.079,-4.0803,-4.0798,-4.1353,-4.218,-4.2734,-4.3782,-4.4938,-4.5437,-4.5891,-4.6268,-4.6265,-4.6276,-4.63,-4.63,-4.63,-4.63,-4.63,-4.63,-4.63,-4.63,-4.63,-4.63,-4.63,-4.63,-4.63,-4.63,-4.63,-4.63,-4.63,-4.63,-4.63,-4.63,-4.63,-4.63,-4.63,-4.63,-4.63,-4.63,-4.6296,-4.6288,-4.6303,-4.5909,-4.5774,-4.6026,-4.5165,-4.4921,-4.5524,-4.4997,-4.4914,-4.5297,-4.5297,-4.5297,-4.5297,-4.5297,-4.5297,-4.5297,-4.5297,-4.5297,-4.5297,-4.5297,-4.5297,-4.5297,-4.5297,-4.5297,-4.5373,-4.6194,-4.7341,-4.8678,-4.9862,-5.0302,-5.0302]}]]